Wetterdaten: Donnerstag, 02.06.2016
Datum Zeit Temp. A. Feuchte A. Luftdruck Regen Wind Richtung Richtung Sonnenschein ET UV Solar Taupunkt Windchill Windben Empfang
02.06.2016 00:00 13,4 C 94 % 1010,9 hPa 0,0 l/m 6,4 km/h (2 Bft) SW 234 0 min 0,000 mm 0,0 UV-I 0 W/m 12,5 C 13,4 C 8,0 km/h (2 Bft) 100,00 %
02.06.2016 00:01 13,4 C 94 % 1011,0 hPa 0,0 l/m 6,6 km/h (2 Bft) SW 224 0 min 0,000 mm 0,0 UV-I 0 W/m 12,5 C 13,3 C 11,3 km/h (2 Bft) 100,00 %
02.06.2016 00:02 13,5 C 94 % 1011,0 hPa 0,0 l/m 5,5 km/h (1 Bft) SW 231 0 min 0,000 mm 0,0 UV-I 0 W/m 12,6 C 13,5 C 8,0 km/h (2 Bft) 95,83 %
02.06.2016 00:03 13,4 C 94 % 1010,9 hPa 0,0 l/m 4,0 km/h (1 Bft) W-SW 244 0 min 0,000 mm 0,0 UV-I 0 W/m 12,5 C 13,4 C 6,4 km/h (2 Bft) 95,65 %
02.06.2016 00:04 13,4 C 94 % 1011,0 hPa 0,0 l/m 6,7 km/h (2 Bft) W-SW 238 0 min 0,000 mm 0,0 UV-I 0 W/m 12,5 C 13,2 C 9,7 km/h (2 Bft) 100,00 %
02.06.2016 00:05 13,4 C 94 % 1011,0 hPa 0,0 l/m 6,8 km/h (2 Bft) S-SW 207 0 min 0,000 mm 0,0 UV-I 0 W/m 12,5 C 13,2 C 9,7 km/h (2 Bft) 95,65 %
02.06.2016 00:06 13,4 C 94 % 1010,9 hPa 0,0 l/m 6,3 km/h (2 Bft) SW 233 0 min 0,000 mm 0,0 UV-I 0 W/m 12,5 C 13,4 C 9,7 km/h (2 Bft) 91,67 %
02.06.2016 00:07 13,4 C 94 % 1010,9 hPa 0,0 l/m 6,8 km/h (2 Bft) SW 232 0 min 0,000 mm 0,0 UV-I 0 W/m 12,5 C 13,2 C 8,0 km/h (2 Bft) 95,65 %
02.06.2016 00:08 13,4 C 94 % 1010,9 hPa 0,0 l/m 7,1 km/h (2 Bft) S-SW 198 0 min 0,000 mm 0,0 UV-I 0 W/m 12,5 C 13,0 C 8,0 km/h (2 Bft) 100,00 %
02.06.2016 00:09 13,4 C 94 % 1010,9 hPa 0,0 l/m 5,9 km/h (2 Bft) W-SW 239 0 min 0,000 mm 0,0 UV-I 0 W/m 12,5 C 13,4 C 8,0 km/h (2 Bft) 95,65 %
02.06.2016 00:10 13,4 C 94 % 1011,0 hPa 0,0 l/m 8,1 km/h (2 Bft) SW 223 0 min 0,000 mm 0,0 UV-I 0 W/m 12,5 C 12,4 C 11,3 km/h (2 Bft) 100,00 %
02.06.2016 00:11 13,4 C 94 % 1011,0 hPa 0,0 l/m 5,6 km/h (1 Bft) W-SW 250 0 min 0,000 mm 0,0 UV-I 0 W/m 12,5 C 13,4 C 8,0 km/h (2 Bft) 95,65 %
02.06.2016 00:12 13,4 C 94 % 1011,0 hPa 0,0 l/m 7,2 km/h (2 Bft) W-SW 241 0 min 0,000 mm 0,0 UV-I 0 W/m 12,5 C 12,9 C 11,3 km/h (2 Bft) 100,00 %
02.06.2016 00:13 13,4 C 94 % 1010,9 hPa 0,0 l/m 5,1 km/h (1 Bft) SW 227 0 min 0,000 mm 0,0 UV-I 0 W/m 12,5 C 13,4 C 6,4 km/h (2 Bft) 95,65 %
02.06.2016 00:14 13,4 C 94 % 1010,9 hPa 0,0 l/m 4,5 km/h (1 Bft) SW 225 0 min 0,000 mm 0,0 UV-I 0 W/m 12,5 C 13,4 C 4,8 km/h (1 Bft) 95,83 %
02.06.2016 00:15 13,5 C 94 % 1010,9 hPa 0,0 l/m 5,8 km/h (2 Bft) S-SW 202 0 min 0,000 mm 0,0 UV-I 0 W/m 12,6 C 13,5 C 8,0 km/h (2 Bft) 100,00 %
02.06.2016 00:16 13,4 C 94 % 1010,9 hPa 0,0 l/m 5,6 km/h (1 Bft) W-SW 240 0 min 0,000 mm 0,0 UV-I 0 W/m 12,5 C 13,4 C 8,0 km/h (2 Bft) 95,83 %
02.06.2016 00:17 13,5 C 94 % 1010,9 hPa 0,0 l/m 7,2 km/h (2 Bft) S-SW 213 0 min 0,000 mm 0,0 UV-I 0 W/m 12,6 C 13,0 C 9,7 km/h (2 Bft) 100,00 %
02.06.2016 00:18 13,4 C 94 % 1010,9 hPa 0,0 l/m 4,6 km/h (1 Bft) S-SW 209 0 min 0,000 mm 0,0 UV-I 0 W/m 12,5 C 13,4 C 6,4 km/h (2 Bft) 95,83 %
02.06.2016 00:19 13,4 C 94 % 1010,9 hPa 0,0 l/m 5,5 km/h (1 Bft) SW 232 0 min 0,000 mm 0,0 UV-I 0 W/m 12,5 C 13,4 C 8,0 km/h (2 Bft) 100,00 %
02.06.2016 00:20 13,4 C 94 % 1010,9 hPa 0,0 l/m 5,7 km/h (1 Bft) SW 233 0 min 0,000 mm 0,0 UV-I 0 W/m 12,5 C 13,4 C 6,4 km/h (2 Bft) 95,65 %
02.06.2016 00:21 13,5 C 94 % 1010,9 hPa 0,0 l/m 6,2 km/h (2 Bft) SW 220 0 min 0,000 mm 0,0 UV-I 0 W/m 12,6 C 13,5 C 8,0 km/h (2 Bft) 95,83 %
02.06.2016 00:22 13,5 C 94 % 1010,9 hPa 0,0 l/m 6,1 km/h (2 Bft) SW 233 0 min 0,000 mm 0,0 UV-I 0 W/m 12,6 C 13,5 C 8,0 km/h (2 Bft) 100,00 %
02.06.2016 00:23 13,4 C 94 % 1010,9 hPa 0,0 l/m 5,4 km/h (1 Bft) W-SW 240 0 min 0,000 mm 0,0 UV-I 0 W/m 12,5 C 13,4 C 6,4 km/h (2 Bft) 100,00 %
02.06.2016 00:24 13,5 C 94 % 1010,9 hPa 0,0 l/m 6,2 km/h (2 Bft) SW 231 0 min 0,000 mm 0,0 UV-I 0 W/m 12,6 C 13,5 C 8,0 km/h (2 Bft) 95,65 %
02.06.2016 00:25 13,4 C 94 % 1010,9 hPa 0,0 l/m 6,4 km/h (2 Bft) W-SW 237 0 min 0,000 mm 0,0 UV-I 0 W/m 12,5 C 13,4 C 8,0 km/h (2 Bft) 95,83 %
02.06.2016 00:26 13,4 C 94 % 1010,9 hPa 0,0 l/m 4,8 km/h (1 Bft) SW 221 0 min 0,000 mm 0,0 UV-I 0 W/m 12,5 C 13,4 C 6,4 km/h (2 Bft) 96,15 %
02.06.2016 00:27 13,5 C 94 % 1010,8 hPa 0,0 l/m 5,0 km/h (1 Bft) SW 229 0 min 0,000 mm 0,0 UV-I 0 W/m 12,6 C 13,5 C 6,4 km/h (2 Bft) 95,83 %
02.06.2016 00:28 13,4 C 94 % 1010,9 hPa 0,0 l/m 4,1 km/h (1 Bft) SW 218 0 min 0,000 mm 0,0 UV-I 0 W/m 12,5 C 13,4 C 4,8 km/h (1 Bft) 100,00 %
02.06.2016 00:29 13,4 C 94 % 1010,9 hPa 0,0 l/m 3,6 km/h (1 Bft) SW 218 0 min 0,000 mm 0,0 UV-I 0 W/m 12,5 C 13,4 C 4,8 km/h (1 Bft) 95,83 %
02.06.2016 00:30 13,4 C 94 % 1010,9 hPa 0,0 l/m 4,2 km/h (1 Bft) SW 227 0 min 0,000 mm 0,0 UV-I 0 W/m 12,5 C 13,4 C 4,8 km/h (1 Bft) 95,65 %
02.06.2016 00:31 13,4 C 94 % 1010,8 hPa 0,0 l/m 3,8 km/h (1 Bft) SW 219 0 min 0,000 mm 0,0 UV-I 0 W/m 12,5 C 13,4 C 4,8 km/h (1 Bft) 95,83 %
02.06.2016 00:32 13,4 C 94 % 1010,8 hPa 0,0 l/m 6,0 km/h (2 Bft) SW 223 0 min 0,000 mm 0,0 UV-I 0 W/m 12,5 C 13,4 C 6,4 km/h (2 Bft) 96,15 %
02.06.2016 00:33 13,4 C 94 % 1010,8 hPa 0,0 l/m 4,1 km/h (1 Bft) SW 223 0 min 0,000 mm 0,0 UV-I 0 W/m 12,5 C 13,4 C 6,4 km/h (2 Bft) 100,00 %
02.06.2016 00:34 13,4 C 94 % 1010,8 hPa 0,0 l/m 4,4 km/h (1 Bft) SW 231 0 min 0,000 mm 0,0 UV-I 0 W/m 12,5 C 13,4 C 6,4 km/h (2 Bft) 95,65 %
02.06.2016 00:35 13,4 C 94 % 1010,8 hPa 0,0 l/m 3,8 km/h (1 Bft) SW 230 0 min 0,000 mm 0,0 UV-I 0 W/m 12,5 C 13,4 C 6,4 km/h (2 Bft) 100,00 %
02.06.2016 00:36 13,4 C 94 % 1010,8 hPa 0,0 l/m 4,0 km/h (1 Bft) SW 227 0 min 0,000 mm 0,0 UV-I 0 W/m 12,5 C 13,4 C 6,4 km/h (2 Bft) 95,65 %
02.06.2016 00:37 13,4 C 94 % 1010,8 hPa 0,0 l/m 4,5 km/h (1 Bft) W-SW 238 0 min 0,000 mm 0,0 UV-I 0 W/m 12,5 C 13,4 C 6,4 km/h (2 Bft) 100,00 %
02.06.2016 00:38 13,4 C 94 % 1010,8 hPa 0,0 l/m 4,2 km/h (1 Bft) SW 234 0 min 0,000 mm 0,0 UV-I 0 W/m 12,5 C 13,4 C 4,8 km/h (1 Bft) 91,30 %
02.06.2016 00:39 13,4 C 94 % 1010,8 hPa 0,0 l/m 4,6 km/h (1 Bft) SW 232 0 min 0,000 mm 0,0 UV-I 0 W/m 12,5 C 13,4 C 6,4 km/h (2 Bft) 93,33 %
02.06.2016 00:40 13,4 C 94 % 1010,8 hPa 0,0 l/m 5,4 km/h (1 Bft) SW 232 0 min 0,000 mm 0,0 UV-I 0 W/m 12,5 C 13,4 C 8,0 km/h (2 Bft) 95,83 %
02.06.2016 00:41 13,4 C 94 % 1010,8 hPa 0,0 l/m 5,5 km/h (1 Bft) W-SW 250 0 min 0,000 mm 0,0 UV-I 0 W/m 12,5 C 13,4 C 6,4 km/h (2 Bft) 100,00 %
02.06.2016 00:42 13,4 C 94 % 1010,8 hPa 0,0 l/m 4,3 km/h (1 Bft) SW 225 0 min 0,000 mm 0,0 UV-I 0 W/m 12,5 C 13,4 C 6,4 km/h (2 Bft) 100,00 %
02.06.2016 00:43 13,4 C 94 % 1010,8 hPa 0,0 l/m 4,6 km/h (1 Bft) SW 221 0 min 0,000 mm 0,0 UV-I 0 W/m 12,5 C 13,4 C 8,0 km/h (2 Bft) 100,00 %
02.06.2016 00:44 13,4 C 94 % 1010,7 hPa 0,0 l/m 6,7 km/h (2 Bft) SW 226 0 min 0,000 mm 0,0 UV-I 0 W/m 12,5 C 13,2 C 8,0 km/h (2 Bft) 100,00 %
02.06.2016 00:45 13,4 C 94 % 1010,7 hPa 0,0 l/m 6,6 km/h (2 Bft) S-SW 213 0 min 0,000 mm 0,0 UV-I 0 W/m 12,5 C 13,3 C 8,0 km/h (2 Bft) 86,96 %
02.06.2016 00:46 13,4 C 94 % 1010,7 hPa 0,0 l/m 7,1 km/h (2 Bft) S-SW 206 0 min 0,000 mm 0,0 UV-I 0 W/m 12,5 C 13,0 C 9,7 km/h (2 Bft) 100,00 %
02.06.2016 00:47 13,4 C 94 % 1010,7 hPa 0,0 l/m 5,0 km/h (1 Bft) SW 225 0 min 0,000 mm 0,0 UV-I 0 W/m 12,5 C 13,4 C 6,4 km/h (2 Bft) 86,96 %
02.06.2016 00:48 13,4 C 94 % 1010,7 hPa 0,0 l/m 4,2 km/h (1 Bft) SW 236 0 min 0,000 mm 0,0 UV-I 0 W/m 12,5 C 13,4 C 8,0 km/h (2 Bft) 100,00 %
02.06.2016 00:49 13,4 C 94 % 1010,7 hPa 0,0 l/m 4,3 km/h (1 Bft) SW 215 0 min 0,000 mm 0,0 UV-I 0 W/m 12,5 C 13,4 C 6,4 km/h (2 Bft) 100,00 %
02.06.2016 00:50 13,4 C 94 % 1010,7 hPa 0,0 l/m 4,4 km/h (1 Bft) SW 215 0 min 0,000 mm 0,0 UV-I 0 W/m 12,5 C 13,4 C 6,4 km/h (2 Bft) 100,00 %
02.06.2016 00:51 13,4 C 94 % 1010,7 hPa 0,0 l/m 4,6 km/h (1 Bft) SW 227 0 min 0,000 mm 0,0 UV-I 0 W/m 12,5 C 13,4 C 8,0 km/h (2 Bft) 100,00 %
02.06.2016 00:52 13,4 C 94 % 1010,7 hPa 0,0 l/m 4,2 km/h (1 Bft) SW 227 0 min 0,000 mm 0,0 UV-I 0 W/m 12,5 C 13,4 C 6,4 km/h (2 Bft) 100,00 %
02.06.2016 00:53 13,4 C 94 % 1010,7 hPa 0,0 l/m 4,8 km/h (1 Bft) SW 217 0 min 0,000 mm 0,0 UV-I 0 W/m 12,5 C 13,4 C 6,4 km/h (2 Bft) 100,00 %
02.06.2016 00:54 13,4 C 94 % 1010,7 hPa 0,0 l/m 5,3 km/h (1 Bft) SW 232 0 min 0,000 mm 0,0 UV-I 0 W/m 12,5 C 13,4 C 6,4 km/h (2 Bft) 100,00 %
02.06.2016 00:55 13,4 C 94 % 1010,7 hPa 0,0 l/m 4,4 km/h (1 Bft) SW 217 0 min 0,000 mm 0,0 UV-I 0 W/m 12,5 C 13,4 C 6,4 km/h (2 Bft) 100,00 %
02.06.2016 00:56 13,4 C 94 % 1010,7 hPa 0,0 l/m 4,4 km/h (1 Bft) SW 225 0 min 0,000 mm 0,0 UV-I 0 W/m 12,5 C 13,4 C 6,4 km/h (2 Bft) 100,00 %
02.06.2016 00:57 13,4 C 94 % 1010,7 hPa 0,0 l/m 4,5 km/h (1 Bft) SW 233 0 min 0,000 mm 0,0 UV-I 0 W/m 12,5 C 13,4 C 8,0 km/h (2 Bft) 100,00 %
02.06.2016 00:58 13,4 C 94 % 1010,7 hPa 0,0 l/m 4,6 km/h (1 Bft) SW 236 0 min 0,000 mm 0,0 UV-I 0 W/m 12,5 C 13,4 C 8,0 km/h (2 Bft) 95,65 %
02.06.2016 00:59 13,4 C 94 % 1010,6 hPa 0,0 l/m 4,0 km/h (1 Bft) SW 227 0 min 0,000 mm 0,0 UV-I 0 W/m 12,5 C 13,4 C 6,4 km/h (2 Bft) 100,00 %
02.06.2016 01:00 13,4 C 94 % 1010,6 hPa 0,0 l/m 3,6 km/h (1 Bft) SW 221 0 min 0,000 mm 0,0 UV-I 0 W/m 12,5 C 13,4 C 4,8 km/h (1 Bft) 100,00 %
02.06.2016 01:01 13,4 C 94 % 1010,6 hPa 0,0 l/m 4,0 km/h (1 Bft) SW 234 0 min 0,000 mm 0,0 UV-I 0 W/m 12,5 C 13,4 C 4,8 km/h (1 Bft) 100,00 %
02.06.2016 01:02 13,4 C 94 % 1010,6 hPa 0,0 l/m 3,8 km/h (1 Bft) SW 214 0 min 0,000 mm 0,0 UV-I 0 W/m 12,5 C 13,4 C 4,8 km/h (1 Bft) 100,00 %
02.06.2016 01:03 13,4 C 94 % 1010,6 hPa 0,0 l/m 3,3 km/h (1 Bft) SW 215 0 min 0,000 mm 0,0 UV-I 0 W/m 12,5 C 13,4 C 4,8 km/h (1 Bft) 100,00 %
02.06.2016 01:04 13,4 C 94 % 1010,6 hPa 0,0 l/m 3,4 km/h (1 Bft) SW 216 0 min 0,000 mm 0,0 UV-I 0 W/m 12,5 C 13,4 C 4,8 km/h (1 Bft) 95,65 %
02.06.2016 01:05 13,4 C 94 % 1010,5 hPa 0,0 l/m 4,4 km/h (1 Bft) SW 223 0 min 0,000 mm 0,0 UV-I 0 W/m 12,5 C 13,4 C 4,8 km/h (1 Bft) 100,00 %
02.06.2016 01:06 13,4 C 94 % 1010,6 hPa 0,0 l/m 4,0 km/h (1 Bft) SW 223 0 min 0,000 mm 0,0 UV-I 0 W/m 12,5 C 13,4 C 4,8 km/h (1 Bft) 100,00 %
02.06.2016 01:07 13,4 C 94 % 1010,5 hPa 0,0 l/m 2,5 km/h (1 Bft) SW 223 0 min 0,000 mm 0,0 UV-I 0 W/m 12,5 C 13,4 C 4,8 km/h (1 Bft) 100,00 %
02.06.2016 01:08 13,4 C 94 % 1010,5 hPa 0,0 l/m 3,9 km/h (1 Bft) SW 223 0 min 0,000 mm 0,0 UV-I 0 W/m 12,5 C 13,4 C 6,4 km/h (2 Bft) 95,65 %
02.06.2016 01:09 13,4 C 94 % 1010,5 hPa 0,0 l/m 5,2 km/h (1 Bft) W-SW 238 0 min 0,000 mm 0,0 UV-I 0 W/m 12,5 C 13,4 C 6,4 km/h (2 Bft) 100,00 %
02.06.2016 01:10 13,4 C 94 % 1010,5 hPa 0,0 l/m 4,4 km/h (1 Bft) SW 223 0 min 0,000 mm 0,0 UV-I 0 W/m 12,5 C 13,4 C 6,4 km/h (2 Bft) 95,65 %
02.06.2016 01:11 13,4 C 94 % 1010,5 hPa 0,0 l/m 5,1 km/h (1 Bft) SW 226 0 min 0,000 mm 0,0 UV-I 0 W/m 12,5 C 13,4 C 6,4 km/h (2 Bft) 100,00 %
02.06.2016 01:12 13,3 C 94 % 1010,5 hPa 0,0 l/m 4,3 km/h (1 Bft) SW 226 0 min 0,000 mm 0,0 UV-I 0 W/m 12,4 C 13,3 C 6,4 km/h (2 Bft) 100,00 %
02.06.2016 01:13 13,3 C 94 % 1010,4 hPa 0,0 l/m 4,2 km/h (1 Bft) SW 225 0 min 0,000 mm 0,0 UV-I 0 W/m 12,4 C 13,3 C 6,4 km/h (2 Bft) 100,00 %
02.06.2016 01:14 13,3 C 94 % 1010,4 hPa 0,0 l/m 4,0 km/h (1 Bft) SW 223 0 min 0,000 mm 0,0 UV-I 0 W/m 12,4 C 13,3 C 4,8 km/h (1 Bft) 100,00 %
02.06.2016 01:15 13,3 C 94 % 1010,4 hPa 0,0 l/m 5,0 km/h (1 Bft) W-SW 238 0 min 0,000 mm 0,0 UV-I 0 W/m 12,4 C 13,3 C 6,4 km/h (2 Bft) 100,00 %
02.06.2016 01:16 13,3 C 94 % 1010,4 hPa 0,0 l/m 4,8 km/h (1 Bft) SW 225 0 min 0,000 mm 0,0 UV-I 0 W/m 12,4 C 13,3 C 6,4 km/h (2 Bft) 100,00 %
02.06.2016 01:17 13,3 C 94 % 1010,4 hPa 0,0 l/m 4,2 km/h (1 Bft) SW 220 0 min 0,000 mm 0,0 UV-I 0 W/m 12,4 C 13,3 C 4,8 km/h (1 Bft) 100,00 %
02.06.2016 01:18 13,3 C 94 % 1010,4 hPa 0,0 l/m 3,9 km/h (1 Bft) W-SW 241 0 min 0,000 mm 0,0 UV-I 0 W/m 12,4 C 13,3 C 6,4 km/h (2 Bft) 100,00 %
02.06.2016 01:19 13,3 C 94 % 1010,4 hPa 0,0 l/m 4,6 km/h (1 Bft) SW 232 0 min 0,000 mm 0,0 UV-I 0 W/m 12,4 C 13,3 C 8,0 km/h (2 Bft) 95,83 %
02.06.2016 01:20 13,3 C 94 % 1010,4 hPa 0,0 l/m 4,1 km/h (1 Bft) W-SW 240 0 min 0,000 mm 0,0 UV-I 0 W/m 12,4 C 13,3 C 6,4 km/h (2 Bft) 100,00 %
02.06.2016 01:21 13,3 C 94 % 1010,4 hPa 0,0 l/m 4,3 km/h (1 Bft) SW 233 0 min 0,000 mm 0,0 UV-I 0 W/m 12,4 C 13,3 C 6,4 km/h (2 Bft) 100,00 %
02.06.2016 01:22 13,3 C 94 % 1010,3 hPa 0,0 l/m 3,4 km/h (1 Bft) SW 233 0 min 0,000 mm 0,0 UV-I 0 W/m 12,4 C 13,3 C 4,8 km/h (1 Bft) 100,00 %
02.06.2016 01:23 13,3 C 94 % 1010,3 hPa 0,0 l/m 4,4 km/h (1 Bft) SW 234 0 min 0,000 mm 0,0 UV-I 0 W/m 12,4 C 13,3 C 6,4 km/h (2 Bft) 95,65 %
02.06.2016 01:24 13,3 C 94 % 1010,3 hPa 0,0 l/m 6,3 km/h (2 Bft) SW 235 0 min 0,000 mm 0,0 UV-I 0 W/m 12,4 C 13,3 C 8,0 km/h (2 Bft) 100,00 %
02.06.2016 01:25 13,3 C 94 % 1010,3 hPa 0,0 l/m 6,9 km/h (2 Bft) W-SW 238 0 min 0,000 mm 0,0 UV-I 0 W/m 12,4 C 13,0 C 9,7 km/h (2 Bft) 100,00 %
02.06.2016 01:26 13,3 C 94 % 1010,3 hPa 0,0 l/m 5,9 km/h (2 Bft) SW 232 0 min 0,000 mm 0,0 UV-I 0 W/m 12,4 C 13,3 C 8,0 km/h (2 Bft) 100,00 %
02.06.2016 01:27 13,3 C 94 % 1010,3 hPa 0,0 l/m 5,2 km/h (1 Bft) SW 215 0 min 0,000 mm 0,0 UV-I 0 W/m 12,4 C 13,3 C 6,4 km/h (2 Bft) 100,00 %
02.06.2016 01:28 13,3 C 94 % 1010,3 hPa 0,0 l/m 4,5 km/h (1 Bft) SW 229 0 min 0,000 mm 0,0 UV-I 0 W/m 12,4 C 13,3 C 6,4 km/h (2 Bft) 100,00 %
02.06.2016 01:29 13,3 C 94 % 1010,3 hPa 0,0 l/m 5,0 km/h (1 Bft) S-SW 196 0 min 0,000 mm 0,0 UV-I 0 W/m 12,4 C 13,3 C 8,0 km/h (2 Bft) 100,00 %
02.06.2016 01:30 13,3 C 94 % 1010,3 hPa 0,0 l/m 5,2 km/h (1 Bft) SW 217 0 min 0,000 mm 0,0 UV-I 0 W/m 12,4 C 13,3 C 6,4 km/h (2 Bft) 100,00 %
02.06.2016 01:31 13,3 C 94 % 1010,3 hPa 0,0 l/m 5,9 km/h (2 Bft) S 186 0 min 0,000 mm 0,0 UV-I 0 W/m 12,4 C 13,3 C 8,0 km/h (2 Bft) 100,00 %
02.06.2016 01:32 13,3 C 94 % 1010,3 hPa 0,0 l/m 5,1 km/h (1 Bft) SW 232 0 min 0,000 mm 0,0 UV-I 0 W/m 12,4 C 13,3 C 6,4 km/h (2 Bft) 100,00 %
02.06.2016 01:33 13,3 C 94 % 1010,3 hPa 0,0 l/m 5,2 km/h (1 Bft) SW 214 0 min 0,000 mm 0,0 UV-I 0 W/m 12,4 C 13,3 C 8,0 km/h (2 Bft) 100,00 %
02.06.2016 01:34 13,3 C 94 % 1010,3 hPa 0,0 l/m 5,3 km/h (1 Bft) S-SW 196 0 min 0,000 mm 0,0 UV-I 0 W/m 12,4 C 13,3 C 8,0 km/h (2 Bft) 95,83 %
02.06.2016 01:35 13,3 C 94 % 1010,2 hPa 0,0 l/m 4,5 km/h (1 Bft) SW 232 0 min 0,000 mm 0,0 UV-I 0 W/m 12,4 C 13,3 C 6,4 km/h (2 Bft) 100,00 %
02.06.2016 01:36 13,3 C 94 % 1010,2 hPa 0,0 l/m 3,5 km/h (1 Bft) SW 219 0 min 0,000 mm 0,0 UV-I 0 W/m 12,4 C 13,3 C 4,8 km/h (1 Bft) 100,00 %
02.06.2016 01:37 13,3 C 94 % 1010,2 hPa 0,0 l/m 4,0 km/h (1 Bft) SW 219 0 min 0,000 mm 0,0 UV-I 0 W/m 12,4 C 13,3 C 4,8 km/h (1 Bft) 100,00 %
02.06.2016 01:38 13,4 C 94 % 1010,2 hPa 0,0 l/m 4,8 km/h (1 Bft) W-SW 238 0 min 0,000 mm 0,0 UV-I 0 W/m 12,5 C 13,4 C 6,4 km/h (2 Bft) 100,00 %
02.06.2016 01:39 13,3 C 94 % 1010,2 hPa 0,0 l/m 5,4 km/h (1 Bft) SW 217 0 min 0,000 mm 0,0 UV-I 0 W/m 12,4 C 13,3 C 6,4 km/h (2 Bft) 100,00 %
02.06.2016 01:40 13,3 C 94 % 1010,2 hPa 0,0 l/m 5,0 km/h (1 Bft) SW 225 0 min 0,000 mm 0,0 UV-I 0 W/m 12,4 C 13,3 C 6,4 km/h (2 Bft) 100,00 %
02.06.2016 01:41 13,3 C 94 % 1010,2 hPa 0,0 l/m 7,6 km/h (2 Bft) SW 227 0 min 0,000 mm 0,0 UV-I 0 W/m 12,4 C 12,6 C 9,7 km/h (2 Bft) 100,00 %
02.06.2016 01:42 13,3 C 94 % 1010,2 hPa 0,0 l/m 5,4 km/h (1 Bft) SW 231 0 min 0,000 mm 0,0 UV-I 0 W/m 12,4 C 13,3 C 9,7 km/h (2 Bft) 100,00 %
02.06.2016 01:43 13,3 C 94 % 1010,2 hPa 0,0 l/m 5,8 km/h (2 Bft) SW 236 0 min 0,000 mm 0,0 UV-I 0 W/m 12,4 C 13,3 C 8,0 km/h (2 Bft) 100,00 %
02.06.2016 01:44 13,3 C 94 % 1010,2 hPa 0,0 l/m 4,3 km/h (1 Bft) W-SW 244 0 min 0,000 mm 0,0 UV-I 0 W/m 12,4 C 13,3 C 4,8 km/h (1 Bft) 100,00 %
02.06.2016 01:45 13,3 C 94 % 1010,2 hPa 0,0 l/m 4,1 km/h (1 Bft) S-SW 199 0 min 0,000 mm 0,0 UV-I 0 W/m 12,4 C 13,3 C 6,4 km/h (2 Bft) 100,00 %
02.06.2016 01:46 13,3 C 94 % 1010,2 hPa 0,0 l/m 3,6 km/h (1 Bft) S-SW 194 0 min 0,000 mm 0,0 UV-I 0 W/m 12,4 C 13,3 C 4,8 km/h (1 Bft) 95,65 %
02.06.2016 01:47 13,3 C 94 % 1010,2 hPa 0,0 l/m 5,5 km/h (1 Bft) S-SW 200 0 min 0,000 mm 0,0 UV-I 0 W/m 12,4 C 13,3 C 6,4 km/h (2 Bft) 100,00 %
02.06.2016 01:48 13,3 C 94 % 1010,2 hPa 0,0 l/m 4,0 km/h (1 Bft) S-SW 196 0 min 0,000 mm 0,0 UV-I 0 W/m 12,4 C 13,3 C 6,4 km/h (2 Bft) 100,00 %
02.06.2016 01:49 13,3 C 94 % 1010,2 hPa 0,0 l/m 6,5 km/h (2 Bft) S-SW 199 0 min 0,000 mm 0,0 UV-I 0 W/m 12,4 C 13,3 C 9,7 km/h (2 Bft) 100,00 %
02.06.2016 01:50 13,3 C 94 % 1010,2 hPa 0,0 l/m 5,1 km/h (1 Bft) W-SW 242 0 min 0,000 mm 0,0 UV-I 0 W/m 12,4 C 13,3 C 6,4 km/h (2 Bft) 100,00 %
02.06.2016 01:51 13,3 C 94 % 1010,2 hPa 0,0 l/m 5,0 km/h (1 Bft) S-SW 204 0 min 0,000 mm 0,0 UV-I 0 W/m 12,4 C 13,3 C 9,7 km/h (2 Bft) 95,65 %
02.06.2016 01:52 13,3 C 94 % 1010,2 hPa 0,0 l/m 6,8 km/h (2 Bft) SW 216 0 min 0,000 mm 0,0 UV-I 0 W/m 12,4 C 13,1 C 11,3 km/h (2 Bft) 100,00 %
02.06.2016 01:53 13,3 C 94 % 1010,2 hPa 0,0 l/m 4,2 km/h (1 Bft) S 185 0 min 0,000 mm 0,0 UV-I 0 W/m 12,4 C 13,3 C 4,8 km/h (1 Bft) 100,00 %
02.06.2016 01:54 13,3 C 94 % 1010,2 hPa 0,0 l/m 4,8 km/h (1 Bft) S-SW 209 0 min 0,000 mm 0,0 UV-I 0 W/m 12,4 C 13,3 C 6,4 km/h (2 Bft) 100,00 %
02.06.2016 01:55 13,3 C 94 % 1010,2 hPa 0,0 l/m 5,4 km/h (1 Bft) S-SW 212 0 min 0,000 mm 0,0 UV-I 0 W/m 12,4 C 13,3 C 8,0 km/h (2 Bft) 100,00 %
02.06.2016 01:56 13,3 C 94 % 1010,2 hPa 0,0 l/m 4,4 km/h (1 Bft) S 180 0 min 0,000 mm 0,0 UV-I 0 W/m 12,4 C 13,3 C 4,8 km/h (1 Bft) 100,00 %
02.06.2016 01:57 13,3 C 94 % 1010,2 hPa 0,0 l/m 5,3 km/h (1 Bft) S-SW 203 0 min 0,000 mm 0,0 UV-I 0 W/m 12,4 C 13,3 C 8,0 km/h (2 Bft) 100,00 %
02.06.2016 01:58 13,3 C 94 % 1010,3 hPa 0,0 l/m 5,4 km/h (1 Bft) SW 219 0 min 0,000 mm 0,0 UV-I 0 W/m 12,4 C 13,3 C 6,4 km/h (2 Bft) 100,00 %
02.06.2016 01:59 13,4 C 94 % 1010,2 hPa 0,0 l/m 3,0 km/h (1 Bft) SW 219 0 min 0,000 mm 0,0 UV-I 0 W/m 12,5 C 13,4 C 4,8 km/h (1 Bft) 100,00 %
02.06.2016 02:00 13,3 C 94 % 1010,2 hPa 0,0 l/m 3,2 km/h (1 Bft) SW 219 0 min 0,000 mm 0,0 UV-I 0 W/m 12,4 C 13,3 C 4,8 km/h (1 Bft) 100,00 %
02.06.2016 02:01 13,4 C 94 % 1010,2 hPa 0,0 l/m 2,9 km/h (1 Bft) SW 219 0 min 0,000 mm 0,0 UV-I 0 W/m 12,5 C 13,4 C 4,8 km/h (1 Bft) 100,00 %
02.06.2016 02:02 13,4 C 94 % 1010,2 hPa 0,0 l/m 2,9 km/h (1 Bft) SW 219 0 min 0,000 mm 0,0 UV-I 0 W/m 12,5 C 13,4 C 4,8 km/h (1 Bft) 100,00 %
02.06.2016 02:03 13,4 C 94 % 1010,2 hPa 0,0 l/m 3,2 km/h (1 Bft) SW 217 0 min 0,000 mm 0,0 UV-I 0 W/m 12,5 C 13,4 C 4,8 km/h (1 Bft) 100,00 %
02.06.2016 02:04 13,4 C 94 % 1010,2 hPa 0,0 l/m 3,4 km/h (1 Bft) S-SW 213 0 min 0,000 mm 0,0 UV-I 0 W/m 12,5 C 13,4 C 4,8 km/h (1 Bft) 100,00 %
02.06.2016 02:05 13,4 C 94 % 1010,2 hPa 0,0 l/m 3,3 km/h (1 Bft) S-SW 212 0 min 0,000 mm 0,0 UV-I 0 W/m 12,5 C 13,4 C 4,8 km/h (1 Bft) 100,00 %
02.06.2016 02:06 13,4 C 94 % 1010,2 hPa 0,0 l/m 2,7 km/h (1 Bft) S 188 0 min 0,000 mm 0,0 UV-I 0 W/m 12,5 C 13,4 C 4,8 km/h (1 Bft) 95,83 %
02.06.2016 02:07 13,4 C 93 % 1010,2 hPa 0,0 l/m 4,0 km/h (1 Bft) S 188 0 min 0,000 mm 0,0 UV-I 0 W/m 12,3 C 13,4 C 4,8 km/h (1 Bft) 95,65 %
02.06.2016 02:08 13,4 C 93 % 1010,1 hPa 0,0 l/m 4,9 km/h (1 Bft) S 169 0 min 0,000 mm 0,0 UV-I 0 W/m 12,3 C 13,4 C 8,0 km/h (2 Bft) 100,00 %
02.06.2016 02:09 13,4 C 93 % 1010,2 hPa 0,0 l/m 4,4 km/h (1 Bft) S 184 0 min 0,000 mm 0,0 UV-I 0 W/m 12,3 C 13,4 C 6,4 km/h (2 Bft) 95,65 %
02.06.2016 02:10 13,4 C 93 % 1010,2 hPa 0,0 l/m 4,0 km/h (1 Bft) S 175 0 min 0,000 mm 0,0 UV-I 0 W/m 12,3 C 13,4 C 6,4 km/h (2 Bft) 100,00 %
02.06.2016 02:11 13,4 C 93 % 1010,1 hPa 0,0 l/m 2,8 km/h (1 Bft) S 175 0 min 0,000 mm 0,0 UV-I 0 W/m 12,3 C 13,4 C 4,8 km/h (1 Bft) 95,65 %
02.06.2016 02:12 13,4 C 93 % 1010,2 hPa 0,0 l/m 3,2 km/h (1 Bft) S 179 0 min 0,000 mm 0,0 UV-I 0 W/m 12,3 C 13,4 C 6,4 km/h (2 Bft) 100,00 %
02.06.2016 02:13 13,4 C 93 % 1010,2 hPa 0,0 l/m 4,1 km/h (1 Bft) S 179 0 min 0,000 mm 0,0 UV-I 0 W/m 12,3 C 13,4 C 4,8 km/h (1 Bft) 91,30 %
02.06.2016 02:14 13,4 C 93 % 1010,1 hPa 0,0 l/m 4,6 km/h (1 Bft) S 181 0 min 0,000 mm 0,0 UV-I 0 W/m 12,3 C 13,4 C 8,0 km/h (2 Bft) 100,00 %
02.06.2016 02:15 13,4 C 94 % 1010,1 hPa 0,0 l/m 5,3 km/h (1 Bft) S 178 0 min 0,000 mm 0,0 UV-I 0 W/m 12,5 C 13,4 C 6,4 km/h (2 Bft) 95,65 %
02.06.2016 02:16 13,4 C 94 % 1010,1 hPa 0,0 l/m 2,8 km/h (1 Bft) S 178 0 min 0,000 mm 0,0 UV-I 0 W/m 12,5 C 13,4 C 4,8 km/h (1 Bft) 91,67 %
02.06.2016 02:17 13,4 C 93 % 1010,1 hPa 0,0 l/m 4,6 km/h (1 Bft) S 173 0 min 0,000 mm 0,0 UV-I 0 W/m 12,3 C 13,4 C 6,4 km/h (2 Bft) 100,00 %
02.06.2016 02:18 13,4 C 93 % 1010,1 hPa 0,0 l/m 5,2 km/h (1 Bft) S-SW 194 0 min 0,000 mm 0,0 UV-I 0 W/m 12,3 C 13,4 C 8,0 km/h (2 Bft) 95,65 %
02.06.2016 02:19 13,4 C 94 % 1010,1 hPa 0,0 l/m 3,0 km/h (1 Bft) S-SW 193 0 min 0,000 mm 0,0 UV-I 0 W/m 12,5 C 13,4 C 4,8 km/h (1 Bft) 100,00 %
02.06.2016 02:20 13,4 C 94 % 1010,1 hPa 0,0 l/m 4,0 km/h (1 Bft) S 184 0 min 0,000 mm 0,0 UV-I 0 W/m 12,5 C 13,4 C 4,8 km/h (1 Bft) 91,30 %
02.06.2016 02:21 13,4 C 94 % 1010,1 hPa 0,0 l/m 3,1 km/h (1 Bft) S 182 0 min 0,000 mm 0,0 UV-I 0 W/m 12,5 C 13,4 C 4,8 km/h (1 Bft) 100,00 %
02.06.2016 02:22 13,4 C 94 % 1010,1 hPa 0,0 l/m 3,4 km/h (1 Bft) S 169 0 min 0,000 mm 0,0 UV-I 0 W/m 12,5 C 13,4 C 6,4 km/h (2 Bft) 96,15 %
02.06.2016 02:23 13,4 C 94 % 1010,1 hPa 0,0 l/m 4,8 km/h (1 Bft) S 178 0 min 0,000 mm 0,0 UV-I 0 W/m 12,5 C 13,4 C 8,0 km/h (2 Bft) 100,00 %
02.06.2016 02:24 13,4 C 94 % 1010,1 hPa 0,0 l/m 5,9 km/h (2 Bft) S 186 0 min 0,000 mm 0,0 UV-I 0 W/m 12,5 C 13,4 C 8,0 km/h (2 Bft) 95,65 %
02.06.2016 02:25 13,4 C 94 % 1010,1 hPa 0,0 l/m 2,4 km/h (1 Bft) S-SW 213 0 min 0,000 mm 0,0 UV-I 0 W/m 12,5 C 13,4 C 4,8 km/h (1 Bft) 95,83 %
02.06.2016 02:26 13,4 C 94 % 1010,1 hPa 0,0 l/m 4,3 km/h (1 Bft) S-SW 202 0 min 0,000 mm 0,0 UV-I 0 W/m 12,5 C 13,4 C 6,4 km/h (2 Bft) 100,00 %
02.06.2016 02:27 13,4 C 94 % 1010,1 hPa 0,0 l/m 4,8 km/h (1 Bft) S 170 0 min 0,000 mm 0,0 UV-I 0 W/m 12,5 C 13,4 C 6,4 km/h (2 Bft) 95,83 %
02.06.2016 02:28 13,4 C 94 % 1010,1 hPa 0,0 l/m 4,0 km/h (1 Bft) S 186 0 min 0,000 mm 0,0 UV-I 0 W/m 12,5 C 13,4 C 4,8 km/h (1 Bft) 100,00 %
02.06.2016 02:29 13,4 C 94 % 1010,0 hPa 0,0 l/m 3,4 km/h (1 Bft) S 188 0 min 0,000 mm 0,0 UV-I 0 W/m 12,5 C 13,4 C 4,8 km/h (1 Bft) 87,50 %
02.06.2016 02:30 13,4 C 94 % 1010,0 hPa 0,0 l/m 4,3 km/h (1 Bft) S-SW 203 0 min 0,000 mm 0,0 UV-I 0 W/m 12,5 C 13,4 C 6,4 km/h (2 Bft) 100,00 %
02.06.2016 02:31 13,4 C 94 % 1010,0 hPa 0,0 l/m 4,7 km/h (1 Bft) S-SW 196 0 min 0,000 mm 0,0 UV-I 0 W/m 12,5 C 13,4 C 6,4 km/h (2 Bft) 91,67 %
02.06.2016 02:32 13,4 C 94 % 1010,0 hPa 0,0 l/m 3,9 km/h (1 Bft) S-SW 194 0 min 0,000 mm 0,0 UV-I 0 W/m 12,5 C 13,4 C 6,4 km/h (2 Bft) 100,00 %
02.06.2016 02:33 13,4 C 94 % 1010,0 hPa 0,0 l/m 3,4 km/h (1 Bft) S-SW 194 0 min 0,000 mm 0,0 UV-I 0 W/m 12,5 C 13,4 C 4,8 km/h (1 Bft) 96,15 %
02.06.2016 02:34 13,4 C 94 % 1010,0 hPa 0,0 l/m 3,7 km/h (1 Bft) S 188 0 min 0,000 mm 0,0 UV-I 0 W/m 12,5 C 13,4 C 4,8 km/h (1 Bft) 100,00 %
02.06.2016 02:35 13,4 C 94 % 1010,0 hPa 0,0 l/m 3,6 km/h (1 Bft) S 188 0 min 0,000 mm 0,0 UV-I 0 W/m 12,5 C 13,4 C 4,8 km/h (1 Bft) 91,30 %
02.06.2016 02:36 13,4 C 94 % 1010,0 hPa 0,0 l/m 3,3 km/h (1 Bft) S 184 0 min 0,000 mm 0,0 UV-I 0 W/m 12,5 C 13,4 C 4,8 km/h (1 Bft) 95,83 %
02.06.2016 02:37 13,4 C 94 % 1010,0 hPa 0,0 l/m 4,6 km/h (1 Bft) S 190 0 min 0,000 mm 0,0 UV-I 0 W/m 12,5 C 13,4 C 6,4 km/h (2 Bft) 95,65 %
02.06.2016 02:38 13,4 C 94 % 1010,0 hPa 0,0 l/m 4,1 km/h (1 Bft) S 178 0 min 0,000 mm 0,0 UV-I 0 W/m 12,5 C 13,4 C 6,4 km/h (2 Bft) 95,83 %
02.06.2016 02:39 13,4 C 94 % 1010,1 hPa 0,0 l/m 3,9 km/h (1 Bft) S 178 0 min 0,000 mm 0,0 UV-I 0 W/m 12,5 C 13,4 C 4,8 km/h (1 Bft) 100,00 %
02.06.2016 02:40 13,4 C 94 % 1010,1 hPa 0,0 l/m 2,1 km/h (1 Bft) S 178 0 min 0,000 mm 0,0 UV-I 0 W/m 12,5 C 13,4 C 3,2 km/h (1 Bft) 95,83 %
02.06.2016 02:41 13,4 C 94 % 1010,1 hPa 0,0 l/m 3,0 km/h (1 Bft) S 178 0 min 0,000 mm 0,0 UV-I 0 W/m 12,5 C 13,4 C 4,8 km/h (1 Bft) 100,00 %
02.06.2016 02:42 13,4 C 94 % 1010,0 hPa 0,0 l/m 3,8 km/h (1 Bft) S 178 0 min 0,000 mm 0,0 UV-I 0 W/m 12,5 C 13,4 C 4,8 km/h (1 Bft) 95,83 %
02.06.2016 02:43 13,4 C 94 % 1010,1 hPa 0,0 l/m 4,4 km/h (1 Bft) S-SW 201 0 min 0,000 mm 0,0 UV-I 0 W/m 12,5 C 13,4 C 6,4 km/h (2 Bft) 91,30 %
02.06.2016 02:44 13,4 C 94 % 1010,1 hPa 0,0 l/m 5,8 km/h (2 Bft) S-SW 195 0 min 0,000 mm 0,0 UV-I 0 W/m 12,5 C 13,4 C 8,0 km/h (2 Bft) 100,00 %
02.06.2016 02:45 13,4 C 94 % 1010,0 hPa 0,0 l/m 4,0 km/h (1 Bft) S-SO 157 0 min 0,000 mm 0,0 UV-I 0 W/m 12,5 C 13,4 C 8,0 km/h (2 Bft) 100,00 %
02.06.2016 02:46 13,4 C 94 % 1010,0 hPa 0,0 l/m 4,2 km/h (1 Bft) S 182 0 min 0,000 mm 0,0 UV-I 0 W/m 12,5 C 13,4 C 8,0 km/h (2 Bft) 100,00 %
02.06.2016 02:47 13,4 C 94 % 1010,0 hPa 0,0 l/m 3,0 km/h (1 Bft) S 182 0 min 0,000 mm 0,0 UV-I 0 W/m 12,5 C 13,4 C 4,8 km/h (1 Bft) 100,00 %
02.06.2016 02:48 13,4 C 94 % 1010,0 hPa 0,0 l/m 3,6 km/h (1 Bft) S 182 0 min 0,000 mm 0,0 UV-I 0 W/m 12,5 C 13,4 C 4,8 km/h (1 Bft) 100,00 %
02.06.2016 02:49 13,4 C 94 % 1010,0 hPa 0,0 l/m 4,7 km/h (1 Bft) S-SW 201 0 min 0,000 mm 0,0 UV-I 0 W/m 12,5 C 13,4 C 6,4 km/h (2 Bft) 100,00 %
02.06.2016 02:50 13,4 C 94 % 1010,0 hPa 0,0 l/m 4,5 km/h (1 Bft) S 182 0 min 0,000 mm 0,0 UV-I 0 W/m 12,5 C 13,4 C 6,4 km/h (2 Bft) 100,00 %
02.06.2016 02:51 13,4 C 94 % 1010,0 hPa 0,0 l/m 4,1 km/h (1 Bft) S 180 0 min 0,000 mm 0,0 UV-I 0 W/m 12,5 C 13,4 C 4,8 km/h (1 Bft) 100,00 %
02.06.2016 02:52 13,4 C 94 % 1010,0 hPa 0,0 l/m 2,9 km/h (1 Bft) S 175 0 min 0,000 mm 0,0 UV-I 0 W/m 12,5 C 13,4 C 4,8 km/h (1 Bft) 95,83 %
02.06.2016 02:53 13,4 C 94 % 1010,0 hPa 0,0 l/m 6,1 km/h (2 Bft) S 182 0 min 0,000 mm 0,0 UV-I 0 W/m 12,5 C 13,4 C 9,7 km/h (2 Bft) 100,00 %
02.06.2016 02:54 13,4 C 94 % 1010,0 hPa 0,0 l/m 6,0 km/h (2 Bft) S-SO 162 0 min 0,000 mm 0,0 UV-I 0 W/m 12,5 C 13,4 C 8,0 km/h (2 Bft) 100,00 %
02.06.2016 02:55 13,4 C 94 % 1010,0 hPa 0,0 l/m 5,8 km/h (2 Bft) S 184 0 min 0,000 mm 0,0 UV-I 0 W/m 12,5 C 13,4 C 6,4 km/h (2 Bft) 100,00 %
02.06.2016 02:56 13,4 C 94 % 1009,9 hPa 0,0 l/m 6,4 km/h (2 Bft) S-SO 167 0 min 0,000 mm 0,0 UV-I 0 W/m 12,5 C 13,4 C 8,0 km/h (2 Bft) 100,00 %
02.06.2016 02:57 13,4 C 94 % 1009,9 hPa 0,0 l/m 7,0 km/h (2 Bft) SW 221 0 min 0,000 mm 0,0 UV-I 0 W/m 12,5 C 13,0 C 9,7 km/h (2 Bft) 100,00 %
02.06.2016 02:58 13,4 C 94 % 1009,9 hPa 0,0 l/m 6,2 km/h (2 Bft) S 188 0 min 0,000 mm 0,0 UV-I 0 W/m 12,5 C 13,4 C 11,3 km/h (2 Bft) 100,00 %
02.06.2016 02:59 13,4 C 94 % 1009,9 hPa 0,0 l/m 4,9 km/h (1 Bft) S-SW 206 0 min 0,000 mm 0,0 UV-I 0 W/m 12,5 C 13,4 C 6,4 km/h (2 Bft) 100,00 %
02.06.2016 03:00 13,4 C 94 % 1009,9 hPa 0,0 l/m 5,1 km/h (1 Bft) S 188 0 min 0,000 mm 0,0 UV-I 0 W/m 12,5 C 13,4 C 6,4 km/h (2 Bft) 100,00 %
02.06.2016 03:01 13,4 C 94 % 1009,9 hPa 0,0 l/m 5,0 km/h (1 Bft) S-SW 197 0 min 0,000 mm 0,0 UV-I 0 W/m 12,5 C 13,4 C 8,0 km/h (2 Bft) 100,00 %
02.06.2016 03:02 13,4 C 94 % 1009,8 hPa 0,0 l/m 6,9 km/h (2 Bft) S-SW 200 0 min 0,000 mm 0,0 UV-I 0 W/m 12,5 C 13,1 C 9,7 km/h (2 Bft) 95,65 %
02.06.2016 03:03 13,4 C 94 % 1009,9 hPa 0,0 l/m 5,1 km/h (1 Bft) S-SW 198 0 min 0,000 mm 0,0 UV-I 0 W/m 12,5 C 13,4 C 6,4 km/h (2 Bft) 100,00 %
02.06.2016 03:04 13,4 C 94 % 1009,9 hPa 0,0 l/m 6,1 km/h (2 Bft) SW 216 0 min 0,000 mm 0,0 UV-I 0 W/m 12,5 C 13,4 C 8,0 km/h (2 Bft) 100,00 %
02.06.2016 03:05 13,4 C 94 % 1009,9 hPa 0,0 l/m 5,4 km/h (1 Bft) S-SW 192 0 min 0,000 mm 0,0 UV-I 0 W/m 12,5 C 13,4 C 11,3 km/h (2 Bft) 100,00 %
02.06.2016 03:06 13,4 C 94 % 1009,8 hPa 0,0 l/m 6,7 km/h (2 Bft) S-SW 205 0 min 0,000 mm 0,0 UV-I 0 W/m 12,5 C 13,2 C 8,0 km/h (2 Bft) 100,00 %
02.06.2016 03:07 13,4 C 94 % 1009,8 hPa 0,0 l/m 5,0 km/h (1 Bft) W-SW 243 0 min 0,000 mm 0,0 UV-I 0 W/m 12,5 C 13,4 C 8,0 km/h (2 Bft) 100,00 %
02.06.2016 03:08 13,4 C 94 % 1009,8 hPa 0,0 l/m 5,6 km/h (1 Bft) W-SW 244 0 min 0,000 mm 0,0 UV-I 0 W/m 12,5 C 13,4 C 8,0 km/h (2 Bft) 100,00 %
02.06.2016 03:09 13,4 C 94 % 1009,8 hPa 0,0 l/m 7,6 km/h (2 Bft) S-SW 196 0 min 0,000 mm 0,0 UV-I 0 W/m 12,5 C 12,7 C 11,3 km/h (2 Bft) 100,00 %
02.06.2016 03:10 13,3 C 94 % 1009,8 hPa 0,0 l/m 5,5 km/h (1 Bft) S 175 0 min 0,000 mm 0,0 UV-I 0 W/m 12,4 C 13,3 C 9,7 km/h (2 Bft) 100,00 %
02.06.2016 03:11 13,3 C 93 % 1009,9 hPa 0,0 l/m 6,0 km/h (2 Bft) SW 224 0 min 0,000 mm 0,0 UV-I 0 W/m 12,2 C 13,3 C 8,0 km/h (2 Bft) 100,00 %
02.06.2016 03:12 13,3 C 93 % 1009,8 hPa 0,0 l/m 7,6 km/h (2 Bft) SW 221 0 min 0,000 mm 0,0 UV-I 0 W/m 12,2 C 12,6 C 9,7 km/h (2 Bft) 100,00 %
02.06.2016 03:13 13,3 C 93 % 1009,8 hPa 0,2 l/m 5,6 km/h (1 Bft) W-SW 242 0 min 0,000 mm 0,0 UV-I 0 W/m 12,2 C 13,3 C 8,0 km/h (2 Bft) 100,00 %
02.06.2016 03:14 13,3 C 94 % 1009,8 hPa 0,0 l/m 6,2 km/h (2 Bft) SW 236 0 min 0,000 mm 0,0 UV-I 0 W/m 12,4 C 13,3 C 8,0 km/h (2 Bft) 100,00 %
02.06.2016 03:15 13,3 C 94 % 1009,8 hPa 0,0 l/m 6,6 km/h (2 Bft) SW 220 0 min 0,000 mm 0,0 UV-I 0 W/m 12,4 C 13,2 C 8,0 km/h (2 Bft) 100,00 %
02.06.2016 03:16 13,3 C 93 % 1009,8 hPa 0,0 l/m 6,3 km/h (2 Bft) SW 218 0 min 0,000 mm 0,0 UV-I 0 W/m 12,2 C 13,3 C 8,0 km/h (2 Bft) 100,00 %
02.06.2016 03:17 13,3 C 94 % 1009,8 hPa 0,0 l/m 3,9 km/h (1 Bft) SW 223 0 min 0,000 mm 0,0 UV-I 0 W/m 12,4 C 13,3 C 4,8 km/h (1 Bft) 100,00 %
02.06.2016 03:18 13,3 C 94 % 1009,8 hPa 0,0 l/m 6,2 km/h (2 Bft) SW 226 0 min 0,000 mm 0,0 UV-I 0 W/m 12,4 C 13,3 C 9,7 km/h (2 Bft) 100,00 %
02.06.2016 03:19 13,3 C 93 % 1009,7 hPa 0,0 l/m 5,2 km/h (1 Bft) S 190 0 min 0,000 mm 0,0 UV-I 0 W/m 12,2 C 13,3 C 6,4 km/h (2 Bft) 96,15 %
02.06.2016 03:20 13,3 C 93 % 1009,8 hPa 0,0 l/m 6,8 km/h (2 Bft) SW 224 0 min 0,000 mm 0,0 UV-I 0 W/m 12,2 C 13,1 C 9,7 km/h (2 Bft) 100,00 %
02.06.2016 03:21 13,3 C 93 % 1009,7 hPa 0,0 l/m 6,1 km/h (2 Bft) SW 220 0 min 0,000 mm 0,0 UV-I 0 W/m 12,2 C 13,3 C 8,0 km/h (2 Bft) 100,00 %
02.06.2016 03:22 13,3 C 94 % 1009,7 hPa 0,0 l/m 3,7 km/h (1 Bft) SW 217 0 min 0,000 mm 0,0 UV-I 0 W/m 12,4 C 13,3 C 9,7 km/h (2 Bft) 100,00 %
02.06.2016 03:23 13,2 C 94 % 1009,7 hPa 0,0 l/m 6,2 km/h (2 Bft) S-SW 195 0 min 0,000 mm 0,0 UV-I 0 W/m 12,3 C 13,2 C 9,7 km/h (2 Bft) 100,00 %
02.06.2016 03:24 13,2 C 94 % 1009,8 hPa 0,2 l/m 6,2 km/h (2 Bft) S-SW 211 0 min 0,000 mm 0,0 UV-I 0 W/m 12,3 C 13,2 C 9,7 km/h (2 Bft) 100,00 %
02.06.2016 03:25 13,2 C 94 % 1009,7 hPa 0,0 l/m 7,2 km/h (2 Bft) SW 223 0 min 0,000 mm 0,0 UV-I 0 W/m 12,3 C 12,7 C 9,7 km/h (2 Bft) 91,30 %
02.06.2016 03:26 13,2 C 94 % 1009,7 hPa 0,0 l/m 7,2 km/h (2 Bft) SW 220 0 min 0,000 mm 0,0 UV-I 0 W/m 12,3 C 12,7 C 9,7 km/h (2 Bft) 100,00 %
02.06.2016 03:27 13,2 C 94 % 1009,7 hPa 0,0 l/m 3,1 km/h (1 Bft) SW 215 0 min 0,000 mm 0,0 UV-I 0 W/m 12,3 C 13,2 C 4,8 km/h (1 Bft) 100,00 %
02.06.2016 03:28 13,2 C 94 % 1009,7 hPa 0,0 l/m 5,0 km/h (1 Bft) SW 217 0 min 0,000 mm 0,0 UV-I 0 W/m 12,3 C 13,2 C 6,4 km/h (2 Bft) 100,00 %
02.06.2016 03:29 13,2 C 94 % 1009,7 hPa 0,2 l/m 3,4 km/h (1 Bft) S-SW 211 0 min 0,000 mm 0,0 UV-I 0 W/m 12,3 C 13,2 C 4,8 km/h (1 Bft) 100,00 %
02.06.2016 03:30 13,2 C 94 % 1009,7 hPa 0,0 l/m 7,3 km/h (2 Bft) SW 224 0 min 0,000 mm 0,0 UV-I 0 W/m 12,3 C 12,6 C 9,7 km/h (2 Bft) 100,00 %
02.06.2016 03:31 13,2 C 94 % 1009,7 hPa 0,2 l/m 6,3 km/h (2 Bft) S 169 0 min 0,000 mm 0,0 UV-I 0 W/m 12,3 C 13,2 C 8,0 km/h (2 Bft) 100,00 %
02.06.2016 03:32 13,2 C 94 % 1009,7 hPa 0,2 l/m 7,8 km/h (2 Bft) S-SW 205 0 min 0,000 mm 0,0 UV-I 0 W/m 12,3 C 12,3 C 9,7 km/h (2 Bft) 100,00 %
02.06.2016 03:33 13,2 C 94 % 1009,7 hPa 0,0 l/m 5,6 km/h (1 Bft) SW 214 0 min 0,000 mm 0,0 UV-I 0 W/m 12,3 C 13,2 C 8,0 km/h (2 Bft) 100,00 %
02.06.2016 03:34 13,2 C 94 % 1009,7 hPa 0,0 l/m 4,5 km/h (1 Bft) SW 224 0 min 0,000 mm 0,0 UV-I 0 W/m 12,3 C 13,2 C 6,4 km/h (2 Bft) 100,00 %
02.06.2016 03:35 13,2 C 94 % 1009,6 hPa 0,0 l/m 5,3 km/h (1 Bft) S-SW 208 0 min 0,000 mm 0,0 UV-I 0 W/m 12,3 C 13,2 C 9,7 km/h (2 Bft) 100,00 %
02.06.2016 03:36 13,2 C 95 % 1009,7 hPa 0,0 l/m 6,4 km/h (2 Bft) S-SW 208 0 min 0,000 mm 0,0 UV-I 0 W/m 12,4 C 13,2 C 11,3 km/h (2 Bft) 100,00 %
02.06.2016 03:37 13,2 C 95 % 1009,7 hPa 0,0 l/m 7,3 km/h (2 Bft) S 183 0 min 0,000 mm 0,0 UV-I 0 W/m 12,4 C 12,6 C 9,7 km/h (2 Bft) 100,00 %
02.06.2016 03:38 13,2 C 95 % 1009,7 hPa 0,0 l/m 5,1 km/h (1 Bft) S-SW 198 0 min 0,000 mm 0,0 UV-I 0 W/m 12,4 C 13,2 C 6,4 km/h (2 Bft) 100,00 %
02.06.2016 03:39 13,2 C 95 % 1009,7 hPa 0,0 l/m 5,8 km/h (2 Bft) S-SW 207 0 min 0,000 mm 0,0 UV-I 0 W/m 12,4 C 13,2 C 8,0 km/h (2 Bft) 100,00 %
02.06.2016 03:40 13,2 C 95 % 1009,7 hPa 0,0 l/m 4,4 km/h (1 Bft) S-SW 197 0 min 0,000 mm 0,0 UV-I 0 W/m 12,4 C 13,2 C 6,4 km/h (2 Bft) 100,00 %
02.06.2016 03:41 13,2 C 95 % 1009,7 hPa 0,0 l/m 5,1 km/h (1 Bft) S 190 0 min 0,000 mm 0,0 UV-I 0 W/m 12,4 C 13,2 C 6,4 km/h (2 Bft) 100,00 %
02.06.2016 03:42 13,2 C 95 % 1009,7 hPa 0,0 l/m 5,8 km/h (2 Bft) S-SW 213 0 min 0,000 mm 0,0 UV-I 0 W/m 12,4 C 13,2 C 6,4 km/h (2 Bft) 100,00 %
02.06.2016 03:43 13,2 C 95 % 1009,6 hPa 0,0 l/m 6,4 km/h (2 Bft) S-SW 198 0 min 0,000 mm 0,0 UV-I 0 W/m 12,4 C 13,2 C 8,0 km/h (2 Bft) 100,00 %
02.06.2016 03:44 13,2 C 95 % 1009,6 hPa 0,0 l/m 6,8 km/h (2 Bft) S-SW 205 0 min 0,000 mm 0,0 UV-I 0 W/m 12,4 C 13,0 C 9,7 km/h (2 Bft) 100,00 %
02.06.2016 03:45 13,2 C 95 % 1009,6 hPa 0,0 l/m 5,6 km/h (1 Bft) S-SW 192 0 min 0,000 mm 0,0 UV-I 0 W/m 12,4 C 13,2 C 8,0 km/h (2 Bft) 100,00 %
02.06.2016 03:46 13,2 C 95 % 1009,5 hPa 0,0 l/m 5,6 km/h (1 Bft) S-SW 202 0 min 0,000 mm 0,0 UV-I 0 W/m 12,4 C 13,2 C 8,0 km/h (2 Bft) 100,00 %
02.06.2016 03:47 13,2 C 95 % 1009,5 hPa 0,0 l/m 7,3 km/h (2 Bft) S 188 0 min 0,000 mm 0,0 UV-I 0 W/m 12,4 C 12,6 C 8,0 km/h (2 Bft) 100,00 %
02.06.2016 03:48 13,2 C 95 % 1009,6 hPa 0,0 l/m 5,3 km/h (1 Bft) S-SW 207 0 min 0,000 mm 0,0 UV-I 0 W/m 12,4 C 13,2 C 8,0 km/h (2 Bft) 100,00 %
02.06.2016 03:49 13,2 C 95 % 1009,6 hPa 0,0 l/m 4,9 km/h (1 Bft) S 172 0 min 0,000 mm 0,0 UV-I 0 W/m 12,4 C 13,2 C 6,4 km/h (2 Bft) 100,00 %
02.06.2016 03:50 13,2 C 95 % 1009,5 hPa 0,0 l/m 3,9 km/h (1 Bft) S 172 0 min 0,000 mm 0,0 UV-I 0 W/m 12,4 C 13,2 C 4,8 km/h (1 Bft) 100,00 %
02.06.2016 03:51 13,1 C 95 % 1009,5 hPa 0,0 l/m 4,2 km/h (1 Bft) S 189 0 min 0,000 mm 0,0 UV-I 0 W/m 12,3 C 13,1 C 8,0 km/h (2 Bft) 95,83 %
02.06.2016 03:52 13,1 C 95 % 1009,6 hPa 0,0 l/m 5,2 km/h (1 Bft) S-SW 195 0 min 0,000 mm 0,0 UV-I 0 W/m 12,3 C 13,1 C 8,0 km/h (2 Bft) 100,00 %
02.06.2016 03:53 13,1 C 95 % 1009,5 hPa 0,0 l/m 3,6 km/h (1 Bft) S 183 0 min 0,000 mm 0,0 UV-I 0 W/m 12,3 C 13,1 C 6,4 km/h (2 Bft) 100,00 %
02.06.2016 03:54 13,2 C 95 % 1009,5 hPa 0,0 l/m 2,8 km/h (1 Bft) S 182 0 min 0,000 mm 0,0 UV-I 0 W/m 12,4 C 13,2 C 3,2 km/h (1 Bft) 100,00 %
02.06.2016 03:55 13,1 C 95 % 1009,5 hPa 0,0 l/m 3,6 km/h (1 Bft) S-SW 204 0 min 0,000 mm 0,0 UV-I 0 W/m 12,3 C 13,1 C 4,8 km/h (1 Bft) 91,30 %
02.06.2016 03:56 13,1 C 95 % 1009,5 hPa 0,0 l/m 2,6 km/h (1 Bft) S-SW 206 0 min 0,000 mm 0,0 UV-I 0 W/m 12,3 C 13,1 C 4,8 km/h (1 Bft) 100,00 %
02.06.2016 03:57 13,1 C 95 % 1009,6 hPa 0,2 l/m 3,0 km/h (1 Bft) S-SW 192 0 min 0,000 mm 0,0 UV-I 0 W/m 12,3 C 13,1 C 4,8 km/h (1 Bft) 100,00 %
02.06.2016 03:58 13,1 C 95 % 1009,5 hPa 0,0 l/m 2,6 km/h (1 Bft) S-SW 192 0 min 0,000 mm 0,0 UV-I 0 W/m 12,3 C 13,1 C 3,2 km/h (1 Bft) 100,00 %
02.06.2016 03:59 13,1 C 95 % 1009,6 hPa 0,0 l/m 2,8 km/h (1 Bft) S-SW 212 0 min 0,000 mm 0,0 UV-I 0 W/m 12,3 C 13,1 C 4,8 km/h (1 Bft) 100,00 %
02.06.2016 04:00 13,2 C 95 % 1009,6 hPa 0,0 l/m 3,8 km/h (1 Bft) W-SW 249 0 min 0,000 mm 0,0 UV-I 0 W/m 12,4 C 13,2 C 4,8 km/h (1 Bft) 95,83 %
02.06.2016 04:01 13,1 C 95 % 1009,6 hPa 0,0 l/m 3,2 km/h (1 Bft) W-SW 248 0 min 0,000 mm 0,0 UV-I 0 W/m 12,3 C 13,1 C 3,2 km/h (1 Bft) 100,00 %
02.06.2016 04:02 13,1 C 95 % 1009,6 hPa 0,0 l/m 3,2 km/h (1 Bft) W-SW 248 0 min 0,000 mm 0,0 UV-I 0 W/m 12,3 C 13,1 C 3,2 km/h (1 Bft) 100,00 %
02.06.2016 04:03 13,1 C 95 % 1009,6 hPa 0,0 l/m 4,0 km/h (1 Bft) S-SW 205 0 min 0,000 mm 0,0 UV-I 0 W/m 12,3 C 13,1 C 4,8 km/h (1 Bft) 100,00 %
02.06.2016 04:04 13,1 C 95 % 1009,6 hPa 0,0 l/m 4,6 km/h (1 Bft) S-SW 203 0 min 0,000 mm 0,0 UV-I 0 W/m 12,3 C 13,1 C 4,8 km/h (1 Bft) 100,00 %
02.06.2016 04:05 13,1 C 95 % 1009,7 hPa 0,2 l/m 6,6 km/h (2 Bft) S-SW 198 0 min 0,000 mm 0,0 UV-I 0 W/m 12,3 C 13,0 C 8,0 km/h (2 Bft) 100,00 %
02.06.2016 04:06 13,1 C 95 % 1009,6 hPa 0,2 l/m 6,5 km/h (2 Bft) S-SW 201 0 min 0,000 mm 0,0 UV-I 0 W/m 12,3 C 13,1 C 9,7 km/h (2 Bft) 91,67 %
02.06.2016 04:07 13,1 C 95 % 1009,6 hPa 0,4 l/m 7,0 km/h (2 Bft) S 170 0 min 0,000 mm 0,0 UV-I 0 W/m 12,3 C 12,7 C 9,7 km/h (2 Bft) 100,00 %
02.06.2016 04:08 13,1 C 95 % 1009,6 hPa 0,2 l/m 4,5 km/h (1 Bft) S-SO 161 0 min 0,000 mm 0,0 UV-I 0 W/m 12,3 C 13,1 C 9,7 km/h (2 Bft) 95,65 %
02.06.2016 04:09 13,1 C 95 % 1009,6 hPa 0,2 l/m 7,8 km/h (2 Bft) S 191 0 min 0,000 mm 0,0 UV-I 0 W/m 12,3 C 12,2 C 11,3 km/h (2 Bft) 100,00 %
02.06.2016 04:10 13,1 C 95 % 1009,6 hPa 0,2 l/m 10,0 km/h (2 Bft) S 174 0 min 0,000 mm 0,0 UV-I 0 W/m 12,3 C 11,0 C 14,5 km/h (3 Bft) 95,65 %
02.06.2016 04:11 13,1 C 95 % 1009,5 hPa 0,0 l/m 6,7 km/h (2 Bft) S 187 0 min 0,000 mm 0,0 UV-I 0 W/m 12,3 C 12,9 C 9,7 km/h (2 Bft) 96,30 %
02.06.2016 04:12 13,1 C 95 % 1009,6 hPa 0,0 l/m 6,6 km/h (2 Bft) S-SW 196 0 min 0,000 mm 0,0 UV-I 0 W/m 12,3 C 13,0 C 11,3 km/h (2 Bft) 100,00 %
02.06.2016 04:13 13,1 C 95 % 1009,6 hPa 0,2 l/m 8,0 km/h (2 Bft) S 182 0 min 0,000 mm 0,0 UV-I 0 W/m 12,3 C 12,1 C 11,3 km/h (2 Bft) 93,33 %
02.06.2016 04:14 13,1 C 95 % 1009,6 hPa 0,0 l/m 8,1 km/h (2 Bft) S 173 0 min 0,000 mm 0,0 UV-I 0 W/m 12,3 C 12,0 C 11,3 km/h (2 Bft) 100,00 %
02.06.2016 04:15 13,1 C 95 % 1009,6 hPa 0,0 l/m 6,5 km/h (2 Bft) S 172 0 min 0,000 mm 0,0 UV-I 0 W/m 12,3 C 13,1 C 11,3 km/h (2 Bft) 95,83 %
02.06.2016 04:16 13,1 C 95 % 1009,6 hPa 0,0 l/m 5,6 km/h (1 Bft) S-SO 158 0 min 0,000 mm 0,0 UV-I 0 W/m 12,3 C 13,1 C 9,7 km/h (2 Bft) 95,65 %
02.06.2016 04:17 13,1 C 95 % 1009,6 hPa 0,0 l/m 6,2 km/h (2 Bft) S 188 0 min 0,000 mm 0,0 UV-I 0 W/m 12,3 C 13,1 C 9,7 km/h (2 Bft) 95,83 %
02.06.2016 04:18 13,1 C 95 % 1009,6 hPa 0,0 l/m 5,3 km/h (1 Bft) S 190 0 min 0,000 mm 0,0 UV-I 0 W/m 12,3 C 13,1 C 8,0 km/h (2 Bft) 95,65 %
02.06.2016 04:19 13,1 C 95 % 1009,5 hPa 0,0 l/m 7,2 km/h (2 Bft) S-SO 165 0 min 0,000 mm 0,0 UV-I 0 W/m 12,3 C 12,6 C 9,7 km/h (2 Bft) 100,00 %
02.06.2016 04:20 13,1 C 95 % 1009,6 hPa 0,0 l/m 5,2 km/h (1 Bft) S-SO 165 0 min 0,000 mm 0,0 UV-I 0 W/m 12,3 C 13,1 C 11,3 km/h (2 Bft) 91,30 %
02.06.2016 04:21 13,1 C 95 % 1009,6 hPa 0,0 l/m 8,3 km/h (2 Bft) S-SO 166 0 min 0,000 mm 0,0 UV-I 0 W/m 12,3 C 11,9 C 12,9 km/h (3 Bft) 100,00 %
02.06.2016 04:22 13,1 C 95 % 1009,5 hPa 0,0 l/m 5,0 km/h (1 Bft) S-SO 161 0 min 0,000 mm 0,0 UV-I 0 W/m 12,3 C 13,1 C 8,0 km/h (2 Bft) 91,30 %
02.06.2016 04:23 13,1 C 95 % 1009,6 hPa 0,0 l/m 6,8 km/h (2 Bft) S 189 0 min 0,000 mm 0,0 UV-I 0 W/m 12,3 C 12,9 C 11,3 km/h (2 Bft) 100,00 %
02.06.2016 04:24 13,1 C 95 % 1009,6 hPa 0,0 l/m 3,6 km/h (1 Bft) S-SO 154 0 min 0,000 mm 0,0 UV-I 0 W/m 12,3 C 13,1 C 6,4 km/h (2 Bft) 95,65 %
02.06.2016 04:25 13,1 C 95 % 1009,5 hPa 0,0 l/m 3,8 km/h (1 Bft) S 188 0 min 0,000 mm 0,0 UV-I 0 W/m 12,3 C 13,1 C 6,4 km/h (2 Bft) 100,00 %
02.06.2016 04:26 13,1 C 95 % 1009,6 hPa 0,0 l/m 4,6 km/h (1 Bft) S-SW 194 0 min 0,000 mm 0,0 UV-I 0 W/m 12,3 C 13,1 C 8,0 km/h (2 Bft) 95,65 %
02.06.2016 04:27 13,1 C 95 % 1009,6 hPa 0,0 l/m 3,6 km/h (1 Bft) S 178 0 min 0,000 mm 0,0 UV-I 0 W/m 12,3 C 13,1 C 6,4 km/h (2 Bft) 95,83 %
02.06.2016 04:28 13,1 C 95 % 1009,6 hPa 0,0 l/m 3,1 km/h (1 Bft) S 173 0 min 0,000 mm 0,0 UV-I 0 W/m 12,3 C 13,1 C 6,4 km/h (2 Bft) 100,00 %
02.06.2016 04:29 13,1 C 95 % 1009,6 hPa 0,0 l/m 3,2 km/h (1 Bft) S 180 0 min 0,000 mm 0,0 UV-I 0 W/m 12,3 C 13,1 C 6,4 km/h (2 Bft) 96,15 %
02.06.2016 04:30 13,1 C 95 % 1009,6 hPa 0,0 l/m 2,7 km/h (1 Bft) S 187 0 min 0,000 mm 0,0 UV-I 0 W/m 12,3 C 13,1 C 4,8 km/h (1 Bft) 100,00 %
02.06.2016 04:31 13,1 C 95 % 1009,6 hPa 0,0 l/m 3,6 km/h (1 Bft) S 186 0 min 0,000 mm 0,0 UV-I 0 W/m 12,3 C 13,1 C 4,8 km/h (1 Bft) 95,65 %
02.06.2016 04:32 13,1 C 95 % 1009,6 hPa 0,0 l/m 1,8 km/h (1 Bft) S 186 0 min 0,000 mm 0,0 UV-I 0 W/m 12,3 C 13,1 C 3,2 km/h (1 Bft) 100,00 %
02.06.2016 04:33 13,1 C 95 % 1009,6 hPa 0,0 l/m 1,9 km/h (1 Bft) S 186 0 min 0,000 mm 0,0 UV-I 0 W/m 12,3 C 13,1 C 3,2 km/h (1 Bft) 92,86 %
02.06.2016 04:34 13,1 C 95 % 1009,6 hPa 0,0 l/m 2,4 km/h (1 Bft) S 186 0 min 0,000 mm 0,0 UV-I 0 W/m 12,3 C 13,1 C 3,2 km/h (1 Bft) 100,00 %
02.06.2016 04:35 13,1 C 95 % 1009,6 hPa 0,0 l/m 2,1 km/h (1 Bft) S 186 0 min 0,000 mm 0,0 UV-I 0 W/m 12,3 C 13,1 C 3,2 km/h (1 Bft) 91,30 %
02.06.2016 04:36 13,1 C 95 % 1009,6 hPa 0,0 l/m 2,7 km/h (1 Bft) S 186 0 min 0,000 mm 0,0 UV-I 0 W/m 12,3 C 13,1 C 4,8 km/h (1 Bft) 100,00 %
02.06.2016 04:37 13,1 C 95 % 1009,6 hPa 0,0 l/m 2,1 km/h (1 Bft) S 186 0 min 0,000 mm 0,0 UV-I 0 W/m 12,3 C 13,1 C 3,2 km/h (1 Bft) 95,65 %
02.06.2016 04:38 13,1 C 95 % 1009,6 hPa 0,0 l/m 1,3 km/h (1 Bft) S 186 0 min 0,000 mm 0,0 UV-I 0 W/m 12,3 C 13,1 C 1,6 km/h (1 Bft) 95,83 %
02.06.2016 04:39 13,1 C 95 % 1009,5 hPa 0,0 l/m 1,5 km/h (1 Bft) S 186 0 min 0,000 mm 0,0 UV-I 0 W/m 12,3 C 13,1 C 3,2 km/h (1 Bft) 100,00 %
02.06.2016 04:40 13,1 C 95 % 1009,5 hPa 0,0 l/m 1,0 km/h (0 Bft) S 186 0 min 0,000 mm 0,0 UV-I 0 W/m 12,3 C 13,1 C 1,6 km/h (1 Bft) 95,83 %
02.06.2016 04:41 13,1 C 95 % 1009,6 hPa 0,0 l/m 1,9 km/h (1 Bft) S 186 0 min 0,000 mm 0,0 UV-I 0 W/m 12,3 C 13,1 C 3,2 km/h (1 Bft) 100,00 %
02.06.2016 04:42 13,1 C 95 % 1009,5 hPa 0,0 l/m 1,3 km/h (1 Bft) S 186 0 min 0,000 mm 0,0 UV-I 0 W/m 12,3 C 13,1 C 1,6 km/h (1 Bft) 95,83 %
02.06.2016 04:43 13,1 C 95 % 1009,5 hPa 0,0 l/m 1,5 km/h (1 Bft) S 186 0 min 0,000 mm 0,0 UV-I 0 W/m 12,3 C 13,1 C 3,2 km/h (1 Bft) 100,00 %
02.06.2016 04:44 13,1 C 95 % 1009,5 hPa 0,0 l/m 1,5 km/h (1 Bft) S 186 0 min 0,000 mm 0,0 UV-I 0 W/m 12,3 C 13,1 C 3,2 km/h (1 Bft) 100,00 %
02.06.2016 04:45 13,1 C 96 % 1009,5 hPa 0,0 l/m 1,3 km/h (1 Bft) S 186 0 min 0,000 mm 0,0 UV-I 0 W/m 12,5 C 13,1 C 1,6 km/h (1 Bft) 100,00 %
02.06.2016 04:46 13,1 C 96 % 1009,5 hPa 0,0 l/m 1,9 km/h (1 Bft) S 186 0 min 0,000 mm 0,0 UV-I 0 W/m 12,5 C 13,1 C 3,2 km/h (1 Bft) 100,00 %
02.06.2016 04:47 13,1 C 96 % 1009,5 hPa 0,0 l/m 0,5 km/h (0 Bft) S 186 0 min 0,000 mm 0,0 UV-I 0 W/m 12,5 C 13,1 C 1,6 km/h (1 Bft) 100,00 %
02.06.2016 04:48 13,1 C 96 % 1009,5 hPa 0,0 l/m 2,3 km/h (1 Bft) S 186 0 min 0,000 mm 0,0 UV-I 0 W/m 12,5 C 13,1 C 3,2 km/h (1 Bft) 100,00 %
02.06.2016 04:49 13,1 C 96 % 1009,5 hPa 0,0 l/m 2,5 km/h (1 Bft) S 186 0 min 0,000 mm 0,0 UV-I 0 W/m 12,5 C 13,1 C 3,2 km/h (1 Bft) 91,30 %
02.06.2016 04:50 13,1 C 96 % 1009,5 hPa 0,0 l/m 2,5 km/h (1 Bft) S 186 0 min 0,000 mm 0,0 UV-I 0 W/m 12,5 C 13,1 C 3,2 km/h (1 Bft) 100,00 %
02.06.2016 04:51 13,1 C 96 % 1009,5 hPa 0,0 l/m 1,8 km/h (1 Bft) S 186 0 min 0,000 mm 0,0 UV-I 0 W/m 12,5 C 13,1 C 3,2 km/h (1 Bft) 100,00 %
02.06.2016 04:52 13,1 C 96 % 1009,5 hPa 0,0 l/m 1,9 km/h (1 Bft) S 186 0 min 0,000 mm 0,0 UV-I 0 W/m 12,5 C 13,1 C 3,2 km/h (1 Bft) 100,00 %
02.06.2016 04:53 13,1 C 96 % 1009,6 hPa 0,0 l/m 2,0 km/h (1 Bft) S 186 0 min 0,000 mm 0,0 UV-I 0 W/m 12,5 C 13,1 C 3,2 km/h (1 Bft) 100,00 %
02.06.2016 04:54 13,1 C 96 % 1009,6 hPa 0,0 l/m 1,5 km/h (1 Bft) S 186 0 min 0,000 mm 0,0 UV-I 0 W/m 12,5 C 13,1 C 3,2 km/h (1 Bft) 100,00 %
02.06.2016 04:55 13,1 C 96 % 1009,6 hPa 0,0 l/m 1,5 km/h (1 Bft) S 186 0 min 0,000 mm 0,0 UV-I 0 W/m 12,5 C 13,1 C 3,2 km/h (1 Bft) 100,00 %
02.06.2016 04:56 13,1 C 96 % 1009,6 hPa 0,0 l/m 1,8 km/h (1 Bft) S 186 0 min 0,000 mm 0,0 UV-I 0 W/m 12,5 C 13,1 C 3,2 km/h (1 Bft) 95,65 %
02.06.2016 04:57 13,1 C 96 % 1009,6 hPa 0,0 l/m 2,0 km/h (1 Bft) S 186 0 min 0,000 mm 0,0 UV-I 0 W/m 12,5 C 13,1 C 3,2 km/h (1 Bft) 100,00 %
02.06.2016 04:58 13,1 C 96 % 1009,6 hPa 0,0 l/m 2,4 km/h (1 Bft) S 186 0 min 0,000 mm 0,0 UV-I 0 W/m 12,5 C 13,1 C 3,2 km/h (1 Bft) 100,00 %
02.06.2016 04:59 13,1 C 96 % 1009,5 hPa 0,0 l/m 2,6 km/h (1 Bft) S 186 0 min 0,000 mm 0,0 UV-I 0 W/m 12,5 C 13,1 C 4,8 km/h (1 Bft) 100,00 %
02.06.2016 05:00 13,1 C 96 % 1009,6 hPa 0,0 l/m 3,4 km/h (1 Bft) S-SW 200 0 min 0,000 mm 0,0 UV-I 0 W/m 12,5 C 13,1 C 4,8 km/h (1 Bft) 100,00 %
02.06.2016 05:01 13,1 C 96 % 1009,5 hPa 0,0 l/m 2,1 km/h (1 Bft) S-SW 200 0 min 0,000 mm 0,0 UV-I 0 W/m 12,5 C 13,1 C 3,2 km/h (1 Bft) 100,00 %
02.06.2016 05:02 13,1 C 96 % 1009,5 hPa 0,0 l/m 1,3 km/h (1 Bft) S-SW 200 0 min 0,000 mm 0,0 UV-I 0 W/m 12,5 C 13,1 C 3,2 km/h (1 Bft) 91,30 %
02.06.2016 05:03 13,1 C 96 % 1009,6 hPa 0,0 l/m 2,0 km/h (1 Bft) S-SW 200 0 min 0,000 mm 0,0 UV-I 0 W/m 12,5 C 13,1 C 3,2 km/h (1 Bft) 100,00 %
02.06.2016 05:04 13,1 C 96 % 1009,6 hPa 0,0 l/m 2,8 km/h (1 Bft) S-SW 200 0 min 0,000 mm 0,0 UV-I 0 W/m 12,5 C 13,1 C 3,2 km/h (1 Bft) 100,00 %
02.06.2016 05:05 13,1 C 96 % 1009,6 hPa 0,0 l/m 1,8 km/h (1 Bft) S-SW 200 0 min 0,000 mm 0,0 UV-I 0 W/m 12,5 C 13,1 C 3,2 km/h (1 Bft) 95,83 %
02.06.2016 05:06 13,1 C 96 % 1009,6 hPa 0,0 l/m 2,6 km/h (1 Bft) S-SW 200 0 min 0,000 mm 0,0 UV-I 0 W/m 12,5 C 13,1 C 4,8 km/h (1 Bft) 100,00 %
02.06.2016 05:07 13,1 C 96 % 1009,6 hPa 0,0 l/m 2,3 km/h (1 Bft) S-SW 200 0 min 0,000 mm 0,0 UV-I 0 W/m 12,5 C 13,1 C 3,2 km/h (1 Bft) 100,00 %
02.06.2016 05:08 13,1 C 96 % 1009,6 hPa 0,0 l/m 2,1 km/h (1 Bft) S-SW 200 0 min 0,000 mm 0,0 UV-I 0 W/m 12,5 C 13,1 C 3,2 km/h (1 Bft) 100,00 %
02.06.2016 05:09 13,1 C 96 % 1009,6 hPa 0,0 l/m 2,6 km/h (1 Bft) SW 233 0 min 0,000 mm 0,0 UV-I 0 W/m 12,5 C 13,1 C 4,8 km/h (1 Bft) 100,00 %
02.06.2016 05:10 13,1 C 96 % 1009,6 hPa 0,0 l/m 2,4 km/h (1 Bft) SW 233 0 min 0,000 mm 0,0 UV-I 0 W/m 12,5 C 13,1 C 4,8 km/h (1 Bft) 100,00 %
02.06.2016 05:11 13,1 C 96 % 1009,6 hPa 0,0 l/m 2,1 km/h (1 Bft) SW 233 0 min 0,000 mm 0,0 UV-I 0 W/m 12,5 C 13,1 C 3,2 km/h (1 Bft) 96,15 %
02.06.2016 05:12 13,1 C 96 % 1009,7 hPa 0,0 l/m 2,2 km/h (1 Bft) SW 233 0 min 0,000 mm 0,0 UV-I 0 W/m 12,5 C 13,1 C 3,2 km/h (1 Bft) 100,00 %
02.06.2016 05:13 13,1 C 96 % 1009,6 hPa 0,0 l/m 3,4 km/h (1 Bft) W-SW 246 0 min 0,000 mm 0,0 UV-I 0 W/m 12,5 C 13,1 C 4,8 km/h (1 Bft) 100,00 %
02.06.2016 05:14 13,1 C 96 % 1009,6 hPa 0,0 l/m 3,1 km/h (1 Bft) W-SW 247 0 min 0,000 mm 0,0 UV-I 0 W/m 12,5 C 13,1 C 4,8 km/h (1 Bft) 100,00 %
02.06.2016 05:15 13,1 C 96 % 1009,6 hPa 0,0 l/m 2,6 km/h (1 Bft) W-SW 247 0 min 0,000 mm 0,0 UV-I 0 W/m 12,5 C 13,1 C 4,8 km/h (1 Bft) 100,00 %
02.06.2016 05:16 13,1 C 96 % 1009,6 hPa 0,0 l/m 0,9 km/h (0 Bft) W-SW 247 0 min 0,000 mm 0,0 UV-I 0 W/m 12,5 C 13,1 C 1,6 km/h (1 Bft) 100,00 %
02.06.2016 05:17 13,1 C 96 % 1009,7 hPa 0,0 l/m 1,6 km/h (1 Bft) W-SW 247 0 min 0,000 mm 0,0 UV-I 0 W/m 12,5 C 13,1 C 3,2 km/h (1 Bft) 95,65 %
02.06.2016 05:18 13,0 C 96 % 1009,6 hPa 0,0 l/m 2,3 km/h (1 Bft) W-SW 247 0 min 0,000 mm 0,0 UV-I 0 W/m 12,4 C 13,0 C 3,2 km/h (1 Bft) 100,00 %
02.06.2016 05:19 13,0 C 96 % 1009,7 hPa 0,0 l/m 2,9 km/h (1 Bft) SW 236 0 min 0,000 mm 0,0 UV-I 0 W/m 12,4 C 13,0 C 3,2 km/h (1 Bft) 100,00 %
02.06.2016 05:20 13,0 C 96 % 1009,7 hPa 0,0 l/m 2,3 km/h (1 Bft) SW 236 0 min 0,000 mm 0,0 UV-I 0 W/m 12,4 C 13,0 C 3,2 km/h (1 Bft) 100,00 %
02.06.2016 05:21 13,0 C 96 % 1009,7 hPa 0,0 l/m 2,8 km/h (1 Bft) SW 236 0 min 0,000 mm 0,0 UV-I 0 W/m 12,4 C 13,0 C 4,8 km/h (1 Bft) 95,65 %
02.06.2016 05:22 13,0 C 96 % 1009,7 hPa 0,0 l/m 2,4 km/h (1 Bft) SW 236 0 min 0,000 mm 0,0 UV-I 0 W/m 12,4 C 13,0 C 3,2 km/h (1 Bft) 100,00 %
02.06.2016 05:23 13,0 C 96 % 1009,7 hPa 0,0 l/m 2,7 km/h (1 Bft) SW 236 0 min 0,000 mm 0,0 UV-I 0 W/m 12,4 C 13,0 C 3,2 km/h (1 Bft) 100,00 %
02.06.2016 05:24 13,0 C 96 % 1009,7 hPa 0,0 l/m 3,0 km/h (1 Bft) SW 236 0 min 0,000 mm 0,0 UV-I 0 W/m 12,4 C 13,0 C 4,8 km/h (1 Bft) 95,83 %
02.06.2016 05:25 13,0 C 96 % 1009,7 hPa 0,0 l/m 3,4 km/h (1 Bft) W-SW 252 0 min 0,000 mm 0,0 UV-I 0 W/m 12,4 C 13,0 C 4,8 km/h (1 Bft) 100,00 %
02.06.2016 05:26 13,0 C 96 % 1009,7 hPa 0,0 l/m 4,7 km/h (1 Bft) SW 218 0 min 0,000 mm 0,0 UV-I 0 W/m 12,4 C 13,0 C 6,4 km/h (2 Bft) 95,65 %
02.06.2016 05:27 13,0 C 96 % 1009,7 hPa 0,0 l/m 3,4 km/h (1 Bft) SW 225 0 min 0,000 mm 0,0 UV-I 0 W/m 12,4 C 13,0 C 4,8 km/h (1 Bft) 100,00 %
02.06.2016 05:28 13,0 C 96 % 1009,7 hPa 0,0 l/m 4,5 km/h (1 Bft) W-SW 251 0 min 0,000 mm 0,0 UV-I 0 W/m 12,4 C 13,0 C 8,0 km/h (2 Bft) 95,65 %
02.06.2016 05:29 12,9 C 96 % 1009,7 hPa 0,0 l/m 3,9 km/h (1 Bft) W-SW 251 0 min 0,000 mm 0,0 UV-I 0 W/m 12,3 C 12,9 C 6,4 km/h (2 Bft) 100,00 %
02.06.2016 05:30 13,0 C 96 % 1009,7 hPa 0,0 l/m 3,4 km/h (1 Bft) W-SW 251 0 min 0,000 mm 0,0 UV-I 0 W/m 12,4 C 13,0 C 4,8 km/h (1 Bft) 100,00 %
02.06.2016 05:31 13,0 C 96 % 1009,7 hPa 0,0 l/m 3,9 km/h (1 Bft) W 261 0 min 0,000 mm 0,0 UV-I 0 W/m 12,4 C 13,0 C 4,8 km/h (1 Bft) 100,00 %
02.06.2016 05:32 13,0 C 96 % 1009,7 hPa 0,0 l/m 2,5 km/h (1 Bft) W 261 0 min 0,000 mm 0,0 UV-I 0 W/m 12,4 C 13,0 C 3,2 km/h (1 Bft) 100,00 %
02.06.2016 05:33 13,0 C 96 % 1009,7 hPa 0,0 l/m 3,5 km/h (1 Bft) W 261 0 min 0,000 mm 0,0 UV-I 0 W/m 12,4 C 13,0 C 4,8 km/h (1 Bft) 100,00 %
02.06.2016 05:34 13,0 C 96 % 1009,7 hPa 0,0 l/m 2,7 km/h (1 Bft) W 262 0 min 0,000 mm 0,0 UV-I 0 W/m 12,4 C 13,0 C 3,2 km/h (1 Bft) 100,00 %
02.06.2016 05:35 13,0 C 96 % 1009,8 hPa 0,0 l/m 1,5 km/h (1 Bft) W 262 0 min 0,000 mm 0,0 UV-I 0 W/m 12,4 C 13,0 C 3,2 km/h (1 Bft) 100,00 %
02.06.2016 05:36 12,9 C 96 % 1009,8 hPa 0,0 l/m 1,9 km/h (1 Bft) W 262 0 min 0,000 mm 0,0 UV-I 0 W/m 12,3 C 12,9 C 3,2 km/h (1 Bft) 100,00 %
02.06.2016 05:37 13,0 C 96 % 1009,7 hPa 0,0 l/m 1,6 km/h (1 Bft) W 262 0 min 0,000 mm 0,0 UV-I 0 W/m 12,4 C 13,0 C 3,2 km/h (1 Bft) 100,00 %
02.06.2016 05:38 13,0 C 96 % 1009,7 hPa 0,0 l/m 2,4 km/h (1 Bft) W 265 0 min 0,000 mm 0,0 UV-I 0 W/m 12,4 C 13,0 C 4,8 km/h (1 Bft) 100,00 %
02.06.2016 05:39 12,9 C 96 % 1009,8 hPa 0,0 l/m 1,7 km/h (1 Bft) W 265 0 min 0,000 mm 0,0 UV-I 0 W/m 12,3 C 12,9 C 3,2 km/h (1 Bft) 100,00 %
02.06.2016 05:40 12,9 C 96 % 1009,7 hPa 0,0 l/m 0,7 km/h (0 Bft) W 265 0 min 0,000 mm 0,0 UV-I 0 W/m 12,3 C 12,9 C 1,6 km/h (1 Bft) 100,00 %
02.06.2016 05:41 12,9 C 96 % 1009,7 hPa 0,0 l/m 2,0 km/h (1 Bft) W 265 0 min 0,000 mm 0,0 UV-I 0 W/m 12,3 C 12,9 C 3,2 km/h (1 Bft) 95,83 %
02.06.2016 05:42 12,9 C 96 % 1009,7 hPa 0,0 l/m 1,9 km/h (1 Bft) W 265 0 min 0,000 mm 0,0 UV-I 0 W/m 12,3 C 12,9 C 3,2 km/h (1 Bft) 100,00 %
02.06.2016 05:43 12,9 C 96 % 1009,7 hPa 0,0 l/m 1,5 km/h (1 Bft) W 265 0 min 0,000 mm 0,0 UV-I 0 W/m 12,3 C 12,9 C 3,2 km/h (1 Bft) 100,00 %
02.06.2016 05:44 12,9 C 96 % 1009,7 hPa 0,0 l/m 2,3 km/h (1 Bft) W 265 0 min 0,000 mm 0,0 UV-I 3 W/m 12,3 C 12,9 C 3,2 km/h (1 Bft) 100,00 %
02.06.2016 05:45 12,9 C 96 % 1009,7 hPa 0,0 l/m 2,7 km/h (1 Bft) W 265 0 min 0,000 mm 0,0 UV-I 5 W/m 12,3 C 12,9 C 4,8 km/h (1 Bft) 100,00 %
02.06.2016 05:46 12,9 C 96 % 1009,7 hPa 0,0 l/m 3,2 km/h (1 Bft) W 265 0 min 0,000 mm 0,0 UV-I 5 W/m 12,3 C 12,9 C 4,8 km/h (1 Bft) 100,00 %
02.06.2016 05:47 12,9 C 96 % 1009,7 hPa 0,0 l/m 2,7 km/h (1 Bft) W 265 0 min 0,000 mm 0,0 UV-I 5 W/m 12,3 C 12,9 C 3,2 km/h (1 Bft) 100,00 %
02.06.2016 05:48 12,9 C 96 % 1009,7 hPa 0,0 l/m 2,2 km/h (1 Bft) W 265 0 min 0,000 mm 0,0 UV-I 5 W/m 12,3 C 12,9 C 3,2 km/h (1 Bft) 100,00 %
02.06.2016 05:49 12,9 C 96 % 1009,7 hPa 0,0 l/m 2,7 km/h (1 Bft) W 265 0 min 0,000 mm 0,0 UV-I 5 W/m 12,3 C 12,9 C 4,8 km/h (1 Bft) 100,00 %
02.06.2016 05:50 12,9 C 96 % 1009,8 hPa 0,0 l/m 2,8 km/h (1 Bft) W 264 0 min 0,000 mm 0,0 UV-I 5 W/m 12,3 C 12,9 C 6,4 km/h (2 Bft) 100,00 %
02.06.2016 05:51 12,9 C 96 % 1009,7 hPa 0,0 l/m 2,7 km/h (1 Bft) SW 236 0 min 0,000 mm 0,0 UV-I 7 W/m 12,3 C 12,9 C 4,8 km/h (1 Bft) 100,00 %
02.06.2016 05:52 12,9 C 96 % 1009,7 hPa 0,0 l/m 3,1 km/h (1 Bft) SW 236 0 min 0,000 mm 0,0 UV-I 7 W/m 12,3 C 12,9 C 4,8 km/h (1 Bft) 100,00 %
02.06.2016 05:53 12,9 C 96 % 1009,7 hPa 0,0 l/m 3,6 km/h (1 Bft) SW 235 0 min 0,000 mm 0,0 UV-I 7 W/m 12,3 C 12,9 C 4,8 km/h (1 Bft) 100,00 %
02.06.2016 05:54 13,0 C 96 % 1009,7 hPa 0,0 l/m 3,8 km/h (1 Bft) SW 235 0 min 0,000 mm 0,0 UV-I 8 W/m 12,4 C 13,0 C 4,8 km/h (1 Bft) 100,00 %
02.06.2016 05:55 12,9 C 96 % 1009,6 hPa 0,0 l/m 4,4 km/h (1 Bft) S-SW 198 0 min 0,000 mm 0,0 UV-I 9 W/m 12,3 C 12,9 C 6,4 km/h (2 Bft) 100,00 %
02.06.2016 05:56 12,9 C 96 % 1009,6 hPa 0,0 l/m 4,8 km/h (1 Bft) S-SW 198 0 min 0,000 mm 0,0 UV-I 9 W/m 12,3 C 12,9 C 6,4 km/h (2 Bft) 100,00 %
02.06.2016 05:57 12,9 C 96 % 1009,6 hPa 0,0 l/m 5,4 km/h (1 Bft) S-SW 211 0 min 0,000 mm 0,0 UV-I 9 W/m 12,3 C 12,9 C 6,4 km/h (2 Bft) 100,00 %
02.06.2016 05:58 12,9 C 96 % 1009,6 hPa 0,0 l/m 6,0 km/h (2 Bft) S-SW 207 0 min 0,000 mm 0,0 UV-I 9 W/m 12,3 C 12,9 C 8,0 km/h (2 Bft) 95,83 %
02.06.2016 05:59 12,9 C 96 % 1009,6 hPa 0,0 l/m 6,0 km/h (2 Bft) S-SW 205 0 min 0,000 mm 0,0 UV-I 9 W/m 12,3 C 12,9 C 9,7 km/h (2 Bft) 100,00 %
02.06.2016 06:00 12,9 C 96 % 1009,6 hPa 0,0 l/m 6,9 km/h (2 Bft) SW 217 0 min 0,000 mm 0,0 UV-I 9 W/m 12,3 C 12,6 C 8,0 km/h (2 Bft) 100,00 %
02.06.2016 06:01 12,9 C 96 % 1009,6 hPa 0,0 l/m 6,0 km/h (2 Bft) S-SW 197 0 min 0,000 mm 0,0 UV-I 10 W/m 12,3 C 12,9 C 8,0 km/h (2 Bft) 95,65 %
02.06.2016 06:02 12,9 C 96 % 1009,7 hPa 0,0 l/m 4,4 km/h (1 Bft) S-SW 213 0 min 0,000 mm 0,0 UV-I 11 W/m 12,3 C 12,9 C 6,4 km/h (2 Bft) 100,00 %
02.06.2016 06:03 12,9 C 96 % 1009,6 hPa 0,0 l/m 3,6 km/h (1 Bft) SW 224 0 min 0,000 mm 0,0 UV-I 11 W/m 12,3 C 12,9 C 6,4 km/h (2 Bft) 100,00 %
02.06.2016 06:04 12,9 C 96 % 1009,6 hPa 0,0 l/m 4,7 km/h (1 Bft) S-SW 211 0 min 0,000 mm 0,0 UV-I 11 W/m 12,3 C 12,9 C 6,4 km/h (2 Bft) 100,00 %
02.06.2016 06:05 12,9 C 96 % 1009,7 hPa 0,0 l/m 4,1 km/h (1 Bft) SW 227 0 min 0,000 mm 0,0 UV-I 11 W/m 12,3 C 12,9 C 6,4 km/h (2 Bft) 100,00 %
02.06.2016 06:06 12,9 C 96 % 1009,6 hPa 0,0 l/m 4,4 km/h (1 Bft) W-SW 247 0 min 0,000 mm 0,0 UV-I 11 W/m 12,3 C 12,9 C 6,4 km/h (2 Bft) 100,00 %
02.06.2016 06:07 12,9 C 96 % 1009,6 hPa 0,0 l/m 5,5 km/h (1 Bft) W-SW 240 0 min 0,000 mm 0,0 UV-I 11 W/m 12,3 C 12,9 C 6,4 km/h (2 Bft) 100,00 %
02.06.2016 06:08 12,9 C 96 % 1009,6 hPa 0,0 l/m 3,9 km/h (1 Bft) W-SW 237 0 min 0,000 mm 0,0 UV-I 11 W/m 12,3 C 12,9 C 4,8 km/h (1 Bft) 95,65 %
02.06.2016 06:09 12,9 C 96 % 1009,7 hPa 0,0 l/m 4,8 km/h (1 Bft) W-SW 237 0 min 0,000 mm 0,0 UV-I 11 W/m 12,3 C 12,9 C 6,4 km/h (2 Bft) 100,00 %
02.06.2016 06:10 12,9 C 96 % 1009,6 hPa 0,0 l/m 4,1 km/h (1 Bft) SW 233 0 min 0,000 mm 0,0 UV-I 11 W/m 12,3 C 12,9 C 6,4 km/h (2 Bft) 95,65 %
02.06.2016 06:11 12,9 C 96 % 1009,7 hPa 0,0 l/m 5,0 km/h (1 Bft) SW 236 0 min 0,000 mm 0,0 UV-I 11 W/m 12,3 C 12,9 C 6,4 km/h (2 Bft) 96,30 %
02.06.2016 06:12 12,9 C 96 % 1009,7 hPa 0,0 l/m 3,8 km/h (1 Bft) SW 218 0 min 0,000 mm 0,0 UV-I 11 W/m 12,3 C 12,9 C 6,4 km/h (2 Bft) 100,00 %
02.06.2016 06:13 12,9 C 96 % 1009,7 hPa 0,0 l/m 5,0 km/h (1 Bft) SW 215 0 min 0,000 mm 0,0 UV-I 11 W/m 12,3 C 12,9 C 6,4 km/h (2 Bft) 95,83 %
02.06.2016 06:14 12,9 C 96 % 1009,7 hPa 0,0 l/m 3,8 km/h (1 Bft) SW 236 0 min 0,000 mm 0,0 UV-I 12 W/m 12,3 C 12,9 C 4,8 km/h (1 Bft) 100,00 %
02.06.2016 06:15 12,9 C 96 % 1009,7 hPa 0,0 l/m 3,4 km/h (1 Bft) SW 236 0 min 0,000 mm 0,0 UV-I 12 W/m 12,3 C 12,9 C 4,8 km/h (1 Bft) 95,83 %
02.06.2016 06:16 12,9 C 96 % 1009,7 hPa 0,0 l/m 1,8 km/h (1 Bft) SW 236 0 min 0,000 mm 0,0 UV-I 12 W/m 12,3 C 12,9 C 3,2 km/h (1 Bft) 100,00 %
02.06.2016 06:17 12,9 C 96 % 1009,7 hPa 0,0 l/m 2,9 km/h (1 Bft) SW 236 0 min 0,000 mm 0,0 UV-I 12 W/m 12,3 C 12,9 C 4,8 km/h (1 Bft) 95,83 %
02.06.2016 06:18 12,9 C 96 % 1009,7 hPa 0,0 l/m 4,2 km/h (1 Bft) SW 236 0 min 0,000 mm 0,0 UV-I 12 W/m 12,3 C 12,9 C 6,4 km/h (2 Bft) 100,00 %
02.06.2016 06:19 12,9 C 96 % 1009,7 hPa 0,0 l/m 2,7 km/h (1 Bft) SW 232 0 min 0,000 mm 0,0 UV-I 13 W/m 12,3 C 12,9 C 3,2 km/h (1 Bft) 96,30 %
02.06.2016 06:20 12,9 C 96 % 1009,7 hPa 0,0 l/m 1,9 km/h (1 Bft) SW 232 0 min 0,000 mm 0,0 UV-I 14 W/m 12,3 C 12,9 C 3,2 km/h (1 Bft) 95,65 %
02.06.2016 06:21 12,9 C 96 % 1009,7 hPa 0,0 l/m 3,8 km/h (1 Bft) SW 220 0 min 0,000 mm 0,0 UV-I 14 W/m 12,3 C 12,9 C 4,8 km/h (1 Bft) 100,00 %
02.06.2016 06:22 12,9 C 96 % 1009,7 hPa 0,0 l/m 3,4 km/h (1 Bft) SW 220 0 min 0,000 mm 0,0 UV-I 14 W/m 12,3 C 12,9 C 4,8 km/h (1 Bft) 95,65 %
02.06.2016 06:23 12,9 C 96 % 1009,7 hPa 0,0 l/m 4,4 km/h (1 Bft) SW 219 0 min 0,000 mm 0,0 UV-I 14 W/m 12,3 C 12,9 C 6,4 km/h (2 Bft) 100,00 %
02.06.2016 06:24 12,9 C 96 % 1009,7 hPa 0,0 l/m 3,6 km/h (1 Bft) SW 217 0 min 0,000 mm 0,0 UV-I 15 W/m 12,3 C 12,9 C 6,4 km/h (2 Bft) 95,65 %
02.06.2016 06:25 12,9 C 96 % 1009,7 hPa 0,0 l/m 3,5 km/h (1 Bft) SW 216 0 min 0,000 mm 0,0 UV-I 16 W/m 12,3 C 12,9 C 4,8 km/h (1 Bft) 100,00 %
02.06.2016 06:26 12,9 C 96 % 1009,7 hPa 0,0 l/m 5,0 km/h (1 Bft) SW 214 0 min 0,000 mm 0,0 UV-I 16 W/m 12,3 C 12,9 C 6,4 km/h (2 Bft) 95,65 %
02.06.2016 06:27 12,9 C 96 % 1009,7 hPa 0,0 l/m 4,8 km/h (1 Bft) S-SW 206 0 min 0,000 mm 0,0 UV-I 16 W/m 12,3 C 12,9 C 6,4 km/h (2 Bft) 93,33 %
02.06.2016 06:28 12,9 C 96 % 1009,7 hPa 0,0 l/m 3,4 km/h (1 Bft) S-SW 210 0 min 0,000 mm 0,0 UV-I 18 W/m 12,3 C 12,9 C 6,4 km/h (2 Bft) 95,83 %
02.06.2016 06:29 12,9 C 96 % 1009,7 hPa 0,0 l/m 5,9 km/h (2 Bft) S-SW 208 0 min 0,000 mm 0,0 UV-I 18 W/m 12,3 C 12,9 C 6,4 km/h (2 Bft) 95,65 %
02.06.2016 06:30 12,9 C 96 % 1009,7 hPa 0,0 l/m 5,0 km/h (1 Bft) S 190 0 min 0,000 mm 0,0 UV-I 18 W/m 12,3 C 12,9 C 6,4 km/h (2 Bft) 100,00 %
02.06.2016 06:31 12,9 C 96 % 1009,7 hPa 0,0 l/m 5,9 km/h (2 Bft) S 184 0 min 0,000 mm 0,0 UV-I 18 W/m 12,3 C 12,9 C 8,0 km/h (2 Bft) 96,00 %
02.06.2016 06:32 12,9 C 96 % 1009,7 hPa 0,0 l/m 4,5 km/h (1 Bft) S-SW 198 0 min 0,000 mm 0,0 UV-I 18 W/m 12,3 C 12,9 C 6,4 km/h (2 Bft) 96,30 %
02.06.2016 06:33 12,9 C 96 % 1009,7 hPa 0,0 l/m 4,3 km/h (1 Bft) S 180 0 min 0,000 mm 0,0 UV-I 18 W/m 12,3 C 12,9 C 6,4 km/h (2 Bft) 95,65 %
02.06.2016 06:34 12,9 C 96 % 1009,7 hPa 0,0 l/m 6,0 km/h (2 Bft) SW 216 0 min 0,000 mm 0,0 UV-I 18 W/m 12,3 C 12,9 C 8,0 km/h (2 Bft) 100,00 %
02.06.2016 06:35 12,9 C 96 % 1009,7 hPa 0,0 l/m 6,5 km/h (2 Bft) S-SW 206 0 min 0,000 mm 0,0 UV-I 18 W/m 12,3 C 12,9 C 8,0 km/h (2 Bft) 95,65 %
02.06.2016 06:36 12,9 C 96 % 1009,7 hPa 0,0 l/m 4,8 km/h (1 Bft) S-SW 202 0 min 0,000 mm 0,0 UV-I 19 W/m 12,3 C 12,9 C 8,0 km/h (2 Bft) 95,83 %
02.06.2016 06:37 13,0 C 96 % 1009,7 hPa 0,0 l/m 4,6 km/h (1 Bft) S-SW 195 0 min 0,000 mm 0,0 UV-I 19 W/m 12,4 C 13,0 C 6,4 km/h (2 Bft) 95,65 %
02.06.2016 06:38 13,0 C 96 % 1009,7 hPa 0,0 l/m 6,5 km/h (2 Bft) SW 217 0 min 0,000 mm 0,0 UV-I 21 W/m 12,4 C 13,0 C 9,7 km/h (2 Bft) 95,83 %
02.06.2016 06:39 13,0 C 96 % 1009,7 hPa 0,0 l/m 7,3 km/h (2 Bft) S-SO 162 0 min 0,000 mm 0,0 UV-I 21 W/m 12,4 C 12,4 C 11,3 km/h (2 Bft) 100,00 %
02.06.2016 06:40 13,0 C 96 % 1009,7 hPa 0,0 l/m 6,2 km/h (2 Bft) S-SW 212 0 min 0,000 mm 0,0 UV-I 21 W/m 12,4 C 13,0 C 9,7 km/h (2 Bft) 91,67 %
02.06.2016 06:41 13,0 C 96 % 1009,7 hPa 0,0 l/m 7,8 km/h (2 Bft) S-SW 194 0 min 0,000 mm 0,0 UV-I 21 W/m 12,4 C 12,1 C 9,7 km/h (2 Bft) 100,00 %
02.06.2016 06:42 13,0 C 96 % 1009,8 hPa 0,0 l/m 4,5 km/h (1 Bft) S-SW 209 0 min 0,000 mm 0,0 UV-I 22 W/m 12,4 C 13,0 C 6,4 km/h (2 Bft) 100,00 %
02.06.2016 06:43 13,0 C 96 % 1009,8 hPa 0,0 l/m 6,1 km/h (2 Bft) SW 229 0 min 0,000 mm 0,0 UV-I 23 W/m 12,4 C 13,0 C 8,0 km/h (2 Bft) 100,00 %
02.06.2016 06:44 13,0 C 96 % 1009,8 hPa 0,0 l/m 6,4 km/h (2 Bft) W-SW 237 0 min 0,000 mm 0,0 UV-I 23 W/m 12,4 C 13,0 C 8,0 km/h (2 Bft) 100,00 %
02.06.2016 06:45 13,0 C 96 % 1009,8 hPa 0,0 l/m 6,6 km/h (2 Bft) S 188 0 min 0,000 mm 0,0 UV-I 23 W/m 12,4 C 12,9 C 9,7 km/h (2 Bft) 95,65 %
02.06.2016 06:46 13,0 C 96 % 1009,8 hPa 0,0 l/m 4,0 km/h (1 Bft) S-SW 196 0 min 0,000 mm 0,0 UV-I 23 W/m 12,4 C 13,0 C 6,4 km/h (2 Bft) 96,30 %
02.06.2016 06:47 13,0 C 96 % 1009,8 hPa 0,0 l/m 6,0 km/h (2 Bft) S-SW 208 0 min 0,000 mm 0,0 UV-I 23 W/m 12,4 C 13,0 C 9,7 km/h (2 Bft) 100,00 %
02.06.2016 06:48 13,1 C 96 % 1009,7 hPa 0,0 l/m 7,3 km/h (2 Bft) S-SW 194 0 min 0,000 mm 0,0 UV-I 23 W/m 12,5 C 12,5 C 9,7 km/h (2 Bft) 100,00 %
02.06.2016 06:49 13,1 C 96 % 1009,8 hPa 0,0 l/m 5,6 km/h (1 Bft) S-SW 198 0 min 0,000 mm 0,0 UV-I 24 W/m 12,5 C 13,1 C 6,4 km/h (2 Bft) 95,65 %
02.06.2016 06:50 13,1 C 96 % 1009,8 hPa 0,0 l/m 9,7 km/h (2 Bft) S-SO 164 0 min 0,000 mm 0,0 UV-I 26 W/m 12,5 C 11,2 C 14,5 km/h (3 Bft) 100,00 %
02.06.2016 06:51 13,1 C 96 % 1009,8 hPa 0,0 l/m 7,5 km/h (2 Bft) SW 215 0 min 0,000 mm 0,0 UV-I 30 W/m 12,5 C 12,4 C 11,3 km/h (2 Bft) 96,55 %
02.06.2016 06:52 13,1 C 96 % 1009,7 hPa 0,0 l/m 5,6 km/h (1 Bft) S-SW 210 0 min 0,000 mm 0,0 UV-I 32 W/m 12,5 C 13,1 C 8,0 km/h (2 Bft) 100,00 %
02.06.2016 06:53 13,1 C 96 % 1009,7 hPa 0,0 l/m 6,9 km/h (2 Bft) S-SW 202 0 min 0,000 mm 0,0 UV-I 34 W/m 12,5 C 12,8 C 9,7 km/h (2 Bft) 100,00 %
02.06.2016 06:54 13,1 C 96 % 1009,7 hPa 0,0 l/m 5,9 km/h (2 Bft) S-SW 205 0 min 0,000 mm 0,0 UV-I 35 W/m 12,5 C 13,1 C 8,0 km/h (2 Bft) 100,00 %
02.06.2016 06:55 13,1 C 96 % 1009,7 hPa 0,0 l/m 7,6 km/h (2 Bft) SW 222 0 min 0,000 mm 0,0 UV-I 35 W/m 12,5 C 12,3 C 9,7 km/h (2 Bft) 100,00 %
02.06.2016 06:56 13,1 C 96 % 1009,8 hPa 0,0 l/m 7,4 km/h (2 Bft) S 186 0 min 0,000 mm 0,0 UV-I 35 W/m 12,5 C 12,5 C 9,7 km/h (2 Bft) 100,00 %
02.06.2016 06:57 13,1 C 96 % 1009,8 hPa 0,0 l/m 6,4 km/h (2 Bft) S-SW 211 0 min 0,000 mm 0,0 UV-I 35 W/m 12,5 C 13,1 C 9,7 km/h (2 Bft) 100,00 %
02.06.2016 06:58 13,1 C 96 % 1009,8 hPa 0,0 l/m 6,6 km/h (2 Bft) S-SW 211 0 min 0,000 mm 0,0 UV-I 35 W/m 12,5 C 13,0 C 8,0 km/h (2 Bft) 95,65 %
02.06.2016 06:59 13,1 C 96 % 1009,8 hPa 0,0 l/m 5,6 km/h (1 Bft) SW 216 0 min 0,000 mm 0,0 UV-I 35 W/m 12,5 C 13,1 C 8,0 km/h (2 Bft) 100,00 %
02.06.2016 07:00 13,1 C 96 % 1009,8 hPa 0,0 l/m 7,4 km/h (2 Bft) S-SW 207 0 min 0,000 mm 0,0 UV-I 35 W/m 12,5 C 12,5 C 9,7 km/h (2 Bft) 100,00 %
02.06.2016 07:01 13,1 C 96 % 1009,8 hPa 0,0 l/m 6,4 km/h (2 Bft) S 184 0 min 0,000 mm 0,0 UV-I 35 W/m 12,5 C 13,1 C 8,0 km/h (2 Bft) 100,00 %
02.06.2016 07:02 13,1 C 96 % 1009,8 hPa 0,0 l/m 7,8 km/h (2 Bft) S 185 0 min 0,000 mm 0,0 UV-I 35 W/m 12,5 C 12,2 C 11,3 km/h (2 Bft) 100,00 %
02.06.2016 07:03 13,2 C 96 % 1009,8 hPa 0,0 l/m 6,6 km/h (2 Bft) SW 223 0 min 0,000 mm 0,0 UV-I 35 W/m 12,6 C 13,1 C 9,7 km/h (2 Bft) 100,00 %
02.06.2016 07:04 13,2 C 96 % 1009,8 hPa 0,0 l/m 6,9 km/h (2 Bft) S-SW 207 0 min 0,000 mm 0,0 UV-I 37 W/m 12,6 C 12,9 C 9,7 km/h (2 Bft) 100,00 %
02.06.2016 07:05 13,2 C 96 % 1009,7 hPa 0,0 l/m 5,4 km/h (1 Bft) S-SW 198 0 min 0,000 mm 0,0 UV-I 38 W/m 12,6 C 13,2 C 9,7 km/h (2 Bft) 100,00 %
02.06.2016 07:06 13,2 C 96 % 1009,8 hPa 0,0 l/m 6,8 km/h (2 Bft) S-SW 203 0 min 0,000 mm 0,0 UV-I 39 W/m 12,6 C 13,0 C 9,7 km/h (2 Bft) 100,00 %
02.06.2016 07:07 13,2 C 96 % 1009,7 hPa 0,0 l/m 4,2 km/h (1 Bft) S-SW 202 0 min 0,000 mm 0,0 UV-I 40 W/m 12,6 C 13,2 C 6,4 km/h (2 Bft) 100,00 %
02.06.2016 07:08 13,2 C 96 % 1009,7 hPa 0,0 l/m 5,8 km/h (2 Bft) S-SW 192 0 min 0,000 mm 0,0 UV-I 40 W/m 12,6 C 13,2 C 9,7 km/h (2 Bft) 100,00 %
02.06.2016 07:09 13,2 C 96 % 1009,7 hPa 0,0 l/m 6,4 km/h (2 Bft) S 182 0 min 0,000 mm 0,0 UV-I 42 W/m 12,6 C 13,2 C 8,0 km/h (2 Bft) 100,00 %
02.06.2016 07:10 13,2 C 96 % 1009,7 hPa 0,0 l/m 5,4 km/h (1 Bft) S 190 0 min 0,000 mm 0,0 UV-I 43 W/m 12,6 C 13,2 C 6,4 km/h (2 Bft) 100,00 %
02.06.2016 07:11 13,2 C 96 % 1009,7 hPa 0,0 l/m 5,1 km/h (1 Bft) SW 217 0 min 0,000 mm 0,0 UV-I 45 W/m 12,6 C 13,2 C 6,4 km/h (2 Bft) 96,15 %
02.06.2016 07:12 13,2 C 96 % 1009,7 hPa 0,0 l/m 5,9 km/h (2 Bft) S-SW 198 0 min 0,000 mm 0,0 UV-I 47 W/m 12,6 C 13,2 C 8,0 km/h (2 Bft) 100,00 %
02.06.2016 07:13 13,2 C 96 % 1009,7 hPa 0,0 l/m 6,0 km/h (2 Bft) SW 222 0 min 0,000 mm 0,0 UV-I 47 W/m 12,6 C 13,2 C 8,0 km/h (2 Bft) 100,00 %
02.06.2016 07:14 13,2 C 96 % 1009,7 hPa 0,0 l/m 6,0 km/h (2 Bft) S-SW 209 0 min 0,000 mm 0,0 UV-I 49 W/m 12,6 C 13,2 C 9,7 km/h (2 Bft) 100,00 %
02.06.2016 07:15 13,2 C 96 % 1009,7 hPa 0,0 l/m 4,8 km/h (1 Bft) S 190 0 min 0,000 mm 0,0 UV-I 49 W/m 12,6 C 13,2 C 6,4 km/h (2 Bft) 100,00 %
02.06.2016 07:16 13,2 C 95 % 1009,7 hPa 0,0 l/m 5,6 km/h (1 Bft) S-SW 211 0 min 0,000 mm 0,0 UV-I 49 W/m 12,4 C 13,2 C 8,0 km/h (2 Bft) 100,00 %
02.06.2016 07:17 13,2 C 95 % 1009,8 hPa 0,0 l/m 3,6 km/h (1 Bft) S-SW 198 0 min 0,000 mm 0,0 UV-I 49 W/m 12,4 C 13,2 C 4,8 km/h (1 Bft) 100,00 %
02.06.2016 07:18 13,2 C 95 % 1009,8 hPa 0,0 l/m 4,8 km/h (1 Bft) S-SW 207 0 min 0,000 mm 0,0 UV-I 49 W/m 12,4 C 13,2 C 6,4 km/h (2 Bft) 100,00 %
02.06.2016 07:19 13,2 C 96 % 1009,8 hPa 0,0 l/m 4,2 km/h (1 Bft) S-SW 205 0 min 0,000 mm 0,0 UV-I 49 W/m 12,6 C 13,2 C 6,4 km/h (2 Bft) 95,65 %
02.06.2016 07:20 13,2 C 96 % 1009,8 hPa 0,0 l/m 5,8 km/h (2 Bft) S-SW 213 0 min 0,000 mm 0,0 UV-I 51 W/m 12,6 C 13,2 C 9,7 km/h (2 Bft) 100,00 %
02.06.2016 07:21 13,2 C 96 % 1009,8 hPa 0,0 l/m 5,8 km/h (2 Bft) SW 222 0 min 0,000 mm 0,0 UV-I 52 W/m 12,6 C 13,2 C 8,0 km/h (2 Bft) 100,00 %
02.06.2016 07:22 13,3 C 96 % 1009,8 hPa 0,0 l/m 3,9 km/h (1 Bft) SW 222 0 min 0,000 mm 0,0 UV-I 53 W/m 12,7 C 13,3 C 4,8 km/h (1 Bft) 100,00 %
02.06.2016 07:23 13,3 C 96 % 1009,7 hPa 0,0 l/m 4,8 km/h (1 Bft) S-SW 192 0 min 0,000 mm 0,0 UV-I 55 W/m 12,7 C 13,3 C 6,4 km/h (2 Bft) 100,00 %
02.06.2016 07:24 13,3 C 96 % 1009,7 hPa 0,0 l/m 5,3 km/h (1 Bft) S-SW 197 0 min 0,000 mm 0,0 UV-I 59 W/m 12,7 C 13,3 C 6,4 km/h (2 Bft) 100,00 %
02.06.2016 07:25 13,3 C 96 % 1009,8 hPa 0,0 l/m 6,2 km/h (2 Bft) S-SW 198 0 min 0,000 mm 0,0 UV-I 62 W/m 12,7 C 13,3 C 8,0 km/h (2 Bft) 100,00 %
02.06.2016 07:26 13,3 C 96 % 1009,8 hPa 0,0 l/m 6,6 km/h (2 Bft) S-SW 202 0 min 0,000 mm 0,0 UV-I 63 W/m 12,7 C 13,2 C 9,7 km/h (2 Bft) 100,00 %
02.06.2016 07:27 13,3 C 96 % 1009,7 hPa 0,0 l/m 4,7 km/h (1 Bft) S-SW 203 0 min 0,000 mm 0,0 UV-I 66 W/m 12,7 C 13,3 C 6,4 km/h (2 Bft) 100,00 %
02.06.2016 07:28 13,3 C 96 % 1009,8 hPa 0,0 l/m 5,2 km/h (1 Bft) S-SW 200 0 min 0,000 mm 0,0 UV-I 67 W/m 12,7 C 13,3 C 6,4 km/h (2 Bft) 95,65 %
02.06.2016 07:29 13,4 C 96 % 1009,8 hPa 0,0 l/m 5,5 km/h (1 Bft) S-SW 202 0 min 0,000 mm 0,0 UV-I 68 W/m 12,8 C 13,4 C 8,0 km/h (2 Bft) 100,00 %
02.06.2016 07:30 13,4 C 96 % 1009,8 hPa 0,0 l/m 5,9 km/h (2 Bft) S-SW 210 0 min 0,000 mm 0,0 UV-I 70 W/m 12,8 C 13,4 C 8,0 km/h (2 Bft) 100,00 %
02.06.2016 07:31 13,4 C 95 % 1009,8 hPa 0,0 l/m 5,8 km/h (2 Bft) S-SW 205 0 min 0,000 mm 0,0 UV-I 70 W/m 12,6 C 13,4 C 8,0 km/h (2 Bft) 100,00 %
02.06.2016 07:32 13,4 C 95 % 1009,8 hPa 0,0 l/m 4,4 km/h (1 Bft) SW 226 0 min 0,000 mm 0,0 UV-I 70 W/m 12,6 C 13,4 C 6,4 km/h (2 Bft) 100,00 %
02.06.2016 07:33 13,4 C 96 % 1009,8 hPa 0,0 l/m 4,7 km/h (1 Bft) SW 223 0 min 0,000 mm 0,0 UV-I 70 W/m 12,8 C 13,4 C 8,0 km/h (2 Bft) 100,00 %
02.06.2016 07:34 13,4 C 95 % 1009,8 hPa 0,0 l/m 4,6 km/h (1 Bft) S-SW 192 0 min 0,000 mm 0,0 UV-I 69 W/m 12,6 C 13,4 C 8,0 km/h (2 Bft) 100,00 %
02.06.2016 07:35 13,4 C 95 % 1009,8 hPa 0,0 l/m 4,8 km/h (1 Bft) SW 234 0 min 0,000 mm 0,0 UV-I 68 W/m 12,6 C 13,4 C 6,4 km/h (2 Bft) 100,00 %
02.06.2016 07:36 13,4 C 95 % 1009,8 hPa 0,0 l/m 3,4 km/h (1 Bft) SW 215 0 min 0,000 mm 0,0 UV-I 66 W/m 12,6 C 13,4 C 4,8 km/h (1 Bft) 100,00 %
02.06.2016 07:37 13,5 C 95 % 1009,8 hPa 0,0 l/m 4,5 km/h (1 Bft) S-SW 197 0 min 0,000 mm 0,0 UV-I 63 W/m 12,7 C 13,5 C 6,4 km/h (2 Bft) 95,83 %
02.06.2016 07:38 13,4 C 95 % 1009,9 hPa 0,0 l/m 3,5 km/h (1 Bft) SW 224 0 min 0,000 mm 0,0 UV-I 63 W/m 12,6 C 13,4 C 4,8 km/h (1 Bft) 100,00 %
02.06.2016 07:39 13,5 C 95 % 1009,9 hPa 0,0 l/m 4,4 km/h (1 Bft) S-SW 205 0 min 0,000 mm 0,0 UV-I 66 W/m 12,7 C 13,5 C 6,4 km/h (2 Bft) 100,00 %
02.06.2016 07:40 13,5 C 95 % 1009,9 hPa 0,0 l/m 6,0 km/h (2 Bft) S-SW 201 0 min 0,000 mm 0,0 UV-I 68 W/m 12,7 C 13,5 C 11,3 km/h (2 Bft) 86,96 %
02.06.2016 07:41 13,5 C 95 % 1009,9 hPa 0,0 l/m 7,3 km/h (2 Bft) S-SW 209 0 min 0,000 mm 0,0 UV-I 74 W/m 12,7 C 12,9 C 8,0 km/h (2 Bft) 100,00 %
02.06.2016 07:42 13,5 C 95 % 1009,8 hPa 0,0 l/m 5,6 km/h (1 Bft) S-SW 201 0 min 0,000 mm 0,0 UV-I 80 W/m 12,7 C 13,5 C 9,7 km/h (2 Bft) 95,65 %
02.06.2016 07:43 13,6 C 95 % 1009,9 hPa 0,0 l/m 4,1 km/h (1 Bft) S-SW 194 0 min 0,000 mm 0,0 UV-I 84 W/m 12,8 C 13,6 C 4,8 km/h (1 Bft) 100,00 %
02.06.2016 07:44 13,6 C 95 % 1009,9 hPa 0,0 l/m 2,9 km/h (1 Bft) SW 215 0 min 0,000 mm 0,0 UV-I 91 W/m 12,8 C 13,6 C 4,8 km/h (1 Bft) 95,65 %
02.06.2016 07:45 13,6 C 95 % 1009,9 hPa 0,0 l/m 4,1 km/h (1 Bft) S 184 0 min 0,000 mm 0,0 UV-I 97 W/m 12,8 C 13,6 C 4,8 km/h (1 Bft) 100,00 %
02.06.2016 07:46 13,6 C 95 % 1009,9 hPa 0,0 l/m 4,0 km/h (1 Bft) S-SW 193 0 min 0,000 mm 0,0 UV-I 102 W/m 12,8 C 13,6 C 4,8 km/h (1 Bft) 91,30 %
02.06.2016 07:47 13,7 C 95 % 1009,9 hPa 0,0 l/m 3,6 km/h (1 Bft) S-SW 211 0 min 0,000 mm 0,0 UV-I 106 W/m 12,9 C 13,7 C 6,4 km/h (2 Bft) 100,00 %
02.06.2016 07:48 13,7 C 95 % 1009,9 hPa 0,0 l/m 3,0 km/h (1 Bft) S-SW 207 0 min 0,000 mm 0,0 UV-I 109 W/m 12,9 C 13,7 C 6,4 km/h (2 Bft) 100,00 %
02.06.2016 07:49 13,7 C 95 % 1009,9 hPa 0,0 l/m 4,0 km/h (1 Bft) S-SW 193 0 min 0,000 mm 0,0 UV-I 111 W/m 12,9 C 13,7 C 6,4 km/h (2 Bft) 95,83 %
02.06.2016 07:50 13,7 C 95 % 1009,9 hPa 0,0 l/m 5,6 km/h (1 Bft) S-SW 213 0 min 0,000 mm 0,0 UV-I 118 W/m 12,9 C 13,7 C 8,0 km/h (2 Bft) 100,00 %
02.06.2016 07:51 13,7 C 95 % 1009,9 hPa 0,0 l/m 4,8 km/h (1 Bft) S 172 0 min 0,000 mm 0,0 UV-I 126 W/m 12,9 C 13,7 C 8,0 km/h (2 Bft) 100,00 %
02.06.2016 07:52 13,7 C 94 % 1009,9 hPa 0,0 l/m 3,7 km/h (1 Bft) S-SW 202 0 min 0,000 mm 0,0 UV-I 134 W/m 12,8 C 13,7 C 6,4 km/h (2 Bft) 95,83 %
02.06.2016 07:53 13,8 C 94 % 1009,9 hPa 0,0 l/m 5,0 km/h (1 Bft) S-SW 194 0 min 0,000 mm 0,0 UV-I 142 W/m 12,9 C 13,8 C 6,4 km/h (2 Bft) 86,96 %
02.06.2016 07:54 13,8 C 94 % 1009,9 hPa 0,0 l/m 5,4 km/h (1 Bft) S-SW 203 0 min 0,000 mm 0,0 UV-I 148 W/m 12,9 C 13,8 C 8,0 km/h (2 Bft) 100,00 %
02.06.2016 07:55 13,8 C 94 % 1009,9 hPa 0,0 l/m 4,5 km/h (1 Bft) W-SW 239 0 min 0,000 mm 0,4 UV-I 156 W/m 12,9 C 13,8 C 6,4 km/h (2 Bft) 95,65 %
02.06.2016 07:56 13,8 C 94 % 1009,9 hPa 0,0 l/m 5,1 km/h (1 Bft) S-SW 208 0 min 0,000 mm 0,5 UV-I 166 W/m 12,9 C 13,8 C 6,4 km/h (2 Bft) 100,00 %
02.06.2016 07:57 13,8 C 94 % 1009,9 hPa 0,0 l/m 3,2 km/h (1 Bft) SW 226 0 min 0,000 mm 0,5 UV-I 174 W/m 12,9 C 13,8 C 6,4 km/h (2 Bft) 100,00 %
02.06.2016 07:58 13,9 C 94 % 1009,9 hPa 0,0 l/m 4,8 km/h (1 Bft) S 184 0 min 0,000 mm 0,5 UV-I 180 W/m 12,9 C 13,9 C 9,7 km/h (2 Bft) 100,00 %
02.06.2016 07:59 13,9 C 94 % 1009,9 hPa 0,0 l/m 4,2 km/h (1 Bft) S-SW 211 0 min 0,000 mm 0,5 UV-I 181 W/m 12,9 C 13,9 C 6,4 km/h (2 Bft) 90,91 %
02.06.2016 08:00 13,9 C 94 % 1009,9 hPa 0,0 l/m 5,4 km/h (1 Bft) SW 217 0 min 0,051 mm 0,5 UV-I 179 W/m 12,9 C 13,9 C 8,0 km/h (2 Bft) 100,00 %
02.06.2016 08:01 13,9 C 93 % 1009,9 hPa 0,0 l/m 6,0 km/h (2 Bft) S 173 0 min 0,000 mm 0,5 UV-I 175 W/m 12,8 C 13,9 C 11,3 km/h (2 Bft) 95,83 %
02.06.2016 08:02 13,9 C 93 % 1009,9 hPa 0,0 l/m 6,8 km/h (2 Bft) S 191 0 min 0,000 mm 0,4 UV-I 169 W/m 12,8 C 13,7 C 11,3 km/h (2 Bft) 100,00 %
02.06.2016 08:03 13,9 C 93 % 1009,9 hPa 0,0 l/m 5,0 km/h (1 Bft) W-SW 258 0 min 0,000 mm 0,0 UV-I 159 W/m 12,8 C 13,9 C 6,4 km/h (2 Bft) 100,00 %
02.06.2016 08:04 14,0 C 93 % 1009,9 hPa 0,0 l/m 5,0 km/h (1 Bft) S-SW 202 0 min 0,000 mm 0,0 UV-I 149 W/m 12,9 C 14,0 C 6,4 km/h (2 Bft) 100,00 %
02.06.2016 08:05 14,0 C 93 % 1009,9 hPa 0,0 l/m 4,8 km/h (1 Bft) SW 231 0 min 0,000 mm 0,0 UV-I 135 W/m 12,9 C 14,0 C 6,4 km/h (2 Bft) 100,00 %
02.06.2016 08:06 14,0 C 94 % 1009,9 hPa 0,0 l/m 5,0 km/h (1 Bft) S-SW 196 0 min 0,000 mm 0,0 UV-I 122 W/m 13,0 C 14,0 C 6,4 km/h (2 Bft) 95,65 %
02.06.2016 08:07 14,1 C 94 % 1009,9 hPa 0,0 l/m 3,8 km/h (1 Bft) S 187 0 min 0,000 mm 0,0 UV-I 109 W/m 13,1 C 14,1 C 4,8 km/h (1 Bft) 100,00 %
02.06.2016 08:08 14,1 C 94 % 1009,9 hPa 0,0 l/m 7,9 km/h (2 Bft) S-SW 202 0 min 0,000 mm 0,0 UV-I 105 W/m 13,1 C 13,2 C 11,3 km/h (2 Bft) 86,96 %
02.06.2016 08:09 14,1 C 93 % 1009,9 hPa 0,0 l/m 5,4 km/h (1 Bft) S-SW 209 0 min 0,000 mm 0,0 UV-I 94 W/m 13,0 C 14,1 C 8,0 km/h (2 Bft) 100,00 %
02.06.2016 08:10 14,1 C 93 % 1010,0 hPa 0,0 l/m 6,6 km/h (2 Bft) S-SW 207 0 min 0,000 mm 0,0 UV-I 90 W/m 13,0 C 14,0 C 8,0 km/h (2 Bft) 91,30 %
02.06.2016 08:11 14,1 C 93 % 1009,9 hPa 0,0 l/m 3,2 km/h (1 Bft) S 182 0 min 0,000 mm 0,0 UV-I 86 W/m 13,0 C 14,1 C 6,4 km/h (2 Bft) 100,00 %
02.06.2016 08:12 14,1 C 93 % 1009,9 hPa 0,0 l/m 3,1 km/h (1 Bft) S 180 0 min 0,000 mm 0,0 UV-I 81 W/m 13,0 C 14,1 C 4,8 km/h (1 Bft) 96,15 %
02.06.2016 08:13 14,1 C 93 % 1010,0 hPa 0,0 l/m 3,5 km/h (1 Bft) S 180 0 min 0,000 mm 0,0 UV-I 75 W/m 13,0 C 14,1 C 4,8 km/h (1 Bft) 96,30 %
02.06.2016 08:14 14,1 C 94 % 1010,0 hPa 0,0 l/m 6,5 km/h (2 Bft) S 186 0 min 0,000 mm 0,0 UV-I 68 W/m 13,1 C 14,1 C 9,7 km/h (2 Bft) 100,00 %
02.06.2016 08:15 14,1 C 93 % 1010,0 hPa 0,0 l/m 7,8 km/h (2 Bft) S-SW 211 0 min 0,000 mm 0,0 UV-I 63 W/m 13,0 C 13,3 C 12,9 km/h (3 Bft) 91,67 %
02.06.2016 08:16 14,0 C 93 % 1009,9 hPa 0,0 l/m 5,6 km/h (1 Bft) S-SW 205 0 min 0,000 mm 0,0 UV-I 58 W/m 12,9 C 14,0 C 8,0 km/h (2 Bft) 91,30 %
02.06.2016 08:17 14,0 C 93 % 1010,0 hPa 0,0 l/m 9,7 km/h (2 Bft) S-SW 207 0 min 0,000 mm 0,0 UV-I 54 W/m 12,9 C 12,2 C 12,9 km/h (3 Bft) 95,83 %
02.06.2016 08:18 13,9 C 93 % 1010,0 hPa 0,0 l/m 7,8 km/h (2 Bft) S 180 0 min 0,000 mm 0,0 UV-I 47 W/m 12,8 C 13,1 C 11,3 km/h (2 Bft) 100,00 %
02.06.2016 08:19 13,9 C 93 % 1010,0 hPa 0,0 l/m 7,2 km/h (2 Bft) SW 236 0 min 0,000 mm 0,0 UV-I 45 W/m 12,8 C 13,4 C 9,7 km/h (2 Bft) 91,67 %
02.06.2016 08:20 13,9 C 93 % 1010,0 hPa 0,0 l/m 7,3 km/h (2 Bft) S 187 0 min 0,000 mm 0,0 UV-I 41 W/m 12,8 C 13,4 C 11,3 km/h (2 Bft) 95,65 %
02.06.2016 08:21 13,8 C 93 % 1010,0 hPa 0,0 l/m 6,9 km/h (2 Bft) S-SW 197 0 min 0,000 mm 0,0 UV-I 38 W/m 12,7 C 13,5 C 9,7 km/h (2 Bft) 100,00 %
02.06.2016 08:22 13,8 C 93 % 1010,0 hPa 0,2 l/m 5,2 km/h (1 Bft) S-SW 200 0 min 0,000 mm 0,0 UV-I 36 W/m 12,7 C 13,8 C 8,0 km/h (2 Bft) 95,65 %
02.06.2016 08:23 13,8 C 93 % 1010,0 hPa 0,0 l/m 5,3 km/h (1 Bft) S-SW 192 0 min 0,000 mm 0,0 UV-I 33 W/m 12,7 C 13,8 C 6,4 km/h (2 Bft) 100,00 %
02.06.2016 08:24 13,8 C 94 % 1010,0 hPa 0,0 l/m 6,4 km/h (2 Bft) S-SW 192 0 min 0,000 mm 0,0 UV-I 35 W/m 12,9 C 13,8 C 11,3 km/h (2 Bft) 95,65 %
02.06.2016 08:25 13,8 C 94 % 1010,0 hPa 0,2 l/m 6,8 km/h (2 Bft) S-SW 196 0 min 0,000 mm 0,0 UV-I 36 W/m 12,9 C 13,6 C 8,0 km/h (2 Bft) 93,33 %
02.06.2016 08:26 13,7 C 94 % 1010,0 hPa 0,4 l/m 6,9 km/h (2 Bft) SW 225 0 min 0,000 mm 0,0 UV-I 37 W/m 12,8 C 13,4 C 9,7 km/h (2 Bft) 96,30 %
02.06.2016 08:27 13,7 C 94 % 1010,1 hPa 0,4 l/m 7,9 km/h (2 Bft) S-SW 200 0 min 0,000 mm 0,0 UV-I 37 W/m 12,8 C 12,8 C 9,7 km/h (2 Bft) 92,31 %
02.06.2016 08:28 13,7 C 94 % 1010,0 hPa 0,2 l/m 8,0 km/h (2 Bft) S 182 0 min 0,000 mm 0,0 UV-I 36 W/m 12,8 C 12,7 C 11,3 km/h (2 Bft) 100,00 %
02.06.2016 08:29 13,7 C 94 % 1010,0 hPa 0,2 l/m 7,8 km/h (2 Bft) SW 219 0 min 0,000 mm 0,0 UV-I 35 W/m 12,8 C 12,9 C 11,3 km/h (2 Bft) 91,67 %
02.06.2016 08:30 13,6 C 94 % 1010,1 hPa 0,2 l/m 5,4 km/h (1 Bft) S 171 0 min 0,000 mm 0,0 UV-I 33 W/m 12,7 C 13,6 C 9,7 km/h (2 Bft) 100,00 %
02.06.2016 08:31 13,6 C 94 % 1010,1 hPa 0,2 l/m 8,1 km/h (2 Bft) S 188 0 min 0,000 mm 0,0 UV-I 32 W/m 12,7 C 12,6 C 9,7 km/h (2 Bft) 95,65 %
02.06.2016 08:32 13,5 C 94 % 1010,1 hPa 0,0 l/m 6,9 km/h (2 Bft) S-SO 157 0 min 0,000 mm 0,0 UV-I 32 W/m 12,6 C 13,2 C 9,7 km/h (2 Bft) 100,00 %
02.06.2016 08:33 13,5 C 95 % 1010,1 hPa 0,0 l/m 5,7 km/h (1 Bft) S-SO 148 0 min 0,000 mm 0,0 UV-I 32 W/m 12,7 C 13,5 C 11,3 km/h (2 Bft) 91,30 %
02.06.2016 08:34 13,4 C 95 % 1010,1 hPa 0,0 l/m 6,1 km/h (2 Bft) S-SW 200 0 min 0,000 mm 0,0 UV-I 32 W/m 12,6 C 13,4 C 8,0 km/h (2 Bft) 100,00 %
02.06.2016 08:35 13,4 C 95 % 1010,1 hPa 0,2 l/m 6,1 km/h (2 Bft) SW 221 0 min 0,000 mm 0,0 UV-I 30 W/m 12,6 C 13,4 C 8,0 km/h (2 Bft) 95,65 %
02.06.2016 08:36 13,4 C 95 % 1010,1 hPa 0,0 l/m 5,5 km/h (1 Bft) SW 218 0 min 0,000 mm 0,0 UV-I 30 W/m 12,6 C 13,4 C 8,0 km/h (2 Bft) 95,83 %
02.06.2016 08:37 13,4 C 95 % 1010,1 hPa 0,0 l/m 4,1 km/h (1 Bft) SW 218 0 min 0,000 mm 0,0 UV-I 28 W/m 12,6 C 13,4 C 4,8 km/h (1 Bft) 100,00 %
02.06.2016 08:38 13,4 C 95 % 1010,2 hPa 0,0 l/m 3,8 km/h (1 Bft) S-SW 194 0 min 0,000 mm 0,0 UV-I 28 W/m 12,6 C 13,4 C 4,8 km/h (1 Bft) 95,83 %
02.06.2016 08:39 13,4 C 95 % 1010,1 hPa 0,0 l/m 4,8 km/h (1 Bft) S 184 0 min 0,000 mm 0,0 UV-I 28 W/m 12,6 C 13,4 C 8,0 km/h (2 Bft) 100,00 %
02.06.2016 08:40 13,4 C 95 % 1010,1 hPa 0,2 l/m 3,4 km/h (1 Bft) SW 218 0 min 0,000 mm 0,0 UV-I 29 W/m 12,6 C 13,4 C 6,4 km/h (2 Bft) 95,83 %
02.06.2016 08:41 13,4 C 95 % 1010,2 hPa 0,0 l/m 7,6 km/h (2 Bft) S-SW 206 0 min 0,000 mm 0,0 UV-I 30 W/m 12,6 C 12,7 C 12,9 km/h (3 Bft) 100,00 %
02.06.2016 08:42 13,3 C 95 % 1010,2 hPa 0,2 l/m 8,2 km/h (2 Bft) S 185 0 min 0,000 mm 0,0 UV-I 30 W/m 12,5 C 12,2 C 11,3 km/h (2 Bft) 91,67 %
02.06.2016 08:43 13,3 C 95 % 1010,2 hPa 0,2 l/m 5,8 km/h (2 Bft) S-SW 205 0 min 0,000 mm 0,0 UV-I 32 W/m 12,5 C 13,3 C 8,0 km/h (2 Bft) 100,00 %
02.06.2016 08:44 13,3 C 95 % 1010,2 hPa 0,0 l/m 7,1 km/h (2 Bft) S-SW 193 0 min 0,000 mm 0,0 UV-I 32 W/m 12,5 C 12,9 C 9,7 km/h (2 Bft) 100,00 %
02.06.2016 08:45 13,3 C 96 % 1010,2 hPa 0,0 l/m 4,4 km/h (1 Bft) S-SW 204 0 min 0,000 mm 0,0 UV-I 34 W/m 12,7 C 13,3 C 6,4 km/h (2 Bft) 100,00 %
02.06.2016 08:46 13,3 C 96 % 1010,2 hPa 0,0 l/m 10,1 km/h (2 Bft) S 188 0 min 0,000 mm 0,0 UV-I 36 W/m 12,7 C 11,2 C 12,9 km/h (3 Bft) 100,00 %
02.06.2016 08:47 13,3 C 96 % 1010,2 hPa 0,2 l/m 4,6 km/h (1 Bft) S 171 0 min 0,000 mm 0,0 UV-I 39 W/m 12,7 C 13,3 C 8,0 km/h (2 Bft) 100,00 %
02.06.2016 08:48 13,2 C 95 % 1010,2 hPa 0,0 l/m 5,2 km/h (1 Bft) S-SO 163 0 min 0,000 mm 0,0 UV-I 40 W/m 12,4 C 13,2 C 8,0 km/h (2 Bft) 95,65 %
02.06.2016 08:49 13,2 C 95 % 1010,2 hPa 0,2 l/m 7,7 km/h (2 Bft) S 191 0 min 0,000 mm 0,0 UV-I 41 W/m 12,4 C 12,4 C 9,7 km/h (2 Bft) 100,00 %
02.06.2016 08:50 13,2 C 95 % 1010,1 hPa 0,0 l/m 7,2 km/h (2 Bft) S-SW 213 0 min 0,000 mm 0,0 UV-I 42 W/m 12,4 C 12,7 C 9,7 km/h (2 Bft) 95,65 %
02.06.2016 08:51 13,2 C 96 % 1010,1 hPa 0,2 l/m 4,3 km/h (1 Bft) S 178 0 min 0,000 mm 0,0 UV-I 42 W/m 12,6 C 13,2 C 8,0 km/h (2 Bft) 95,83 %
02.06.2016 08:52 13,2 C 96 % 1010,2 hPa 0,2 l/m 4,4 km/h (1 Bft) S-SO 163 0 min 0,000 mm 0,0 UV-I 43 W/m 12,6 C 13,2 C 6,4 km/h (2 Bft) 100,00 %
02.06.2016 08:53 13,2 C 96 % 1010,2 hPa 0,0 l/m 5,2 km/h (1 Bft) S-SO 165 0 min 0,000 mm 0,0 UV-I 44 W/m 12,6 C 13,2 C 9,7 km/h (2 Bft) 100,00 %
02.06.2016 08:54 13,2 C 96 % 1010,1 hPa 0,0 l/m 6,5 km/h (2 Bft) S-SW 202 0 min 0,000 mm 0,0 UV-I 44 W/m 12,6 C 13,2 C 8,0 km/h (2 Bft) 95,65 %
02.06.2016 08:55 13,2 C 96 % 1010,2 hPa 0,0 l/m 6,0 km/h (2 Bft) S-SO 167 0 min 0,000 mm 0,0 UV-I 42 W/m 12,6 C 13,2 C 8,0 km/h (2 Bft) 100,00 %
02.06.2016 08:56 13,2 C 96 % 1010,2 hPa 0,0 l/m 5,6 km/h (1 Bft) SW 215 0 min 0,000 mm 0,0 UV-I 41 W/m 12,6 C 13,2 C 8,0 km/h (2 Bft) 100,00 %
02.06.2016 08:57 13,2 C 96 % 1010,2 hPa 0,2 l/m 8,3 km/h (2 Bft) S-SW 197 0 min 0,000 mm 0,0 UV-I 40 W/m 12,6 C 12,0 C 11,3 km/h (2 Bft) 100,00 %
02.06.2016 08:58 13,2 C 96 % 1010,2 hPa 0,0 l/m 5,3 km/h (1 Bft) SW 218 0 min 0,000 mm 0,0 UV-I 39 W/m 12,6 C 13,2 C 9,7 km/h (2 Bft) 100,00 %
02.06.2016 08:59 13,1 C 96 % 1010,2 hPa 0,0 l/m 3,8 km/h (1 Bft) S 180 0 min 0,000 mm 0,0 UV-I 40 W/m 12,5 C 13,1 C 8,0 km/h (2 Bft) 100,00 %
02.06.2016 09:00 13,2 C 96 % 1010,2 hPa 0,0 l/m 3,8 km/h (1 Bft) S 180 0 min 0,000 mm 0,0 UV-I 40 W/m 12,6 C 13,2 C 4,8 km/h (1 Bft) 100,00 %
02.06.2016 09:01 13,2 C 96 % 1010,2 hPa 0,0 l/m 3,1 km/h (1 Bft) S 184 0 min 0,025 mm 0,0 UV-I 42 W/m 12,6 C 13,2 C 3,2 km/h (1 Bft) 100,00 %
02.06.2016 09:02 13,2 C 96 % 1010,1 hPa 0,0 l/m 3,1 km/h (1 Bft) S 186 0 min 0,000 mm 0,0 UV-I 42 W/m 12,6 C 13,2 C 4,8 km/h (1 Bft) 100,00 %
02.06.2016 09:03 13,2 C 96 % 1010,1 hPa 0,0 l/m 4,0 km/h (1 Bft) S-SW 196 0 min 0,000 mm 0,0 UV-I 42 W/m 12,6 C 13,2 C 6,4 km/h (2 Bft) 100,00 %
02.06.2016 09:04 13,2 C 96 % 1010,2 hPa 0,0 l/m 3,4 km/h (1 Bft) S 173 0 min 0,000 mm 0,0 UV-I 42 W/m 12,6 C 13,2 C 8,0 km/h (2 Bft) 100,00 %
02.06.2016 09:05 13,2 C 96 % 1010,2 hPa 0,0 l/m 2,0 km/h (1 Bft) S 173 0 min 0,000 mm 0,0 UV-I 42 W/m 12,6 C 13,2 C 3,2 km/h (1 Bft) 100,00 %
02.06.2016 09:06 13,2 C 96 % 1010,2 hPa 0,0 l/m 3,6 km/h (1 Bft) S-SW 212 0 min 0,000 mm 0,0 UV-I 42 W/m 12,6 C 13,2 C 4,8 km/h (1 Bft) 100,00 %
02.06.2016 09:07 13,2 C 96 % 1010,2 hPa 0,0 l/m 3,6 km/h (1 Bft) SW 223 0 min 0,000 mm 0,0 UV-I 43 W/m 12,6 C 13,2 C 4,8 km/h (1 Bft) 100,00 %
02.06.2016 09:08 13,2 C 96 % 1010,2 hPa 0,0 l/m 4,2 km/h (1 Bft) SW 225 0 min 0,000 mm 0,0 UV-I 44 W/m 12,6 C 13,2 C 4,8 km/h (1 Bft) 100,00 %
02.06.2016 09:09 13,2 C 96 % 1010,2 hPa 0,0 l/m 4,8 km/h (1 Bft) W-SW 252 0 min 0,000 mm 0,0 UV-I 45 W/m 12,6 C 13,2 C 8,0 km/h (2 Bft) 100,00 %
02.06.2016 09:10 13,2 C 96 % 1010,2 hPa 0,0 l/m 5,5 km/h (1 Bft) SW 236 0 min 0,000 mm 0,0 UV-I 46 W/m 12,6 C 13,2 C 9,7 km/h (2 Bft) 100,00 %
02.06.2016 09:11 13,2 C 96 % 1010,2 hPa 0,0 l/m 6,1 km/h (2 Bft) S-SW 213 0 min 0,000 mm 0,0 UV-I 44 W/m 12,6 C 13,2 C 8,0 km/h (2 Bft) 100,00 %
02.06.2016 09:12 13,2 C 96 % 1010,2 hPa 0,0 l/m 5,9 km/h (2 Bft) SW 233 0 min 0,000 mm 0,0 UV-I 44 W/m 12,6 C 13,2 C 9,7 km/h (2 Bft) 100,00 %
02.06.2016 09:13 13,2 C 96 % 1010,2 hPa 0,0 l/m 5,4 km/h (1 Bft) S-SW 208 0 min 0,000 mm 0,0 UV-I 42 W/m 12,6 C 13,2 C 8,0 km/h (2 Bft) 100,00 %
02.06.2016 09:14 13,2 C 96 % 1010,2 hPa 0,0 l/m 4,1 km/h (1 Bft) SW 229 0 min 0,000 mm 0,0 UV-I 42 W/m 12,6 C 13,2 C 4,8 km/h (1 Bft) 100,00 %
02.06.2016 09:15 13,2 C 96 % 1010,2 hPa 0,0 l/m 2,9 km/h (1 Bft) SW 230 0 min 0,000 mm 0,0 UV-I 42 W/m 12,6 C 13,2 C 4,8 km/h (1 Bft) 100,00 %
02.06.2016 09:16 13,2 C 96 % 1010,2 hPa 0,0 l/m 4,6 km/h (1 Bft) S 175 0 min 0,000 mm 0,0 UV-I 42 W/m 12,6 C 13,2 C 6,4 km/h (2 Bft) 100,00 %
02.06.2016 09:17 13,2 C 96 % 1010,2 hPa 0,0 l/m 4,8 km/h (1 Bft) S-SW 207 0 min 0,000 mm 0,0 UV-I 42 W/m 12,6 C 13,2 C 6,4 km/h (2 Bft) 100,00 %
02.06.2016 09:18 13,2 C 96 % 1010,2 hPa 0,0 l/m 5,0 km/h (1 Bft) SW 236 0 min 0,000 mm 0,0 UV-I 44 W/m 12,6 C 13,2 C 6,4 km/h (2 Bft) 100,00 %
02.06.2016 09:19 13,2 C 96 % 1010,2 hPa 0,0 l/m 3,9 km/h (1 Bft) SW 225 0 min 0,000 mm 0,0 UV-I 45 W/m 12,6 C 13,2 C 4,8 km/h (1 Bft) 100,00 %
02.06.2016 09:20 13,2 C 96 % 1010,2 hPa 0,0 l/m 4,3 km/h (1 Bft) S-SW 213 0 min 0,000 mm 0,0 UV-I 47 W/m 12,6 C 13,2 C 8,0 km/h (2 Bft) 91,67 %
02.06.2016 09:21 13,2 C 96 % 1010,2 hPa 0,2 l/m 5,0 km/h (1 Bft) S-SW 200 0 min 0,000 mm 0,0 UV-I 48 W/m 12,6 C 13,2 C 8,0 km/h (2 Bft) 95,83 %
02.06.2016 09:22 13,2 C 96 % 1010,2 hPa 0,0 l/m 9,3 km/h (2 Bft) S 188 0 min 0,000 mm 0,0 UV-I 49 W/m 12,6 C 11,5 C 12,9 km/h (3 Bft) 100,00 %
02.06.2016 09:23 13,2 C 96 % 1010,2 hPa 0,4 l/m 6,9 km/h (2 Bft) S-SW 205 0 min 0,000 mm 0,0 UV-I 49 W/m 12,6 C 12,9 C 9,7 km/h (2 Bft) 100,00 %
02.06.2016 09:24 13,2 C 96 % 1010,2 hPa 0,0 l/m 9,4 km/h (2 Bft) SW 219 0 min 0,000 mm 0,0 UV-I 47 W/m 12,6 C 11,4 C 14,5 km/h (3 Bft) 96,15 %
02.06.2016 09:25 13,2 C 96 % 1010,2 hPa 0,2 l/m 8,6 km/h (2 Bft) W-SW 241 0 min 0,000 mm 0,0 UV-I 46 W/m 12,6 C 11,9 C 11,3 km/h (2 Bft) 100,00 %
02.06.2016 09:26 13,2 C 96 % 1010,3 hPa 0,2 l/m 6,8 km/h (2 Bft) S-SW 192 0 min 0,000 mm 0,0 UV-I 45 W/m 12,6 C 13,0 C 11,3 km/h (2 Bft) 100,00 %
02.06.2016 09:27 13,2 C 96 % 1010,2 hPa 0,2 l/m 11,7 km/h (2 Bft) S 188 0 min 0,000 mm 0,0 UV-I 43 W/m 12,6 C 10,3 C 17,7 km/h (3 Bft) 93,33 %
02.06.2016 09:28 13,2 C 96 % 1010,2 hPa 0,0 l/m 8,9 km/h (2 Bft) S 186 0 min 0,000 mm 0,0 UV-I 42 W/m 12,6 C 11,7 C 14,5 km/h (3 Bft) 96,55 %
02.06.2016 09:29 13,2 C 96 % 1010,2 hPa 0,2 l/m 13,1 km/h (3 Bft) S-SW 204 0 min 0,000 mm 0,0 UV-I 40 W/m 12,6 C 9,7 C 16,1 km/h (3 Bft) 100,00 %
02.06.2016 09:30 13,2 C 96 % 1010,2 hPa 0,2 l/m 11,2 km/h (2 Bft) S-SW 202 0 min 0,000 mm 0,0 UV-I 40 W/m 12,6 C 10,6 C 17,7 km/h (3 Bft) 100,00 %
02.06.2016 09:31 13,2 C 96 % 1010,2 hPa 0,2 l/m 9,7 km/h (2 Bft) SW 232 0 min 0,000 mm 0,0 UV-I 39 W/m 12,6 C 11,3 C 17,7 km/h (3 Bft) 100,00 %
02.06.2016 09:32 13,2 C 96 % 1010,2 hPa 0,2 l/m 12,1 km/h (2 Bft) SW 219 0 min 0,000 mm 0,0 UV-I 38 W/m 12,6 C 10,2 C 16,1 km/h (3 Bft) 100,00 %
02.06.2016 09:33 13,2 C 96 % 1010,2 hPa 0,2 l/m 8,4 km/h (2 Bft) S 178 0 min 0,000 mm 0,0 UV-I 37 W/m 12,6 C 12,0 C 12,9 km/h (3 Bft) 100,00 %
02.06.2016 09:34 13,2 C 96 % 1010,2 hPa 0,0 l/m 8,3 km/h (2 Bft) S-SW 196 0 min 0,000 mm 0,0 UV-I 37 W/m 12,6 C 12,0 C 12,9 km/h (3 Bft) 100,00 %
02.06.2016 09:35 13,2 C 96 % 1010,2 hPa 0,0 l/m 10,8 km/h (2 Bft) SO 138 0 min 0,000 mm 0,0 UV-I 37 W/m 12,6 C 10,7 C 16,1 km/h (3 Bft) 100,00 %
02.06.2016 09:36 13,2 C 96 % 1010,2 hPa 0,2 l/m 9,1 km/h (2 Bft) S 186 0 min 0,000 mm 0,0 UV-I 35 W/m 12,6 C 11,6 C 12,9 km/h (3 Bft) 100,00 %
02.06.2016 09:37 13,2 C 96 % 1010,2 hPa 0,0 l/m 6,4 km/h (2 Bft) S-SW 200 0 min 0,000 mm 0,0 UV-I 35 W/m 12,6 C 13,2 C 9,7 km/h (2 Bft) 100,00 %
02.06.2016 09:38 13,2 C 96 % 1010,2 hPa 0,0 l/m 8,8 km/h (2 Bft) SW 222 0 min 0,000 mm 0,0 UV-I 35 W/m 12,6 C 11,8 C 14,5 km/h (3 Bft) 100,00 %
02.06.2016 09:39 13,2 C 96 % 1010,2 hPa 0,2 l/m 6,9 km/h (2 Bft) S-SW 199 0 min 0,000 mm 0,0 UV-I 35 W/m 12,6 C 12,9 C 9,7 km/h (2 Bft) 100,00 %
02.06.2016 09:40 13,2 C 96 % 1010,2 hPa 0,0 l/m 5,7 km/h (1 Bft) S 189 0 min 0,000 mm 0,0 UV-I 35 W/m 12,6 C 13,2 C 8,0 km/h (2 Bft) 100,00 %
02.06.2016 09:41 13,2 C 96 % 1010,3 hPa 0,0 l/m 8,1 km/h (2 Bft) S-SO 165 0 min 0,000 mm 0,0 UV-I 33 W/m 12,6 C 12,2 C 12,9 km/h (3 Bft) 100,00 %
02.06.2016 09:42 13,2 C 96 % 1010,3 hPa 0,2 l/m 7,5 km/h (2 Bft) SW 216 0 min 0,000 mm 0,0 UV-I 33 W/m 12,6 C 12,5 C 11,3 km/h (2 Bft) 100,00 %
02.06.2016 09:43 13,2 C 96 % 1010,2 hPa 0,2 l/m 10,9 km/h (2 Bft) S-SW 194 0 min 0,000 mm 0,0 UV-I 34 W/m 12,6 C 10,7 C 14,5 km/h (3 Bft) 100,00 %
02.06.2016 09:44 13,2 C 96 % 1010,2 hPa 0,0 l/m 9,0 km/h (2 Bft) SW 215 0 min 0,000 mm 0,0 UV-I 35 W/m 12,6 C 11,6 C 11,3 km/h (2 Bft) 100,00 %
02.06.2016 09:45 13,2 C 96 % 1010,2 hPa 0,2 l/m 7,0 km/h (2 Bft) S 173 0 min 0,000 mm 0,0 UV-I 35 W/m 12,6 C 12,8 C 9,7 km/h (2 Bft) 100,00 %
02.06.2016 09:46 13,2 C 96 % 1010,2 hPa 0,0 l/m 5,7 km/h (1 Bft) S-SO 159 0 min 0,000 mm 0,0 UV-I 35 W/m 12,6 C 13,2 C 9,7 km/h (2 Bft) 100,00 %
02.06.2016 09:47 13,2 C 96 % 1010,2 hPa 0,2 l/m 8,1 km/h (2 Bft) S 176 0 min 0,000 mm 0,0 UV-I 35 W/m 12,6 C 12,2 C 12,9 km/h (3 Bft) 100,00 %
02.06.2016 09:48 13,2 C 96 % 1010,3 hPa 0,0 l/m 8,1 km/h (2 Bft) S-SW 196 0 min 0,000 mm 0,0 UV-I 33 W/m 12,6 C 12,2 C 11,3 km/h (2 Bft) 100,00 %
02.06.2016 09:49 13,2 C 96 % 1010,3 hPa 0,0 l/m 7,1 km/h (2 Bft) S-SO 166 0 min 0,000 mm 0,0 UV-I 33 W/m 12,6 C 12,8 C 14,5 km/h (3 Bft) 100,00 %
02.06.2016 09:50 13,2 C 96 % 1010,2 hPa 0,2 l/m 10,1 km/h (2 Bft) SW 236 0 min 0,000 mm 0,0 UV-I 33 W/m 12,6 C 11,1 C 14,5 km/h (3 Bft) 100,00 %
02.06.2016 09:51 13,1 C 96 % 1010,3 hPa 0,0 l/m 7,6 km/h (2 Bft) S 185 0 min 0,000 mm 0,0 UV-I 33 W/m 12,5 C 12,3 C 11,3 km/h (2 Bft) 100,00 %
02.06.2016 09:52 13,1 C 96 % 1010,3 hPa 0,0 l/m 6,2 km/h (2 Bft) S-SO 167 0 min 0,000 mm 0,0 UV-I 33 W/m 12,5 C 13,1 C 8,0 km/h (2 Bft) 100,00 %
02.06.2016 09:53 13,1 C 96 % 1010,3 hPa 0,0 l/m 6,6 km/h (2 Bft) SW 227 0 min 0,000 mm 0,0 UV-I 33 W/m 12,5 C 13,0 C 11,3 km/h (2 Bft) 100,00 %
02.06.2016 09:54 13,1 C 96 % 1010,3 hPa 0,0 l/m 5,6 km/h (1 Bft) S 171 0 min 0,000 mm 0,0 UV-I 34 W/m 12,5 C 13,1 C 11,3 km/h (2 Bft) 100,00 %
02.06.2016 09:55 13,1 C 96 % 1010,3 hPa 0,0 l/m 7,8 km/h (2 Bft) S 189 0 min 0,000 mm 0,0 UV-I 35 W/m 12,5 C 12,2 C 14,5 km/h (3 Bft) 100,00 %
02.06.2016 09:56 13,1 C 96 % 1010,3 hPa 0,0 l/m 8,5 km/h (2 Bft) S-SW 194 0 min 0,000 mm 0,0 UV-I 35 W/m 12,5 C 11,8 C 11,3 km/h (2 Bft) 95,83 %
02.06.2016 09:57 13,1 C 96 % 1010,4 hPa 0,0 l/m 9,2 km/h (2 Bft) SW 216 0 min 0,000 mm 0,0 UV-I 35 W/m 12,5 C 11,4 C 12,9 km/h (3 Bft) 100,00 %
02.06.2016 09:58 13,1 C 96 % 1010,4 hPa 0,0 l/m 7,4 km/h (2 Bft) SW 217 0 min 0,000 mm 0,0 UV-I 35 W/m 12,5 C 12,5 C 11,3 km/h (2 Bft) 100,00 %
02.06.2016 09:59 13,1 C 96 % 1010,4 hPa 0,0 l/m 6,5 km/h (2 Bft) S-SW 205 0 min 0,000 mm 0,0 UV-I 38 W/m 12,5 C 13,1 C 8,0 km/h (2 Bft) 100,00 %
02.06.2016 10:00 13,1 C 96 % 1010,4 hPa 0,0 l/m 7,8 km/h (2 Bft) S-SW 196 0 min 0,026 mm 0,0 UV-I 41 W/m 12,5 C 12,2 C 11,3 km/h (2 Bft) 100,00 %
02.06.2016 10:01 13,1 C 96 % 1010,4 hPa 0,2 l/m 5,1 km/h (1 Bft) S 176 0 min 0,000 mm 0,0 UV-I 44 W/m 12,5 C 13,1 C 6,4 km/h (2 Bft) 100,00 %
02.06.2016 10:02 13,1 C 96 % 1010,4 hPa 0,0 l/m 7,1 km/h (2 Bft) S 184 0 min 0,000 mm 0,0 UV-I 47 W/m 12,5 C 12,7 C 9,7 km/h (2 Bft) 95,83 %
02.06.2016 10:03 13,1 C 96 % 1010,4 hPa 0,0 l/m 7,5 km/h (2 Bft) S-SO 165 0 min 0,000 mm 0,0 UV-I 47 W/m 12,5 C 12,4 C 12,9 km/h (3 Bft) 100,00 %
02.06.2016 10:04 13,1 C 96 % 1010,4 hPa 0,0 l/m 6,3 km/h (2 Bft) S 188 0 min 0,000 mm 0,0 UV-I 49 W/m 12,5 C 13,1 C 11,3 km/h (2 Bft) 100,00 %
02.06.2016 10:05 13,1 C 96 % 1010,4 hPa 0,0 l/m 6,0 km/h (2 Bft) S-SW 196 0 min 0,000 mm 0,0 UV-I 50 W/m 12,5 C 13,1 C 8,0 km/h (2 Bft) 100,00 %
02.06.2016 10:06 13,2 C 96 % 1010,4 hPa 0,0 l/m 5,8 km/h (2 Bft) S-SW 194 0 min 0,000 mm 0,0 UV-I 51 W/m 12,6 C 13,2 C 9,7 km/h (2 Bft) 100,00 %
02.06.2016 10:07 13,2 C 96 % 1010,4 hPa 0,2 l/m 5,4 km/h (1 Bft) S 180 0 min 0,000 mm 0,0 UV-I 51 W/m 12,6 C 13,2 C 8,0 km/h (2 Bft) 91,30 %
02.06.2016 10:08 13,2 C 96 % 1010,4 hPa 0,0 l/m 4,7 km/h (1 Bft) S 186 0 min 0,000 mm 0,0 UV-I 51 W/m 12,6 C 13,2 C 9,7 km/h (2 Bft) 93,33 %
02.06.2016 10:09 13,2 C 96 % 1010,4 hPa 0,0 l/m 5,7 km/h (1 Bft) S-SW 196 0 min 0,000 mm 0,0 UV-I 51 W/m 12,6 C 13,2 C 8,0 km/h (2 Bft) 100,00 %
02.06.2016 10:10 13,2 C 96 % 1010,4 hPa 0,0 l/m 4,3 km/h (1 Bft) S 189 0 min 0,000 mm 0,0 UV-I 51 W/m 12,6 C 13,2 C 6,4 km/h (2 Bft) 95,65 %
02.06.2016 10:11 13,2 C 96 % 1010,4 hPa 0,0 l/m 4,5 km/h (1 Bft) S 190 0 min 0,000 mm 0,0 UV-I 50 W/m 12,6 C 13,2 C 6,4 km/h (2 Bft) 100,00 %
02.06.2016 10:12 13,2 C 96 % 1010,4 hPa 0,2 l/m 4,4 km/h (1 Bft) S 176 0 min 0,000 mm 0,0 UV-I 49 W/m 12,6 C 13,2 C 6,4 km/h (2 Bft) 95,65 %
02.06.2016 10:13 13,2 C 96 % 1010,4 hPa 0,0 l/m 4,2 km/h (1 Bft) S 179 0 min 0,000 mm 0,0 UV-I 49 W/m 12,6 C 13,2 C 8,0 km/h (2 Bft) 95,83 %
02.06.2016 10:14 13,2 C 96 % 1010,4 hPa 0,0 l/m 3,8 km/h (1 Bft) S-SO 163 0 min 0,000 mm 0,0 UV-I 49 W/m 12,6 C 13,2 C 6,4 km/h (2 Bft) 100,00 %
02.06.2016 10:15 13,2 C 96 % 1010,4 hPa 0,2 l/m 3,5 km/h (1 Bft) S-SO 160 0 min 0,000 mm 0,0 UV-I 47 W/m 12,6 C 13,2 C 6,4 km/h (2 Bft) 95,83 %
02.06.2016 10:16 13,2 C 96 % 1010,4 hPa 0,0 l/m 2,5 km/h (1 Bft) S-SO 163 0 min 0,000 mm 0,0 UV-I 47 W/m 12,6 C 13,2 C 6,4 km/h (2 Bft) 100,00 %
02.06.2016 10:17 13,2 C 96 % 1010,4 hPa 0,2 l/m 3,4 km/h (1 Bft) S 186 0 min 0,000 mm 0,0 UV-I 47 W/m 12,6 C 13,2 C 6,4 km/h (2 Bft) 95,83 %
02.06.2016 10:18 13,2 C 96 % 1010,5 hPa 0,0 l/m 3,7 km/h (1 Bft) S 176 0 min 0,000 mm 0,0 UV-I 47 W/m 12,6 C 13,2 C 6,4 km/h (2 Bft) 100,00 %
02.06.2016 10:19 13,2 C 96 % 1010,5 hPa 0,2 l/m 4,1 km/h (1 Bft) S 173 0 min 0,000 mm 0,0 UV-I 46 W/m 12,6 C 13,2 C 4,8 km/h (1 Bft) 95,83 %
02.06.2016 10:20 13,2 C 96 % 1010,5 hPa 0,2 l/m 3,7 km/h (1 Bft) S 177 0 min 0,000 mm 0,0 UV-I 46 W/m 12,6 C 13,2 C 4,8 km/h (1 Bft) 100,00 %
02.06.2016 10:21 13,2 C 96 % 1010,5 hPa 0,2 l/m 2,4 km/h (1 Bft) S 177 0 min 0,000 mm 0,0 UV-I 47 W/m 12,6 C 13,2 C 3,2 km/h (1 Bft) 96,15 %
02.06.2016 10:22 13,2 C 96 % 1010,5 hPa 0,2 l/m 2,3 km/h (1 Bft) S 177 0 min 0,000 mm 0,0 UV-I 47 W/m 12,6 C 13,2 C 3,2 km/h (1 Bft) 100,00 %
02.06.2016 10:23 13,2 C 96 % 1010,5 hPa 0,2 l/m 1,6 km/h (1 Bft) S 177 0 min 0,000 mm 0,0 UV-I 49 W/m 12,6 C 13,2 C 4,8 km/h (1 Bft) 95,65 %
02.06.2016 10:24 13,2 C 96 % 1010,5 hPa 0,0 l/m 1,3 km/h (1 Bft) S 177 0 min 0,000 mm 0,0 UV-I 50 W/m 12,6 C 13,2 C 4,8 km/h (1 Bft) 95,83 %
02.06.2016 10:25 13,3 C 96 % 1010,5 hPa 0,2 l/m 0,5 km/h (0 Bft) S 177 0 min 0,000 mm 0,0 UV-I 52 W/m 12,7 C 13,3 C 1,6 km/h (1 Bft) 95,65 %
02.06.2016 10:26 13,3 C 96 % 1010,6 hPa 0,0 l/m 1,1 km/h (1 Bft) S 177 0 min 0,000 mm 0,0 UV-I 53 W/m 12,7 C 13,3 C 1,6 km/h (1 Bft) 95,83 %
02.06.2016 10:27 13,2 C 96 % 1010,5 hPa 0,0 l/m 3,0 km/h (1 Bft) S-SO 152 0 min 0,000 mm 0,0 UV-I 54 W/m 12,6 C 13,2 C 6,4 km/h (2 Bft) 95,65 %
02.06.2016 10:28 13,2 C 96 % 1010,5 hPa 0,0 l/m 2,2 km/h (1 Bft) S-SO 154 0 min 0,000 mm 0,0 UV-I 62 W/m 12,6 C 13,2 C 3,2 km/h (1 Bft) 95,83 %
02.06.2016 10:29 13,2 C 96 % 1010,6 hPa 0,0 l/m 1,9 km/h (1 Bft) S-SO 154 0 min 0,000 mm 0,0 UV-I 64 W/m 12,6 C 13,2 C 3,2 km/h (1 Bft) 100,00 %
02.06.2016 10:30 13,2 C 96 % 1010,5 hPa 0,0 l/m 0,7 km/h (0 Bft) S-SO 154 0 min 0,000 mm 0,2 UV-I 69 W/m 12,6 C 13,2 C 3,2 km/h (1 Bft) 95,83 %
02.06.2016 10:31 13,3 C 96 % 1010,5 hPa 0,2 l/m 1,1 km/h (1 Bft) S-SO 154 0 min 0,000 mm 0,5 UV-I 74 W/m 12,7 C 13,3 C 3,2 km/h (1 Bft) 100,00 %
02.06.2016 10:32 13,3 C 96 % 1010,5 hPa 0,0 l/m 1,8 km/h (1 Bft) S-SO 154 0 min 0,000 mm 0,5 UV-I 78 W/m 12,7 C 13,3 C 3,2 km/h (1 Bft) 95,83 %
02.06.2016 10:33 13,3 C 96 % 1010,5 hPa 0,0 l/m 1,3 km/h (1 Bft) S-SO 154 0 min 0,000 mm 0,6 UV-I 84 W/m 12,7 C 13,3 C 3,2 km/h (1 Bft) 95,65 %
02.06.2016 10:34 13,3 C 96 % 1010,5 hPa 0,0 l/m 0,7 km/h (0 Bft) S-SO 154 0 min 0,000 mm 0,6 UV-I 93 W/m 12,7 C 13,3 C 1,6 km/h (1 Bft) 100,00 %
02.06.2016 10:35 13,4 C 96 % 1010,5 hPa 0,0 l/m 0,3 km/h (0 Bft) S-SO 154 0 min 0,000 mm 0,7 UV-I 100 W/m 12,8 C 13,4 C 1,6 km/h (1 Bft) 95,65 %
02.06.2016 10:36 13,4 C 97 % 1010,4 hPa 0,0 l/m 1,5 km/h (1 Bft) S-SO 154 0 min 0,000 mm 0,8 UV-I 108 W/m 12,9 C 13,4 C 3,2 km/h (1 Bft) 95,83 %
02.06.2016 10:37 13,4 C 97 % 1010,5 hPa 0,0 l/m 4,5 km/h (1 Bft) SO 132 0 min 0,000 mm 0,9 UV-I 114 W/m 12,9 C 13,4 C 4,8 km/h (1 Bft) 96,15 %
02.06.2016 10:38 13,4 C 96 % 1010,5 hPa 0,0 l/m 3,8 km/h (1 Bft) SO 132 0 min 0,000 mm 0,9 UV-I 122 W/m 12,8 C 13,4 C 4,8 km/h (1 Bft) 91,67 %
02.06.2016 10:39 13,4 C 96 % 1010,5 hPa 0,0 l/m 2,4 km/h (1 Bft) S-SO 150 0 min 0,000 mm 1,0 UV-I 131 W/m 12,8 C 13,4 C 4,8 km/h (1 Bft) 100,00 %
02.06.2016 10:40 13,4 C 96 % 1010,5 hPa 0,0 l/m 2,0 km/h (1 Bft) S-SO 150 0 min 0,000 mm 1,0 UV-I 138 W/m 12,8 C 13,4 C 3,2 km/h (1 Bft) 91,67 %
02.06.2016 10:41 13,4 C 96 % 1010,5 hPa 0,0 l/m 3,0 km/h (1 Bft) SO 136 0 min 0,000 mm 1,1 UV-I 144 W/m 12,8 C 13,4 C 4,8 km/h (1 Bft) 100,00 %
02.06.2016 10:42 13,4 C 97 % 1010,5 hPa 0,0 l/m 1,6 km/h (1 Bft) SO 143 0 min 0,000 mm 1,1 UV-I 151 W/m 12,9 C 13,4 C 3,2 km/h (1 Bft) 100,00 %
02.06.2016 10:43 13,5 C 97 % 1010,4 hPa 0,0 l/m 2,3 km/h (1 Bft) SO 143 0 min 0,000 mm 1,1 UV-I 156 W/m 13,0 C 13,5 C 4,8 km/h (1 Bft) 100,00 %
02.06.2016 10:44 13,5 C 97 % 1010,4 hPa 0,0 l/m 1,5 km/h (1 Bft) SO 143 0 min 0,000 mm 1,2 UV-I 161 W/m 13,0 C 13,5 C 3,2 km/h (1 Bft) 100,00 %
02.06.2016 10:45 13,6 C 97 % 1010,4 hPa 0,0 l/m 1,2 km/h (1 Bft) SO 143 0 min 0,000 mm 1,2 UV-I 163 W/m 13,1 C 13,6 C 3,2 km/h (1 Bft) 100,00 %
02.06.2016 10:46 13,6 C 97 % 1010,4 hPa 0,0 l/m 1,7 km/h (1 Bft) SO 143 0 min 0,000 mm 1,2 UV-I 166 W/m 13,1 C 13,6 C 3,2 km/h (1 Bft) 100,00 %
02.06.2016 10:47 13,6 C 96 % 1010,4 hPa 0,0 l/m 4,1 km/h (1 Bft) S 172 0 min 0,000 mm 1,2 UV-I 166 W/m 13,0 C 13,6 C 6,4 km/h (2 Bft) 100,00 %
02.06.2016 10:48 13,7 C 96 % 1010,4 hPa 0,0 l/m 1,9 km/h (1 Bft) S 172 0 min 0,000 mm 1,2 UV-I 165 W/m 13,1 C 13,7 C 6,4 km/h (2 Bft) 91,30 %
02.06.2016 10:49 13,7 C 96 % 1010,4 hPa 0,0 l/m 3,3 km/h (1 Bft) S-SO 148 0 min 0,000 mm 1,2 UV-I 164 W/m 13,1 C 13,7 C 6,4 km/h (2 Bft) 100,00 %
02.06.2016 10:50 13,7 C 96 % 1010,4 hPa 0,0 l/m 2,2 km/h (1 Bft) S-SO 150 0 min 0,000 mm 1,2 UV-I 162 W/m 13,1 C 13,7 C 3,2 km/h (1 Bft) 100,00 %
02.06.2016 10:51 13,7 C 96 % 1010,4 hPa 0,0 l/m 3,6 km/h (1 Bft) S-SO 158 0 min 0,000 mm 1,2 UV-I 162 W/m 13,1 C 13,7 C 6,4 km/h (2 Bft) 100,00 %
02.06.2016 10:52 13,7 C 96 % 1010,4 hPa 0,2 l/m 6,0 km/h (2 Bft) S 183 0 min 0,000 mm 1,2 UV-I 163 W/m 13,1 C 13,7 C 9,7 km/h (2 Bft) 100,00 %
02.06.2016 10:53 13,7 C 96 % 1010,4 hPa 0,0 l/m 6,4 km/h (2 Bft) S-SO 167 0 min 0,000 mm 1,2 UV-I 166 W/m 13,1 C 13,7 C 8,0 km/h (2 Bft) 100,00 %
02.06.2016 10:54 13,7 C 96 % 1010,4 hPa 0,2 l/m 3,8 km/h (1 Bft) S 174 0 min 0,000 mm 1,2 UV-I 168 W/m 13,1 C 13,7 C 6,4 km/h (2 Bft) 100,00 %
02.06.2016 10:55 13,7 C 96 % 1010,4 hPa 0,0 l/m 3,5 km/h (1 Bft) S 174 0 min 0,000 mm 1,2 UV-I 171 W/m 13,1 C 13,7 C 8,0 km/h (2 Bft) 100,00 %
02.06.2016 10:56 13,8 C 96 % 1010,4 hPa 0,0 l/m 2,7 km/h (1 Bft) S-SO 158 0 min 0,000 mm 1,3 UV-I 176 W/m 13,2 C 13,8 C 4,8 km/h (1 Bft) 95,65 %
02.06.2016 10:57 13,8 C 96 % 1010,4 hPa 0,0 l/m 2,7 km/h (1 Bft) S 180 0 min 0,000 mm 1,3 UV-I 180 W/m 13,2 C 13,8 C 4,8 km/h (1 Bft) 100,00 %
02.06.2016 10:58 13,7 C 96 % 1010,4 hPa 0,0 l/m 3,8 km/h (1 Bft) S-SO 167 0 min 0,000 mm 1,4 UV-I 187 W/m 13,1 C 13,7 C 8,0 km/h (2 Bft) 96,15 %
02.06.2016 10:59 13,8 C 96 % 1010,4 hPa 0,0 l/m 6,5 km/h (2 Bft) SO 144 0 min 0,000 mm 1,4 UV-I 195 W/m 13,2 C 13,8 C 8,0 km/h (2 Bft) 100,00 %
02.06.2016 11:00 13,9 C 96 % 1010,4 hPa 0,0 l/m 3,3 km/h (1 Bft) S 181 0 min 0,050 mm 1,5 UV-I 203 W/m 13,3 C 13,9 C 6,4 km/h (2 Bft) 100,00 %
02.06.2016 11:01 13,9 C 96 % 1010,4 hPa 0,0 l/m 4,1 km/h (1 Bft) S 173 0 min 0,000 mm 1,6 UV-I 211 W/m 13,3 C 13,9 C 8,0 km/h (2 Bft) 91,67 %
02.06.2016 11:02 13,9 C 96 % 1010,3 hPa 0,0 l/m 4,4 km/h (1 Bft) S 188 0 min 0,000 mm 1,7 UV-I 218 W/m 13,3 C 13,9 C 6,4 km/h (2 Bft) 100,00 %
02.06.2016 11:03 13,9 C 96 % 1010,3 hPa 0,0 l/m 2,7 km/h (1 Bft) S 172 0 min 0,000 mm 1,7 UV-I 226 W/m 13,3 C 13,9 C 4,8 km/h (1 Bft) 100,00 %
02.06.2016 11:04 14,0 C 96 % 1010,4 hPa 0,0 l/m 3,8 km/h (1 Bft) S 178 0 min 0,000 mm 1,7 UV-I 233 W/m 13,4 C 14,0 C 8,0 km/h (2 Bft) 100,00 %
02.06.2016 11:05 14,1 C 96 % 1010,4 hPa 0,0 l/m 4,6 km/h (1 Bft) S 183 0 min 0,000 mm 1,8 UV-I 240 W/m 13,5 C 14,1 C 6,4 km/h (2 Bft) 100,00 %
02.06.2016 11:06 14,1 C 96 % 1010,4 hPa 0,0 l/m 5,0 km/h (1 Bft) S-SO 153 0 min 0,000 mm 1,9 UV-I 249 W/m 13,5 C 14,1 C 8,0 km/h (2 Bft) 100,00 %
02.06.2016 11:07 14,2 C 96 % 1010,4 hPa 0,0 l/m 4,5 km/h (1 Bft) S-SW 194 0 min 0,000 mm 1,9 UV-I 254 W/m 13,6 C 14,2 C 9,7 km/h (2 Bft) 100,00 %
02.06.2016 11:08 14,2 C 96 % 1010,4 hPa 0,0 l/m 6,3 km/h (2 Bft) S-SW 192 0 min 0,000 mm 2,0 UV-I 263 W/m 13,6 C 14,2 C 8,0 km/h (2 Bft) 100,00 %
02.06.2016 11:09 14,2 C 96 % 1010,4 hPa 0,0 l/m 6,5 km/h (2 Bft) S 189 0 min 0,000 mm 2,0 UV-I 271 W/m 13,6 C 14,2 C 11,3 km/h (2 Bft) 100,00 %
02.06.2016 11:10 14,3 C 96 % 1010,4 hPa 0,0 l/m 6,4 km/h (2 Bft) S 174 0 min 0,000 mm 2,1 UV-I 282 W/m 13,7 C 14,3 C 11,3 km/h (2 Bft) 100,00 %
02.06.2016 11:11 14,3 C 95 % 1010,4 hPa 0,0 l/m 4,0 km/h (1 Bft) S-SO 162 0 min 0,000 mm 2,1 UV-I 293 W/m 13,5 C 14,3 C 6,4 km/h (2 Bft) 91,30 %
02.06.2016 11:12 14,3 C 96 % 1010,4 hPa 0,0 l/m 4,6 km/h (1 Bft) S-SO 163 0 min 0,000 mm 2,2 UV-I 307 W/m 13,7 C 14,3 C 6,4 km/h (2 Bft) 100,00 %
02.06.2016 11:13 14,4 C 95 % 1010,3 hPa 0,0 l/m 5,4 km/h (1 Bft) S-SO 163 0 min 0,000 mm 2,3 UV-I 311 W/m 13,6 C 14,4 C 8,0 km/h (2 Bft) 95,65 %
02.06.2016 11:14 14,4 C 95 % 1010,4 hPa 0,0 l/m 4,4 km/h (1 Bft) S-SW 193 0 min 0,000 mm 2,3 UV-I 329 W/m 13,6 C 14,4 C 9,7 km/h (2 Bft) 100,00 %
02.06.2016 11:15 14,4 C 95 % 1010,3 hPa 0,0 l/m 7,8 km/h (2 Bft) S 178 0 min 0,000 mm 2,4 UV-I 336 W/m 13,6 C 13,6 C 9,7 km/h (2 Bft) 100,00 %
02.06.2016 11:16 14,5 C 95 % 1010,3 hPa 0,0 l/m 6,7 km/h (2 Bft) S-SW 196 0 min 0,000 mm 2,4 UV-I 341 W/m 13,7 C 14,3 C 9,7 km/h (2 Bft) 100,00 %
02.06.2016 11:17 14,6 C 95 % 1010,3 hPa 0,0 l/m 4,4 km/h (1 Bft) S 185 0 min 0,000 mm 2,4 UV-I 349 W/m 13,8 C 14,6 C 6,4 km/h (2 Bft) 100,00 %
02.06.2016 11:18 14,6 C 95 % 1010,4 hPa 0,0 l/m 5,3 km/h (1 Bft) SW 225 0 min 0,000 mm 2,5 UV-I 355 W/m 13,8 C 14,6 C 8,0 km/h (2 Bft) 100,00 %
02.06.2016 11:19 14,7 C 95 % 1010,3 hPa 0,0 l/m 6,5 km/h (2 Bft) SW 215 0 min 0,000 mm 2,5 UV-I 359 W/m 13,9 C 14,7 C 9,7 km/h (2 Bft) 100,00 %
02.06.2016 11:20 14,7 C 95 % 1010,4 hPa 0,0 l/m 3,6 km/h (1 Bft) S 181 0 min 0,000 mm 2,4 UV-I 358 W/m 13,9 C 14,7 C 4,8 km/h (1 Bft) 100,00 %
02.06.2016 11:21 14,7 C 95 % 1010,4 hPa 0,0 l/m 4,7 km/h (1 Bft) SW 220 0 min 0,000 mm 2,4 UV-I 354 W/m 13,9 C 14,7 C 8,0 km/h (2 Bft) 95,83 %
02.06.2016 11:22 14,7 C 93 % 1010,4 hPa 0,0 l/m 6,0 km/h (2 Bft) S 174 0 min 0,000 mm 2,4 UV-I 348 W/m 13,6 C 14,7 C 9,7 km/h (2 Bft) 100,00 %
02.06.2016 11:23 14,7 C 93 % 1010,4 hPa 0,0 l/m 6,6 km/h (2 Bft) S 178 0 min 0,000 mm 2,3 UV-I 342 W/m 13,6 C 14,6 C 9,7 km/h (2 Bft) 100,00 %
02.06.2016 11:24 14,7 C 93 % 1010,4 hPa 0,0 l/m 4,2 km/h (1 Bft) S 177 0 min 0,000 mm 2,3 UV-I 334 W/m 13,6 C 14,7 C 6,4 km/h (2 Bft) 100,00 %
02.06.2016 11:25 14,8 C 93 % 1010,4 hPa 0,0 l/m 6,5 km/h (2 Bft) S-SO 155 0 min 0,000 mm 2,2 UV-I 326 W/m 13,7 C 14,8 C 8,0 km/h (2 Bft) 95,65 %
02.06.2016 11:26 14,8 C 93 % 1010,4 hPa 0,0 l/m 6,8 km/h (2 Bft) S 190 0 min 0,000 mm 2,2 UV-I 317 W/m 13,7 C 14,6 C 9,7 km/h (2 Bft) 95,83 %
02.06.2016 11:27 14,8 C 93 % 1010,4 hPa 0,0 l/m 3,6 km/h (1 Bft) S 175 0 min 0,000 mm 2,1 UV-I 310 W/m 13,7 C 14,8 C 6,4 km/h (2 Bft) 100,00 %
02.06.2016 11:28 14,8 C 93 % 1010,4 hPa 0,0 l/m 6,0 km/h (2 Bft) S-SO 158 0 min 0,000 mm 2,1 UV-I 304 W/m 13,7 C 14,8 C 9,7 km/h (2 Bft) 100,00 %
02.06.2016 11:29 14,8 C 93 % 1010,4 hPa 0,0 l/m 6,5 km/h (2 Bft) S 191 0 min 0,000 mm 2,1 UV-I 301 W/m 13,7 C 14,8 C 9,7 km/h (2 Bft) 100,00 %
02.06.2016 11:30 14,9 C 93 % 1010,4 hPa 0,0 l/m 6,9 km/h (2 Bft) S-SO 155 0 min 0,000 mm 2,0 UV-I 298 W/m 13,8 C 14,6 C 11,3 km/h (2 Bft) 100,00 %
02.06.2016 11:31 14,9 C 93 % 1010,4 hPa 0,0 l/m 6,4 km/h (2 Bft) S-SO 163 0 min 0,000 mm 2,0 UV-I 295 W/m 13,8 C 14,9 C 9,7 km/h (2 Bft) 100,00 %
02.06.2016 11:32 14,9 C 92 % 1010,4 hPa 0,0 l/m 7,2 km/h (2 Bft) S-SW 205 0 min 0,000 mm 2,0 UV-I 295 W/m 13,6 C 14,4 C 9,7 km/h (2 Bft) 100,00 %
02.06.2016 11:33 14,9 C 93 % 1010,4 hPa 0,0 l/m 7,1 km/h (2 Bft) S 183 0 min 0,000 mm 2,0 UV-I 296 W/m 13,8 C 14,5 C 9,7 km/h (2 Bft) 100,00 %
02.06.2016 11:34 14,9 C 93 % 1010,4 hPa 0,0 l/m 5,9 km/h (2 Bft) S 171 0 min 0,000 mm 2,0 UV-I 297 W/m 13,8 C 14,9 C 11,3 km/h (2 Bft) 100,00 %
02.06.2016 11:35 14,9 C 93 % 1010,3 hPa 0,0 l/m 7,0 km/h (2 Bft) SO 146 0 min 0,000 mm 2,0 UV-I 299 W/m 13,8 C 14,6 C 9,7 km/h (2 Bft) 100,00 %
02.06.2016 11:36 15,0 C 93 % 1010,3 hPa 0,0 l/m 7,4 km/h (2 Bft) S-SW 192 0 min 0,000 mm 2,1 UV-I 302 W/m 13,9 C 14,4 C 9,7 km/h (2 Bft) 100,00 %
02.06.2016 11:37 15,0 C 93 % 1010,3 hPa 0,0 l/m 6,5 km/h (2 Bft) S 171 0 min 0,000 mm 2,1 UV-I 304 W/m 13,9 C 15,0 C 9,7 km/h (2 Bft) 100,00 %
02.06.2016 11:38 15,0 C 92 % 1010,3 hPa 0,0 l/m 4,7 km/h (1 Bft) S 178 0 min 0,000 mm 2,1 UV-I 308 W/m 13,7 C 15,0 C 8,0 km/h (2 Bft) 100,00 %
02.06.2016 11:39 15,1 C 93 % 1010,3 hPa 0,0 l/m 5,8 km/h (2 Bft) S-SW 196 0 min 0,000 mm 2,1 UV-I 310 W/m 14,0 C 15,1 C 8,0 km/h (2 Bft) 95,83 %
02.06.2016 11:40 15,1 C 93 % 1010,3 hPa 0,0 l/m 5,4 km/h (1 Bft) S-SW 200 0 min 0,000 mm 2,1 UV-I 307 W/m 14,0 C 15,1 C 9,7 km/h (2 Bft) 100,00 %
02.06.2016 11:41 15,1 C 93 % 1010,2 hPa 0,0 l/m 5,8 km/h (2 Bft) S-SW 207 0 min 0,000 mm 2,1 UV-I 306 W/m 14,0 C 15,1 C 8,0 km/h (2 Bft) 100,00 %
02.06.2016 11:42 15,1 C 92 % 1010,2 hPa 0,0 l/m 5,2 km/h (1 Bft) SW 232 0 min 0,000 mm 2,1 UV-I 306 W/m 13,8 C 15,1 C 6,4 km/h (2 Bft) 100,00 %
02.06.2016 11:43 15,1 C 93 % 1010,2 hPa 0,0 l/m 6,3 km/h (2 Bft) S 188 0 min 0,000 mm 2,2 UV-I 309 W/m 14,0 C 15,1 C 8,0 km/h (2 Bft) 95,65 %
02.06.2016 11:44 15,2 C 93 % 1010,2 hPa 0,0 l/m 5,9 km/h (2 Bft) S-SW 193 0 min 0,000 mm 2,2 UV-I 316 W/m 14,1 C 15,2 C 9,7 km/h (2 Bft) 100,00 %
02.06.2016 11:45 15,2 C 93 % 1010,2 hPa 0,0 l/m 4,8 km/h (1 Bft) S 188 0 min 0,000 mm 2,2 UV-I 319 W/m 14,1 C 15,2 C 8,0 km/h (2 Bft) 100,00 %
02.06.2016 11:46 15,2 C 93 % 1010,2 hPa 0,0 l/m 5,0 km/h (1 Bft) S 184 0 min 0,000 mm 2,3 UV-I 324 W/m 14,1 C 15,2 C 6,4 km/h (2 Bft) 100,00 %
02.06.2016 11:47 15,2 C 93 % 1010,2 hPa 0,0 l/m 6,6 km/h (2 Bft) S 177 0 min 0,000 mm 2,3 UV-I 331 W/m 14,1 C 15,1 C 9,7 km/h (2 Bft) 100,00 %
02.06.2016 11:48 15,2 C 93 % 1010,1 hPa 0,0 l/m 5,6 km/h (1 Bft) SW 215 0 min 0,000 mm 2,4 UV-I 337 W/m 14,1 C 15,2 C 8,0 km/h (2 Bft) 100,00 %
02.06.2016 11:49 15,2 C 92 % 1010,2 hPa 0,0 l/m 3,2 km/h (1 Bft) S-SW 201 0 min 0,000 mm 2,4 UV-I 348 W/m 13,9 C 15,2 C 4,8 km/h (1 Bft) 95,65 %
02.06.2016 11:50 15,2 C 93 % 1010,1 hPa 0,0 l/m 2,3 km/h (1 Bft) S 188 0 min 0,000 mm 2,5 UV-I 356 W/m 14,1 C 15,2 C 4,8 km/h (1 Bft) 100,00 %
02.06.2016 11:51 15,2 C 93 % 1010,1 hPa 0,0 l/m 5,4 km/h (1 Bft) S-SW 192 0 min 0,000 mm 2,5 UV-I 356 W/m 14,1 C 15,2 C 11,3 km/h (2 Bft) 100,00 %
02.06.2016 11:52 15,2 C 92 % 1010,1 hPa 0,0 l/m 8,9 km/h (2 Bft) S 176 0 min 0,000 mm 2,5 UV-I 360 W/m 13,9 C 13,9 C 12,9 km/h (3 Bft) 100,00 %
02.06.2016 11:53 15,2 C 92 % 1010,1 hPa 0,2 l/m 5,1 km/h (1 Bft) S-SO 161 0 min 0,000 mm 2,6 UV-I 364 W/m 13,9 C 15,2 C 8,0 km/h (2 Bft) 100,00 %
02.06.2016 11:54 15,3 C 92 % 1010,1 hPa 0,0 l/m 6,1 km/h (2 Bft) S 175 0 min 0,000 mm 2,7 UV-I 377 W/m 14,0 C 15,3 C 9,7 km/h (2 Bft) 100,00 %
02.06.2016 11:55 15,3 C 93 % 1010,1 hPa 0,0 l/m 5,6 km/h (1 Bft) S-SW 207 0 min 0,000 mm 2,7 UV-I 378 W/m 14,2 C 15,3 C 9,7 km/h (2 Bft) 100,00 %
02.06.2016 11:56 15,3 C 93 % 1010,1 hPa 0,0 l/m 6,0 km/h (2 Bft) S-SO 165 0 min 0,000 mm 2,8 UV-I 390 W/m 14,2 C 15,3 C 8,0 km/h (2 Bft) 100,00 %
02.06.2016 11:57 15,3 C 92 % 1010,0 hPa 0,0 l/m 6,0 km/h (2 Bft) S-SW 207 0 min 0,000 mm 2,9 UV-I 420 W/m 14,0 C 15,3 C 9,7 km/h (2 Bft) 100,00 %
02.06.2016 11:58 15,4 C 92 % 1010,0 hPa 0,0 l/m 5,8 km/h (2 Bft) S-SO 165 0 min 0,000 mm 2,9 UV-I 427 W/m 14,1 C 15,4 C 11,3 km/h (2 Bft) 100,00 %
02.06.2016 11:59 15,4 C 92 % 1010,1 hPa 0,0 l/m 4,3 km/h (1 Bft) S 188 0 min 0,000 mm 3,0 UV-I 433 W/m 14,1 C 15,4 C 6,4 km/h (2 Bft) 95,83 %
02.06.2016 12:00 15,4 C 93 % 1010,1 hPa 0,0 l/m 4,0 km/h (1 Bft) S 182 0 min 0,178 mm 3,1 UV-I 444 W/m 14,3 C 15,4 C 4,8 km/h (1 Bft) 100,00 %
02.06.2016 12:01 15,4 C 92 % 1010,0 hPa 0,0 l/m 3,3 km/h (1 Bft) S 170 0 min 0,000 mm 3,1 UV-I 443 W/m 14,1 C 15,4 C 6,4 km/h (2 Bft) 100,00 %
02.06.2016 12:02 15,5 C 92 % 1010,0 hPa 0,0 l/m 1,7 km/h (1 Bft) S-SO 162 0 min 0,000 mm 3,1 UV-I 442 W/m 14,2 C 15,5 C 3,2 km/h (1 Bft) 95,65 %
02.06.2016 12:03 15,6 C 92 % 1010,0 hPa 0,0 l/m 5,2 km/h (1 Bft) SO 145 0 min 0,000 mm 3,1 UV-I 445 W/m 14,3 C 15,6 C 8,0 km/h (2 Bft) 100,00 %
02.06.2016 12:04 15,6 C 92 % 1010,0 hPa 0,0 l/m 3,8 km/h (1 Bft) SO 144 0 min 0,000 mm 3,1 UV-I 442 W/m 14,3 C 15,6 C 8,0 km/h (2 Bft) 100,00 %
02.06.2016 12:05 15,6 C 91 % 1010,0 hPa 0,0 l/m 2,8 km/h (1 Bft) S-SO 163 0 min 0,000 mm 3,2 UV-I 439 W/m 14,1 C 15,6 C 6,4 km/h (2 Bft) 100,00 %
02.06.2016 12:06 15,6 C 92 % 1010,0 hPa 0,0 l/m 5,1 km/h (1 Bft) S 181 0 min 0,000 mm 3,1 UV-I 429 W/m 14,3 C 15,6 C 12,9 km/h (3 Bft) 100,00 %
02.06.2016 12:07 15,7 C 92 % 1010,0 hPa 0,0 l/m 7,1 km/h (2 Bft) S-SW 211 0 min 0,000 mm 3,1 UV-I 428 W/m 14,4 C 15,3 C 11,3 km/h (2 Bft) 100,00 %
02.06.2016 12:08 15,7 C 92 % 1010,0 hPa 0,0 l/m 1,2 km/h (1 Bft) S 178 0 min 0,000 mm 3,2 UV-I 436 W/m 14,4 C 15,7 C 3,2 km/h (1 Bft) 100,00 %
02.06.2016 12:09 15,7 C 91 % 1010,0 hPa 0,0 l/m 1,2 km/h (1 Bft) S 178 0 min 0,000 mm 3,3 UV-I 451 W/m 14,2 C 15,7 C 3,2 km/h (1 Bft) 100,00 %
02.06.2016 12:10 15,8 C 93 % 1010,0 hPa 0,0 l/m 2,4 km/h (1 Bft) S 178 0 min 0,000 mm 3,3 UV-I 469 W/m 14,7 C 15,8 C 3,2 km/h (1 Bft) 96,15 %
02.06.2016 12:11 15,9 C 92 % 1010,0 hPa 0,0 l/m 3,7 km/h (1 Bft) S-SO 151 0 min 0,000 mm 3,4 UV-I 477 W/m 14,6 C 15,9 C 6,4 km/h (2 Bft) 100,00 %
02.06.2016 12:12 15,9 C 91 % 1010,0 hPa 0,0 l/m 2,7 km/h (1 Bft) S-SO 155 0 min 0,000 mm 3,4 UV-I 466 W/m 14,4 C 15,9 C 4,8 km/h (1 Bft) 95,65 %
02.06.2016 12:13 15,8 C 90 % 1010,0 hPa 0,0 l/m 2,1 km/h (1 Bft) S-SO 165 1 min 0,000 mm 3,5 UV-I 489 W/m 14,2 C 15,8 C 6,4 km/h (2 Bft) 100,00 %
02.06.2016 12:14 15,8 C 91 % 1009,9 hPa 0,0 l/m 2,5 km/h (1 Bft) S-SW 195 0 min 0,000 mm 3,5 UV-I 479 W/m 14,3 C 15,8 C 4,8 km/h (1 Bft) 95,65 %
02.06.2016 12:15 15,9 C 92 % 1009,9 hPa 0,0 l/m 3,5 km/h (1 Bft) S-SW 196 0 min 0,000 mm 3,4 UV-I 466 W/m 14,6 C 15,9 C 6,4 km/h (2 Bft) 96,30 %
02.06.2016 12:16 15,9 C 91 % 1009,9 hPa 0,0 l/m 2,9 km/h (1 Bft) O-SO 123 1 min 0,000 mm 3,5 UV-I 496 W/m 14,4 C 15,9 C 6,4 km/h (2 Bft) 100,00 %
02.06.2016 12:17 16,0 C 92 % 1009,9 hPa 0,0 l/m 6,2 km/h (2 Bft) S-SO 163 1 min 0,000 mm 3,6 UV-I 515 W/m 14,7 C 16,0 C 11,3 km/h (2 Bft) 95,83 %
02.06.2016 12:18 16,0 C 89 % 1009,9 hPa 0,0 l/m 6,9 km/h (2 Bft) S 186 1 min 0,000 mm 3,7 UV-I 525 W/m 14,2 C 15,7 C 12,9 km/h (3 Bft) 95,65 %
02.06.2016 12:19 16,1 C 90 % 1009,9 hPa 0,0 l/m 5,0 km/h (1 Bft) S 189 1 min 0,000 mm 3,7 UV-I 544 W/m 14,5 C 16,1 C 8,0 km/h (2 Bft) 95,83 %
02.06.2016 12:20 16,2 C 91 % 1009,9 hPa 0,0 l/m 6,3 km/h (2 Bft) W-SW 238 1 min 0,000 mm 3,8 UV-I 549 W/m 14,7 C 16,2 C 8,0 km/h (2 Bft) 100,00 %
02.06.2016 12:21 16,3 C 91 % 1009,9 hPa 0,0 l/m 7,8 km/h (2 Bft) SW 236 1 min 0,000 mm 3,8 UV-I 559 W/m 14,8 C 15,6 C 9,7 km/h (2 Bft) 97,37 %
02.06.2016 12:22 16,3 C 89 % 1009,9 hPa 0,0 l/m 6,2 km/h (2 Bft) SW 235 1 min 0,000 mm 3,9 UV-I 573 W/m 14,5 C 16,3 C 9,7 km/h (2 Bft) 95,83 %
02.06.2016 12:23 16,3 C 90 % 1009,9 hPa 0,0 l/m 7,9 km/h (2 Bft) W-SW 254 1 min 0,000 mm 3,9 UV-I 570 W/m 14,7 C 15,5 C 11,3 km/h (2 Bft) 100,00 %
02.06.2016 12:24 16,4 C 89 % 1009,9 hPa 0,0 l/m 7,6 km/h (2 Bft) SW 235 1 min 0,000 mm 3,9 UV-I 576 W/m 14,6 C 15,8 C 11,3 km/h (2 Bft) 95,65 %
02.06.2016 12:25 16,3 C 87 % 1009,9 hPa 0,0 l/m 8,1 km/h (2 Bft) S-SW 212 1 min 0,000 mm 3,7 UV-I 549 W/m 14,1 C 15,4 C 9,7 km/h (2 Bft) 100,00 %
02.06.2016 12:26 16,3 C 88 % 1009,9 hPa 0,0 l/m 5,5 km/h (1 Bft) SW 229 0 min 0,000 mm 3,2 UV-I 473 W/m 14,3 C 16,3 C 9,7 km/h (2 Bft) 95,83 %
02.06.2016 12:27 16,3 C 88 % 1009,9 hPa 0,0 l/m 4,6 km/h (1 Bft) S-SW 202 0 min 0,000 mm 2,9 UV-I 418 W/m 14,3 C 16,3 C 6,4 km/h (2 Bft) 100,00 %
02.06.2016 12:28 16,3 C 88 % 1009,9 hPa 0,0 l/m 3,4 km/h (1 Bft) S 188 0 min 0,000 mm 2,8 UV-I 387 W/m 14,3 C 16,3 C 6,4 km/h (2 Bft) 95,83 %
02.06.2016 12:29 16,3 C 89 % 1009,9 hPa 0,0 l/m 6,0 km/h (2 Bft) S 180 0 min 0,000 mm 2,7 UV-I 374 W/m 14,5 C 16,3 C 9,7 km/h (2 Bft) 100,00 %
02.06.2016 12:30 16,3 C 89 % 1009,9 hPa 0,0 l/m 6,8 km/h (2 Bft) S-SW 195 0 min 0,000 mm 2,7 UV-I 373 W/m 14,5 C 16,1 C 12,9 km/h (3 Bft) 95,83 %
02.06.2016 12:31 16,3 C 89 % 1009,9 hPa 0,0 l/m 7,8 km/h (2 Bft) S-SW 207 0 min 0,000 mm 2,9 UV-I 396 W/m 14,5 C 15,6 C 11,3 km/h (2 Bft) 95,65 %
02.06.2016 12:32 16,3 C 89 % 1009,9 hPa 0,0 l/m 6,6 km/h (2 Bft) S-SW 206 0 min 0,000 mm 3,0 UV-I 407 W/m 14,5 C 16,2 C 9,7 km/h (2 Bft) 91,67 %
02.06.2016 12:33 16,3 C 88 % 1009,9 hPa 0,0 l/m 8,9 km/h (2 Bft) W 260 0 min 0,000 mm 3,1 UV-I 415 W/m 14,3 C 15,0 C 11,3 km/h (2 Bft) 100,00 %
02.06.2016 12:34 16,3 C 88 % 1009,9 hPa 0,0 l/m 9,1 km/h (2 Bft) W-SW 238 0 min 0,000 mm 3,0 UV-I 410 W/m 14,3 C 14,9 C 12,9 km/h (3 Bft) 95,83 %
02.06.2016 12:35 16,4 C 89 % 1009,9 hPa 0,0 l/m 9,1 km/h (2 Bft) SW 219 0 min 0,000 mm 3,0 UV-I 398 W/m 14,6 C 15,1 C 14,5 km/h (3 Bft) 95,65 %
02.06.2016 12:36 16,4 C 90 % 1009,9 hPa 0,0 l/m 5,0 km/h (1 Bft) S 183 0 min 0,000 mm 2,9 UV-I 383 W/m 14,8 C 16,4 C 6,4 km/h (2 Bft) 100,00 %
02.06.2016 12:37 16,4 C 89 % 1009,9 hPa 0,0 l/m 6,3 km/h (2 Bft) SW 235 0 min 0,000 mm 2,8 UV-I 375 W/m 14,6 C 16,4 C 8,0 km/h (2 Bft) 92,31 %
02.06.2016 12:38 16,5 C 89 % 1009,9 hPa 0,0 l/m 8,2 km/h (2 Bft) W 261 0 min 0,000 mm 2,8 UV-I 372 W/m 14,7 C 15,6 C 11,3 km/h (2 Bft) 100,00 %
02.06.2016 12:39 16,5 C 89 % 1009,9 hPa 0,0 l/m 6,6 km/h (2 Bft) SW 233 0 min 0,000 mm 2,8 UV-I 373 W/m 14,7 C 16,4 C 9,7 km/h (2 Bft) 95,65 %
02.06.2016 12:40 16,5 C 88 % 1009,9 hPa 0,0 l/m 11,1 km/h (2 Bft) S 189 0 min 0,000 mm 2,8 UV-I 374 W/m 14,5 C 14,3 C 16,1 km/h (3 Bft) 100,00 %
02.06.2016 12:41 16,5 C 86 % 1009,9 hPa 0,0 l/m 6,2 km/h (2 Bft) S 180 0 min 0,000 mm 2,8 UV-I 374 W/m 14,1 C 16,5 C 9,7 km/h (2 Bft) 95,83 %
02.06.2016 12:42 16,4 C 87 % 1009,9 hPa 0,0 l/m 1,5 km/h (1 Bft) S-SW 193 0 min 0,000 mm 2,8 UV-I 376 W/m 14,2 C 16,4 C 4,8 km/h (1 Bft) 95,65 %
02.06.2016 12:43 16,5 C 89 % 1009,9 hPa 0,0 l/m 3,8 km/h (1 Bft) S-SW 207 0 min 0,000 mm 2,8 UV-I 379 W/m 14,7 C 16,5 C 6,4 km/h (2 Bft) 100,00 %
02.06.2016 12:44 16,6 C 89 % 1009,9 hPa 0,0 l/m 7,5 km/h (2 Bft) SW 217 0 min 0,000 mm 2,8 UV-I 392 W/m 14,8 C 16,0 C 9,7 km/h (2 Bft) 91,30 %
02.06.2016 12:45 16,6 C 88 % 1009,8 hPa 0,0 l/m 8,6 km/h (2 Bft) S-SO 167 0 min 0,000 mm 3,0 UV-I 417 W/m 14,6 C 15,5 C 12,9 km/h (3 Bft) 100,00 %
02.06.2016 12:46 16,7 C 87 % 1009,8 hPa 0,0 l/m 8,8 km/h (2 Bft) S-SW 202 0 min 0,000 mm 3,1 UV-I 422 W/m 14,5 C 15,5 C 14,5 km/h (3 Bft) 100,00 %
02.06.2016 12:47 16,7 C 85 % 1009,8 hPa 0,0 l/m 7,6 km/h (2 Bft) S 183 0 min 0,000 mm 3,1 UV-I 417 W/m 14,2 C 16,1 C 9,7 km/h (2 Bft) 100,00 %
02.06.2016 12:48 16,7 C 86 % 1009,9 hPa 0,0 l/m 5,8 km/h (2 Bft) S-SW 209 0 min 0,000 mm 3,0 UV-I 402 W/m 14,3 C 16,7 C 8,0 km/h (2 Bft) 95,65 %
02.06.2016 12:49 16,7 C 88 % 1009,9 hPa 0,0 l/m 5,0 km/h (1 Bft) SW 223 0 min 0,000 mm 2,8 UV-I 384 W/m 14,7 C 16,7 C 8,0 km/h (2 Bft) 100,00 %
02.06.2016 12:50 16,7 C 87 % 1009,9 hPa 0,0 l/m 5,8 km/h (2 Bft) SW 233 0 min 0,000 mm 2,7 UV-I 363 W/m 14,5 C 16,7 C 9,7 km/h (2 Bft) 95,65 %
02.06.2016 12:51 16,7 C 87 % 1009,9 hPa 0,0 l/m 7,5 km/h (2 Bft) S-SW 202 0 min 0,000 mm 2,3 UV-I 324 W/m 14,5 C 16,1 C 11,3 km/h (2 Bft) 100,00 %
02.06.2016 12:52 16,7 C 87 % 1009,9 hPa 0,0 l/m 7,6 km/h (2 Bft) W-SW 240 0 min 0,000 mm 1,9 UV-I 272 W/m 14,5 C 16,1 C 9,7 km/h (2 Bft) 96,15 %
02.06.2016 12:53 16,6 C 87 % 1009,9 hPa 0,0 l/m 6,1 km/h (2 Bft) W-SW 238 0 min 0,000 mm 1,5 UV-I 224 W/m 14,4 C 16,6 C 9,7 km/h (2 Bft) 95,83 %
02.06.2016 12:54 16,6 C 87 % 1009,9 hPa 0,0 l/m 5,9 km/h (2 Bft) W-SW 240 0 min 0,000 mm 1,3 UV-I 197 W/m 14,4 C 16,6 C 12,9 km/h (3 Bft) 90,91 %
02.06.2016 12:55 16,6 C 87 % 1009,9 hPa 0,0 l/m 8,0 km/h (2 Bft) SW 215 0 min 0,000 mm 1,3 UV-I 206 W/m 14,4 C 15,8 C 12,9 km/h (3 Bft) 100,00 %
02.06.2016 12:56 16,6 C 88 % 1009,9 hPa 0,0 l/m 7,2 km/h (2 Bft) S 178 0 min 0,000 mm 1,7 UV-I 230 W/m 14,6 C 16,2 C 11,3 km/h (2 Bft) 100,00 %
02.06.2016 12:57 16,6 C 87 % 1009,9 hPa 0,0 l/m 12,0 km/h (2 Bft) W-NW 286 0 min 0,000 mm 1,9 UV-I 252 W/m 14,4 C 14,1 C 16,1 km/h (3 Bft) 100,00 %
02.06.2016 12:58 16,6 C 89 % 1009,9 hPa 0,0 l/m 14,4 km/h (3 Bft) W-SW 247 0 min 0,000 mm 2,1 UV-I 274 W/m 14,8 C 13,3 C 19,3 km/h (3 Bft) 95,83 %
02.06.2016 12:59 16,6 C 88 % 1009,9 hPa 0,0 l/m 15,7 km/h (3 Bft) W-SW 257 0 min 0,000 mm 2,3 UV-I 309 W/m 14,6 C 12,9 C 20,9 km/h (4 Bft) 95,65 %
02.06.2016 13:00 16,5 C 88 % 1009,9 hPa 0,0 l/m 15,2 km/h (3 Bft) W 276 0 min 0,229 mm 2,7 UV-I 368 W/m 14,5 C 12,9 C 20,9 km/h (4 Bft) 100,00 %
02.06.2016 13:01 16,5 C 88 % 1009,9 hPa 0,0 l/m 13,2 km/h (3 Bft) W 275 0 min 0,000 mm 3,4 UV-I 465 W/m 14,5 C 13,6 C 19,3 km/h (3 Bft) 95,65 %
02.06.2016 13:02 16,5 C 88 % 1009,9 hPa 0,0 l/m 11,5 km/h (2 Bft) W-NW 285 0 min 0,000 mm 3,5 UV-I 482 W/m 14,5 C 14,2 C 17,7 km/h (3 Bft) 100,00 %
02.06.2016 13:03 16,5 C 89 % 1009,9 hPa 0,0 l/m 12,6 km/h (3 Bft) W-SW 246 0 min 0,000 mm 3,4 UV-I 473 W/m 14,7 C 13,8 C 17,7 km/h (3 Bft) 91,30 %
02.06.2016 13:04 16,6 C 87 % 1009,9 hPa 0,0 l/m 14,8 km/h (3 Bft) SW 228 0 min 0,000 mm 3,3 UV-I 453 W/m 14,4 C 13,2 C 20,9 km/h (4 Bft) 100,00 %
02.06.2016 13:05 16,6 C 87 % 1009,9 hPa 0,0 l/m 12,1 km/h (2 Bft) W 268 0 min 0,000 mm 3,4 UV-I 456 W/m 14,4 C 14,1 C 17,7 km/h (3 Bft) 100,00 %
02.06.2016 13:06 16,6 C 88 % 1010,0 hPa 0,0 l/m 14,8 km/h (3 Bft) W-SW 248 0 min 0,000 mm 3,3 UV-I 436 W/m 14,6 C 13,2 C 17,7 km/h (3 Bft) 100,00 %
02.06.2016 13:07 16,6 C 88 % 1009,9 hPa 0,0 l/m 15,8 km/h (3 Bft) W 266 0 min 0,000 mm 3,2 UV-I 422 W/m 14,6 C 12,9 C 20,9 km/h (4 Bft) 100,00 %
02.06.2016 13:08 16,6 C 87 % 1010,0 hPa 0,0 l/m 15,4 km/h (3 Bft) W-SW 258 0 min 0,000 mm 3,1 UV-I 417 W/m 14,4 C 13,0 C 19,3 km/h (3 Bft) 100,00 %
02.06.2016 13:09 16,5 C 86 % 1010,0 hPa 0,0 l/m 15,8 km/h (3 Bft) W-NW 290 0 min 0,000 mm 3,1 UV-I 429 W/m 14,1 C 12,8 C 24,1 km/h (4 Bft) 100,00 %
02.06.2016 13:10 16,5 C 87 % 1009,9 hPa 0,0 l/m 12,3 km/h (3 Bft) W 260 0 min 0,000 mm 3,1 UV-I 437 W/m 14,3 C 13,9 C 20,9 km/h (4 Bft) 100,00 %
02.06.2016 13:11 16,5 C 88 % 1010,0 hPa 0,0 l/m 14,8 km/h (3 Bft) W 262 0 min 0,000 mm 3,2 UV-I 463 W/m 14,5 C 13,1 C 20,9 km/h (4 Bft) 100,00 %
02.06.2016 13:12 16,5 C 88 % 1010,0 hPa 0,0 l/m 13,9 km/h (3 Bft) W 268 0 min 0,000 mm 3,1 UV-I 461 W/m 14,5 C 13,4 C 19,3 km/h (3 Bft) 100,00 %
02.06.2016 13:13 16,4 C 88 % 1010,0 hPa 0,0 l/m 14,2 km/h (3 Bft) W-SW 243 0 min 0,000 mm 3,1 UV-I 461 W/m 14,4 C 13,1 C 19,3 km/h (3 Bft) 100,00 %
02.06.2016 13:14 16,4 C 86 % 1010,0 hPa 0,0 l/m 14,6 km/h (3 Bft) SW 231 0 min 0,000 mm 3,2 UV-I 474 W/m 14,1 C 13,0 C 19,3 km/h (3 Bft) 100,00 %
02.06.2016 13:15 16,4 C 85 % 1010,0 hPa 0,0 l/m 15,8 km/h (3 Bft) W-SW 238 0 min 0,000 mm 3,3 UV-I 480 W/m 13,9 C 12,7 C 20,9 km/h (4 Bft) 100,00 %
02.06.2016 13:16 16,3 C 86 % 1010,0 hPa 0,0 l/m 13,7 km/h (3 Bft) SW 232 0 min 0,000 mm 3,3 UV-I 488 W/m 14,0 C 13,2 C 19,3 km/h (3 Bft) 100,00 %
02.06.2016 13:17 16,4 C 87 % 1010,0 hPa 0,0 l/m 9,6 km/h (2 Bft) S-SO 163 0 min 0,000 mm 3,1 UV-I 484 W/m 14,2 C 14,8 C 16,1 km/h (3 Bft) 100,00 %
02.06.2016 13:18 16,4 C 86 % 1010,0 hPa 0,0 l/m 12,3 km/h (3 Bft) S-SW 198 0 min 0,000 mm 3,1 UV-I 454 W/m 14,1 C 13,8 C 16,1 km/h (3 Bft) 100,00 %
02.06.2016 13:19 16,4 C 82 % 1010,0 hPa 0,0 l/m 9,2 km/h (2 Bft) S-SW 200 0 min 0,000 mm 3,0 UV-I 436 W/m 13,3 C 15,0 C 16,1 km/h (3 Bft) 95,65 %
02.06.2016 13:20 16,3 C 82 % 1010,0 hPa 0,0 l/m 11,6 km/h (2 Bft) SW 217 0 min 0,000 mm 2,9 UV-I 419 W/m 13,2 C 13,9 C 14,5 km/h (3 Bft) 100,00 %
02.06.2016 13:21 16,3 C 82 % 1010,0 hPa 0,0 l/m 12,8 km/h (3 Bft) W-SW 246 0 min 0,000 mm 2,8 UV-I 410 W/m 13,2 C 13,5 C 19,3 km/h (3 Bft) 100,00 %
02.06.2016 13:22 16,3 C 84 % 1010,0 hPa 0,0 l/m 10,9 km/h (2 Bft) SW 221 0 min 0,000 mm 2,8 UV-I 410 W/m 13,6 C 14,2 C 14,5 km/h (3 Bft) 100,00 %
02.06.2016 13:23 16,2 C 83 % 1010,0 hPa 0,0 l/m 15,8 km/h (3 Bft) W-SW 251 0 min 0,000 mm 2,8 UV-I 405 W/m 13,3 C 12,4 C 22,5 km/h (4 Bft) 100,00 %
02.06.2016 13:24 16,2 C 84 % 1009,9 hPa 0,0 l/m 13,2 km/h (3 Bft) SW 231 0 min 0,000 mm 2,8 UV-I 398 W/m 13,5 C 13,2 C 20,9 km/h (4 Bft) 95,65 %
02.06.2016 13:25 16,1 C 84 % 1009,9 hPa 0,0 l/m 14,4 km/h (3 Bft) SW 214 0 min 0,000 mm 2,8 UV-I 400 W/m 13,4 C 12,7 C 20,9 km/h (4 Bft) 100,00 %
02.06.2016 13:26 16,1 C 86 % 1009,9 hPa 0,0 l/m 11,6 km/h (2 Bft) W-SW 257 0 min 0,000 mm 3,0 UV-I 422 W/m 13,8 C 13,7 C 14,5 km/h (3 Bft) 100,00 %
02.06.2016 13:27 16,0 C 85 % 1009,9 hPa 0,0 l/m 15,0 km/h (3 Bft) SW 234 0 min 0,000 mm 3,1 UV-I 426 W/m 13,5 C 12,4 C 22,5 km/h (4 Bft) 100,00 %
02.06.2016 13:28 16,1 C 86 % 1009,9 hPa 0,0 l/m 12,5 km/h (3 Bft) W-SW 246 1 min 0,000 mm 3,5 UV-I 501 W/m 13,8 C 13,4 C 19,3 km/h (3 Bft) 100,00 %
02.06.2016 13:29 16,0 C 86 % 1009,9 hPa 0,0 l/m 10,7 km/h (2 Bft) SW 227 1 min 0,000 mm 4,1 UV-I 543 W/m 13,7 C 13,9 C 17,7 km/h (3 Bft) 100,00 %
02.06.2016 13:30 16,1 C 86 % 1009,8 hPa 0,0 l/m 11,3 km/h (2 Bft) W-SW 250 1 min 0,000 mm 4,6 UV-I 720 W/m 13,8 C 13,8 C 16,1 km/h (3 Bft) 95,65 %
02.06.2016 13:31 16,2 C 86 % 1009,8 hPa 0,0 l/m 13,2 km/h (3 Bft) S-SW 204 1 min 0,000 mm 5,1 UV-I 791 W/m 13,9 C 13,2 C 17,7 km/h (3 Bft) 100,00 %
02.06.2016 13:32 16,3 C 86 % 1009,8 hPa 0,0 l/m 9,2 km/h (2 Bft) W 268 1 min 0,000 mm 5,0 UV-I 791 W/m 14,0 C 14,9 C 12,9 km/h (3 Bft) 100,00 %
02.06.2016 13:33 16,4 C 88 % 1009,8 hPa 0,0 l/m 8,1 km/h (2 Bft) W-SW 255 1 min 0,000 mm 5,0 UV-I 795 W/m 14,4 C 15,5 C 16,1 km/h (3 Bft) 100,00 %
02.06.2016 13:34 16,6 C 87 % 1009,8 hPa 0,0 l/m 14,1 km/h (3 Bft) S-SW 208 1 min 0,000 mm 5,4 UV-I 875 W/m 14,4 C 13,4 C 22,5 km/h (4 Bft) 95,65 %
02.06.2016 13:35 16,6 C 84 % 1009,7 hPa 0,0 l/m 13,9 km/h (3 Bft) SW 229 1 min 0,000 mm 5,3 UV-I 831 W/m 13,9 C 13,5 C 19,3 km/h (3 Bft) 100,00 %
02.06.2016 13:36 16,7 C 85 % 1009,7 hPa 0,0 l/m 15,4 km/h (3 Bft) W 266 1 min 0,000 mm 5,4 UV-I 835 W/m 14,2 C 13,1 C 20,9 km/h (4 Bft) 98,42 %
02.06.2016 13:37 16,7 C 85 % 1009,7 hPa 0,0 l/m 16,6 km/h (3 Bft) S-SW 211 1 min 0,000 mm 5,4 UV-I 815 W/m 14,2 C 12,8 C 20,9 km/h (4 Bft) 100,00 %
02.06.2016 13:38 16,8 C 86 % 1009,7 hPa 0,0 l/m 15,6 km/h (3 Bft) SW 233 1 min 0,000 mm 5,3 UV-I 777 W/m 14,4 C 13,2 C 19,3 km/h (3 Bft) 100,00 %
02.06.2016 13:39 16,9 C 86 % 1009,7 hPa 0,0 l/m 10,7 km/h (2 Bft) W-SW 243 1 min 0,000 mm 5,1 UV-I 750 W/m 14,5 C 14,9 C 16,1 km/h (3 Bft) 100,00 %
02.06.2016 13:40 16,9 C 86 % 1009,7 hPa 0,0 l/m 12,0 km/h (2 Bft) SW 229 1 min 0,000 mm 5,2 UV-I 750 W/m 14,5 C 14,5 C 19,3 km/h (3 Bft) 100,00 %
02.06.2016 13:41 16,9 C 84 % 1009,7 hPa 0,0 l/m 16,4 km/h (3 Bft) W-SW 248 1 min 0,000 mm 5,2 UV-I 763 W/m 14,2 C 13,1 C 24,1 km/h (4 Bft) 100,00 %
02.06.2016 13:42 16,8 C 83 % 1009,7 hPa 0,0 l/m 13,4 km/h (3 Bft) SW 215 1 min 0,000 mm 4,6 UV-I 763 W/m 13,9 C 13,9 C 19,3 km/h (3 Bft) 100,00 %
02.06.2016 13:43 16,8 C 84 % 1009,6 hPa 0,0 l/m 17,4 km/h (3 Bft) W 273 1 min 0,000 mm 4,9 UV-I 763 W/m 14,1 C 12,7 C 22,5 km/h (4 Bft) 100,00 %
02.06.2016 13:44 16,8 C 83 % 1009,6 hPa 0,0 l/m 12,3 km/h (3 Bft) W-SW 237 1 min 0,000 mm 4,8 UV-I 763 W/m 13,9 C 14,2 C 16,1 km/h (3 Bft) 95,83 %
02.06.2016 13:45 16,7 C 85 % 1009,7 hPa 0,0 l/m 11,9 km/h (2 Bft) W-SW 240 1 min 0,000 mm 4,8 UV-I 697 W/m 14,2 C 14,3 C 14,5 km/h (3 Bft) 100,00 %
02.06.2016 13:46 16,8 C 86 % 1009,6 hPa 0,0 l/m 11,3 km/h (2 Bft) SW 234 1 min 0,000 mm 4,7 UV-I 599 W/m 14,4 C 14,6 C 16,1 km/h (3 Bft) 100,00 %
02.06.2016 13:47 16,8 C 84 % 1009,6 hPa 0,0 l/m 15,8 km/h (3 Bft) W-SW 253 1 min 0,000 mm 4,6 UV-I 610 W/m 14,1 C 13,1 C 20,9 km/h (4 Bft) 100,00 %
02.06.2016 13:48 16,7 C 84 % 1009,7 hPa 0,0 l/m 13,4 km/h (3 Bft) W-SW 238 1 min 0,000 mm 4,8 UV-I 674 W/m 14,0 C 13,8 C 20,9 km/h (4 Bft) 100,00 %
02.06.2016 13:49 16,7 C 85 % 1009,6 hPa 0,0 l/m 14,5 km/h (3 Bft) W 263 1 min 0,000 mm 5,0 UV-I 739 W/m 14,2 C 13,4 C 17,7 km/h (3 Bft) 100,00 %
02.06.2016 13:50 16,7 C 84 % 1009,6 hPa 0,0 l/m 13,2 km/h (3 Bft) SW 215 1 min 0,000 mm 5,3 UV-I 805 W/m 14,0 C 13,8 C 17,7 km/h (3 Bft) 100,00 %
02.06.2016 13:51 16,8 C 87 % 1009,7 hPa 0,0 l/m 13,5 km/h (3 Bft) S-SW 205 1 min 0,000 mm 5,4 UV-I 794 W/m 14,6 C 13,8 C 20,9 km/h (4 Bft) 96,15 %
02.06.2016 13:52 16,9 C 86 % 1009,7 hPa 0,0 l/m 12,7 km/h (3 Bft) S-SW 199 1 min 0,000 mm 5,5 UV-I 819 W/m 14,5 C 14,2 C 20,9 km/h (4 Bft) 100,00 %
02.06.2016 13:53 16,9 C 85 % 1009,7 hPa 0,0 l/m 10,0 km/h (2 Bft) S-SW 192 1 min 0,000 mm 5,5 UV-I 824 W/m 14,4 C 15,2 C 16,1 km/h (3 Bft) 100,00 %
02.06.2016 13:54 16,8 C 85 % 1009,6 hPa 0,0 l/m 10,3 km/h (2 Bft) W-SW 249 1 min 0,000 mm 5,3 UV-I 778 W/m 14,3 C 15,0 C 14,5 km/h (3 Bft) 100,00 %
02.06.2016 13:55 16,8 C 86 % 1009,7 hPa 0,0 l/m 7,0 km/h (2 Bft) W-SW 240 1 min 0,000 mm 5,1 UV-I 745 W/m 14,4 C 16,5 C 14,5 km/h (3 Bft) 100,00 %
02.06.2016 13:56 16,8 C 87 % 1009,6 hPa 0,0 l/m 11,0 km/h (2 Bft) W-SW 247 1 min 0,000 mm 5,2 UV-I 754 W/m 14,6 C 14,7 C 14,5 km/h (3 Bft) 100,00 %
02.06.2016 13:57 16,8 C 87 % 1009,6 hPa 0,0 l/m 10,6 km/h (2 Bft) SW 223 1 min 0,000 mm 5,1 UV-I 724 W/m 14,6 C 14,9 C 14,5 km/h (3 Bft) 100,00 %
02.06.2016 13:58 16,8 C 88 % 1009,6 hPa 0,0 l/m 9,3 km/h (2 Bft) S-SW 196 1 min 0,000 mm 5,1 UV-I 749 W/m 14,8 C 15,4 C 14,5 km/h (3 Bft) 100,00 %
02.06.2016 13:59 16,8 C 87 % 1009,5 hPa 0,0 l/m 9,2 km/h (2 Bft) S-SW 195 1 min 0,000 mm 5,3 UV-I 777 W/m 14,6 C 15,4 C 16,1 km/h (3 Bft) 100,00 %
02.06.2016 14:00 16,7 C 86 % 1009,6 hPa 0,0 l/m 10,7 km/h (2 Bft) SW 235 1 min 0,000 mm 5,3 UV-I 771 W/m 14,3 C 14,7 C 14,5 km/h (3 Bft) 95,65 %
02.06.2016 14:01 16,6 C 87 % 1009,7 hPa 0,0 l/m 12,7 km/h (3 Bft) SW 236 1 min 0,355 mm 5,2 UV-I 753 W/m 14,4 C 13,9 C 17,7 km/h (3 Bft) 100,00 %
02.06.2016 14:02 16,7 C 88 % 1009,6 hPa 0,0 l/m 10,2 km/h (2 Bft) SW 234 1 min 0,000 mm 5,3 UV-I 759 W/m 14,7 C 14,9 C 17,7 km/h (3 Bft) 95,65 %
02.06.2016 14:03 16,7 C 89 % 1009,6 hPa 0,0 l/m 6,8 km/h (2 Bft) S-SW 199 1 min 0,000 mm 5,4 UV-I 790 W/m 14,9 C 16,5 C 9,7 km/h (2 Bft) 100,00 %
02.06.2016 14:04 16,7 C 87 % 1009,6 hPa 0,0 l/m 10,7 km/h (2 Bft) SW 230 1 min 0,000 mm 5,5 UV-I 859 W/m 14,5 C 14,7 C 16,1 km/h (3 Bft) 100,00 %
02.06.2016 14:05 16,7 C 87 % 1009,5 hPa 0,0 l/m 12,5 km/h (3 Bft) SW 217 1 min 0,000 mm 5,6 UV-I 876 W/m 14,5 C 14,1 C 17,7 km/h (3 Bft) 100,00 %
02.06.2016 14:06 16,7 C 86 % 1009,6 hPa 0,0 l/m 12,0 km/h (2 Bft) W-SW 244 1 min 0,000 mm 5,5 UV-I 855 W/m 14,3 C 14,2 C 16,1 km/h (3 Bft) 92,31 %
02.06.2016 14:07 16,9 C 88 % 1009,6 hPa 0,0 l/m 9,1 km/h (2 Bft) S 174 1 min 0,000 mm 5,3 UV-I 813 W/m 14,9 C 15,6 C 12,9 km/h (3 Bft) 95,83 %
02.06.2016 14:08 16,9 C 87 % 1009,6 hPa 0,0 l/m 10,4 km/h (2 Bft) S-SW 212 1 min 0,000 mm 4,9 UV-I 713 W/m 14,7 C 15,1 C 16,1 km/h (3 Bft) 95,65 %
02.06.2016 14:09 16,9 C 86 % 1009,5 hPa 0,0 l/m 9,8 km/h (2 Bft) SW 220 1 min 0,000 mm 4,7 UV-I 650 W/m 14,5 C 15,3 C 16,1 km/h (3 Bft) 100,00 %
02.06.2016 14:10 16,9 C 86 % 1009,5 hPa 0,0 l/m 9,7 km/h (2 Bft) S-SW 210 1 min 0,000 mm 4,7 UV-I 650 W/m 14,5 C 15,3 C 16,1 km/h (3 Bft) 95,65 %
02.06.2016 14:11 16,9 C 87 % 1009,5 hPa 0,0 l/m 11,7 km/h (2 Bft) SW 226 1 min 0,000 mm 5,0 UV-I 741 W/m 14,7 C 14,6 C 17,7 km/h (3 Bft) 100,00 %
02.06.2016 14:12 16,9 C 86 % 1009,5 hPa 0,0 l/m 12,2 km/h (2 Bft) SW 222 1 min 0,000 mm 5,0 UV-I 750 W/m 14,5 C 14,4 C 17,7 km/h (3 Bft) 91,30 %
02.06.2016 14:13 16,9 C 85 % 1009,5 hPa 0,0 l/m 12,0 km/h (2 Bft) SW 226 1 min 0,000 mm 5,0 UV-I 747 W/m 14,4 C 14,5 C 14,5 km/h (3 Bft) 100,00 %
02.06.2016 14:14 17,0 C 88 % 1009,5 hPa 0,0 l/m 10,7 km/h (2 Bft) W-SW 238 1 min 0,000 mm 4,9 UV-I 734 W/m 15,0 C 15,1 C 14,5 km/h (3 Bft) 91,30 %
02.06.2016 14:15 16,9 C 86 % 1009,5 hPa 0,0 l/m 10,1 km/h (2 Bft) W 279 1 min 0,000 mm 4,9 UV-I 727 W/m 14,5 C 15,2 C 14,5 km/h (3 Bft) 95,83 %
02.06.2016 14:16 16,9 C 86 % 1009,5 hPa 0,0 l/m 11,7 km/h (2 Bft) S-SW 203 1 min 0,000 mm 4,7 UV-I 685 W/m 14,5 C 14,6 C 17,7 km/h (3 Bft) 95,65 %
02.06.2016 14:17 16,9 C 85 % 1009,5 hPa 0,0 l/m 8,4 km/h (2 Bft) SW 234 1 min 0,000 mm 4,5 UV-I 621 W/m 14,4 C 15,9 C 12,9 km/h (3 Bft) 95,83 %
02.06.2016 14:18 16,9 C 86 % 1009,5 hPa 0,0 l/m 10,5 km/h (2 Bft) W-SW 257 1 min 0,000 mm 4,2 UV-I 551 W/m 14,5 C 15,0 C 16,1 km/h (3 Bft) 100,00 %
02.06.2016 14:19 16,8 C 85 % 1009,5 hPa 0,0 l/m 8,3 km/h (2 Bft) W-SW 239 1 min 0,000 mm 4,0 UV-I 507 W/m 14,3 C 15,8 C 12,9 km/h (3 Bft) 96,30 %
02.06.2016 14:20 16,8 C 85 % 1009,5 hPa 0,0 l/m 6,1 km/h (2 Bft) W-NW 289 0 min 0,000 mm 3,8 UV-I 463 W/m 14,3 C 16,8 C 11,3 km/h (2 Bft) 100,00 %
02.06.2016 14:21 16,7 C 83 % 1009,5 hPa 0,0 l/m 6,4 km/h (2 Bft) W 271 0 min 0,000 mm 3,7 UV-I 450 W/m 13,8 C 16,7 C 9,7 km/h (2 Bft) 96,15 %
02.06.2016 14:22 16,7 C 83 % 1009,5 hPa 0,0 l/m 4,7 km/h (1 Bft) SW 217 0 min 0,000 mm 3,6 UV-I 405 W/m 13,8 C 16,7 C 8,0 km/h (2 Bft) 100,00 %
02.06.2016 14:23 16,6 C 84 % 1009,5 hPa 0,0 l/m 5,8 km/h (2 Bft) W-SW 248 0 min 0,000 mm 3,6 UV-I 408 W/m 13,9 C 16,6 C 9,7 km/h (2 Bft) 95,65 %
02.06.2016 14:24 16,5 C 83 % 1009,5 hPa 0,0 l/m 5,4 km/h (1 Bft) W-SW 245 0 min 0,000 mm 3,7 UV-I 440 W/m 13,6 C 16,5 C 9,7 km/h (2 Bft) 100,00 %
02.06.2016 14:25 16,4 C 85 % 1009,5 hPa 0,0 l/m 4,5 km/h (1 Bft) W-SW 258 0 min 0,000 mm 3,7 UV-I 458 W/m 13,9 C 16,4 C 9,7 km/h (2 Bft) 91,30 %
02.06.2016 14:26 16,4 C 83 % 1009,5 hPa 0,0 l/m 4,1 km/h (1 Bft) W-NW 296 1 min 0,000 mm 3,9 UV-I 484 W/m 13,5 C 16,4 C 8,0 km/h (2 Bft) 95,83 %
02.06.2016 14:27 16,3 C 83 % 1009,5 hPa 0,0 l/m 4,5 km/h (1 Bft) S-SW 205 1 min 0,000 mm 4,0 UV-I 504 W/m 13,4 C 16,3 C 11,3 km/h (2 Bft) 100,00 %
02.06.2016 14:28 16,3 C 82 % 1009,5 hPa 0,0 l/m 8,8 km/h (2 Bft) W-SW 257 1 min 0,000 mm 4,0 UV-I 499 W/m 13,2 C 15,1 C 14,5 km/h (3 Bft) 95,83 %
02.06.2016 14:29 16,3 C 81 % 1009,5 hPa 0,0 l/m 7,7 km/h (2 Bft) SW 234 1 min 0,000 mm 3,9 UV-I 501 W/m 13,0 C 15,6 C 12,9 km/h (3 Bft) 100,00 %
02.06.2016 14:30 16,3 C 83 % 1009,5 hPa 0,0 l/m 11,4 km/h (2 Bft) W-SW 252 1 min 0,000 mm 4,0 UV-I 522 W/m 13,4 C 14,0 C 14,5 km/h (3 Bft) 95,83 %
02.06.2016 14:31 16,3 C 81 % 1009,5 hPa 0,0 l/m 7,6 km/h (2 Bft) W-SW 252 1 min 0,000 mm 4,0 UV-I 520 W/m 13,0 C 15,7 C 9,7 km/h (2 Bft) 100,00 %
02.06.2016 14:32 16,4 C 84 % 1009,5 hPa 0,0 l/m 7,4 km/h (2 Bft) W-SW 246 1 min 0,000 mm 4,2 UV-I 556 W/m 13,7 C 15,9 C 12,9 km/h (3 Bft) 95,83 %
02.06.2016 14:33 16,4 C 83 % 1009,5 hPa 0,0 l/m 7,8 km/h (2 Bft) W-SW 255 1 min 0,000 mm 4,4 UV-I 595 W/m 13,5 C 15,7 C 12,9 km/h (3 Bft) 100,00 %
02.06.2016 14:34 16,5 C 84 % 1009,5 hPa 0,0 l/m 11,4 km/h (2 Bft) W-SW 242 1 min 0,000 mm 4,5 UV-I 635 W/m 13,8 C 14,2 C 14,5 km/h (3 Bft) 93,33 %
02.06.2016 14:35 16,5 C 83 % 1009,5 hPa 0,0 l/m 9,1 km/h (2 Bft) W-SW 251 1 min 0,000 mm 4,5 UV-I 632 W/m 13,6 C 15,2 C 12,9 km/h (3 Bft) 95,65 %
02.06.2016 14:36 16,6 C 83 % 1009,5 hPa 0,0 l/m 10,3 km/h (2 Bft) W-SW 244 1 min 0,000 mm 4,6 UV-I 639 W/m 13,7 C 14,8 C 16,1 km/h (3 Bft) 100,00 %
02.06.2016 14:37 16,5 C 81 % 1009,6 hPa 0,0 l/m 7,9 km/h (2 Bft) SW 228 1 min 0,000 mm 4,5 UV-I 643 W/m 13,2 C 15,7 C 11,3 km/h (2 Bft) 100,00 %
02.06.2016 14:38 16,5 C 82 % 1009,6 hPa 0,0 l/m 5,9 km/h (2 Bft) W-SW 255 1 min 0,000 mm 4,8 UV-I 692 W/m 13,4 C 16,5 C 8,0 km/h (2 Bft) 100,00 %
02.06.2016 14:39 16,6 C 85 % 1009,6 hPa 0,0 l/m 5,8 km/h (2 Bft) W-SW 246 1 min 0,000 mm 4,9 UV-I 731 W/m 14,1 C 16,6 C 8,0 km/h (2 Bft) 95,65 %
02.06.2016 14:40 16,8 C 87 % 1009,6 hPa 0,0 l/m 10,3 km/h (2 Bft) W 275 1 min 0,000 mm 5,1 UV-I 780 W/m 14,6 C 15,0 C 14,5 km/h (3 Bft) 95,83 %
02.06.2016 14:41 16,8 C 83 % 1009,6 hPa 0,0 l/m 6,7 km/h (2 Bft) SW 225 1 min 0,000 mm 5,1 UV-I 792 W/m 13,9 C 16,7 C 11,3 km/h (2 Bft) 100,00 %
02.06.2016 14:42 16,9 C 82 % 1009,6 hPa 0,0 l/m 12,7 km/h (3 Bft) W-SW 238 1 min 0,000 mm 5,1 UV-I 817 W/m 13,8 C 14,2 C 16,1 km/h (3 Bft) 100,00 %
02.06.2016 14:43 16,9 C 82 % 1009,6 hPa 0,0 l/m 9,4 km/h (2 Bft) W-NW 289 1 min 0,000 mm 5,2 UV-I 834 W/m 13,8 C 15,5 C 12,9 km/h (3 Bft) 95,83 %
02.06.2016 14:44 16,9 C 83 % 1009,6 hPa 0,0 l/m 6,5 km/h (2 Bft) W-SW 256 1 min 0,000 mm 5,2 UV-I 840 W/m 14,0 C 16,9 C 9,7 km/h (2 Bft) 100,00 %
02.06.2016 14:45 17,0 C 86 % 1009,6 hPa 0,0 l/m 8,0 km/h (2 Bft) SW 236 1 min 0,000 mm 5,1 UV-I 808 W/m 14,6 C 16,2 C 11,3 km/h (2 Bft) 100,00 %
02.06.2016 14:46 17,2 C 85 % 1009,6 hPa 0,0 l/m 9,3 km/h (2 Bft) W-SW 238 1 min 0,000 mm 4,9 UV-I 751 W/m 14,7 C 15,8 C 14,5 km/h (3 Bft) 100,00 %
02.06.2016 14:47 17,2 C 84 % 1009,5 hPa 0,0 l/m 11,6 km/h (2 Bft) W 269 1 min 0,000 mm 4,8 UV-I 720 W/m 14,5 C 14,9 C 14,5 km/h (3 Bft) 100,00 %
02.06.2016 14:48 17,2 C 82 % 1009,5 hPa 0,0 l/m 9,9 km/h (2 Bft) SW 215 1 min 0,000 mm 4,7 UV-I 714 W/m 14,1 C 15,6 C 12,9 km/h (3 Bft) 100,00 %
02.06.2016 14:49 17,2 C 81 % 1009,5 hPa 0,0 l/m 8,3 km/h (2 Bft) SW 228 1 min 0,000 mm 4,6 UV-I 694 W/m 13,9 C 16,3 C 11,3 km/h (2 Bft) 100,00 %
02.06.2016 14:50 17,2 C 85 % 1009,5 hPa 0,0 l/m 5,8 km/h (2 Bft) W 271 1 min 0,000 mm 4,5 UV-I 656 W/m 14,7 C 17,2 C 11,3 km/h (2 Bft) 100,00 %
02.06.2016 14:51 17,2 C 83 % 1009,5 hPa 0,0 l/m 3,8 km/h (1 Bft) W-SW 252 1 min 0,000 mm 4,3 UV-I 605 W/m 14,3 C 17,2 C 9,7 km/h (2 Bft) 100,00 %
02.06.2016 14:52 17,2 C 83 % 1009,5 hPa 0,0 l/m 4,5 km/h (1 Bft) W-SW 240 1 min 0,000 mm 4,2 UV-I 579 W/m 14,3 C 17,2 C 6,4 km/h (2 Bft) 100,00 %
02.06.2016 14:53 17,3 C 85 % 1009,5 hPa 0,0 l/m 4,0 km/h (1 Bft) W 273 1 min 0,000 mm 4,4 UV-I 614 W/m 14,8 C 17,3 C 6,4 km/h (2 Bft) 100,00 %
02.06.2016 14:54 17,4 C 84 % 1009,5 hPa 0,0 l/m 4,6 km/h (1 Bft) W 261 1 min 0,000 mm 4,6 UV-I 683 W/m 14,7 C 17,4 C 11,3 km/h (2 Bft) 100,00 %
02.06.2016 14:55 17,4 C 82 % 1009,5 hPa 0,0 l/m 11,5 km/h (2 Bft) W-NW 287 1 min 0,000 mm 4,8 UV-I 745 W/m 14,3 C 15,2 C 16,1 km/h (3 Bft) 100,00 %
02.06.2016 14:56 17,3 C 82 % 1009,5 hPa 0,0 l/m 7,8 km/h (2 Bft) W-NW 292 1 min 0,000 mm 5,0 UV-I 795 W/m 14,2 C 16,6 C 11,3 km/h (2 Bft) 91,30 %
02.06.2016 14:57 17,3 C 82 % 1009,5 hPa 0,0 l/m 4,9 km/h (1 Bft) SW 216 1 min 0,000 mm 5,1 UV-I 822 W/m 14,2 C 17,3 C 11,3 km/h (2 Bft) 100,00 %
02.06.2016 14:58 17,4 C 85 % 1009,5 hPa 0,0 l/m 8,0 km/h (2 Bft) SW 228 1 min 0,000 mm 5,1 UV-I 831 W/m 14,8 C 16,6 C 9,7 km/h (2 Bft) 100,00 %
02.06.2016 14:59 17,4 C 85 % 1009,5 hPa 0,0 l/m 11,9 km/h (2 Bft) W-SW 247 1 min 0,000 mm 5,1 UV-I 825 W/m 14,8 C 15,1 C 17,7 km/h (3 Bft) 100,00 %
02.06.2016 15:00 17,5 C 84 % 1009,5 hPa 0,0 l/m 6,2 km/h (2 Bft) W 265 1 min 0,381 mm 5,1 UV-I 811 W/m 14,8 C 17,5 C 9,7 km/h (2 Bft) 100,00 %
02.06.2016 15:01 17,5 C 82 % 1009,5 hPa 0,0 l/m 7,5 km/h (2 Bft) W 266 1 min 0,000 mm 5,0 UV-I 797 W/m 14,4 C 17,0 C 12,9 km/h (3 Bft) 100,00 %
02.06.2016 15:02 17,6 C 83 % 1009,5 hPa 0,0 l/m 8,3 km/h (2 Bft) W-SW 252 1 min 0,000 mm 4,9 UV-I 776 W/m 14,7 C 16,7 C 12,9 km/h (3 Bft) 100,00 %
02.06.2016 15:03 17,5 C 80 % 1009,5 hPa 0,0 l/m 4,1 km/h (1 Bft) S-SW 213 1 min 0,000 mm 4,8 UV-I 752 W/m 14,0 C 17,5 C 6,4 km/h (2 Bft) 100,00 %
02.06.2016 15:04 17,6 C 83 % 1009,4 hPa 0,0 l/m 6,8 km/h (2 Bft) W-NW 282 1 min 0,000 mm 4,8 UV-I 777 W/m 14,7 C 17,4 C 12,9 km/h (3 Bft) 96,30 %
02.06.2016 15:05 17,6 C 82 % 1009,5 hPa 0,0 l/m 8,7 km/h (2 Bft) W-NW 292 1 min 0,000 mm 4,8 UV-I 768 W/m 14,5 C 16,5 C 12,9 km/h (3 Bft) 95,65 %
02.06.2016 15:06 17,5 C 81 % 1009,4 hPa 0,0 l/m 5,4 km/h (1 Bft) W-NW 284 1 min 0,000 mm 4,7 UV-I 765 W/m 14,2 C 17,5 C 8,0 km/h (2 Bft) 100,00 %
02.06.2016 15:07 17,6 C 82 % 1009,4 hPa 0,0 l/m 3,4 km/h (1 Bft) W-SW 245 1 min 0,000 mm 4,8 UV-I 772 W/m 14,5 C 17,6 C 4,8 km/h (1 Bft) 100,00 %
02.06.2016 15:08 17,7 C 83 % 1009,4 hPa 0,0 l/m 4,9 km/h (1 Bft) W-SW 256 1 min 0,000 mm 4,8 UV-I 789 W/m 14,8 C 17,7 C 6,4 km/h (2 Bft) 100,00 %
02.06.2016 15:09 17,8 C 85 % 1009,4 hPa 0,0 l/m 9,2 km/h (2 Bft) W-SW 246 1 min 0,000 mm 4,8 UV-I 784 W/m 15,2 C 16,5 C 12,9 km/h (3 Bft) 100,00 %
02.06.2016 15:10 17,9 C 84 % 1009,4 hPa 0,0 l/m 5,2 km/h (1 Bft) SW 236 1 min 0,000 mm 4,7 UV-I 784 W/m 15,2 C 17,9 C 6,4 km/h (2 Bft) 100,00 %
02.06.2016 15:11 18,0 C 82 % 1009,4 hPa 0,0 l/m 7,8 km/h (2 Bft) W 281 1 min 0,000 mm 4,8 UV-I 786 W/m 14,9 C 17,3 C 12,9 km/h (3 Bft) 91,30 %
02.06.2016 15:12 18,1 C 79 % 1009,4 hPa 0,0 l/m 6,6 km/h (2 Bft) W 261 1 min 0,000 mm 4,8 UV-I 785 W/m 14,4 C 18,0 C 9,7 km/h (2 Bft) 100,00 %
02.06.2016 15:13 18,1 C 81 % 1009,4 hPa 0,0 l/m 8,9 km/h (2 Bft) W 277 1 min 0,000 mm 4,7 UV-I 778 W/m 14,8 C 17,0 C 12,9 km/h (3 Bft) 100,00 %
02.06.2016 15:14 18,2 C 81 % 1009,4 hPa 0,0 l/m 8,8 km/h (2 Bft) SW 233 1 min 0,000 mm 4,7 UV-I 774 W/m 14,9 C 17,1 C 11,3 km/h (2 Bft) 100,00 %
02.06.2016 15:15 18,2 C 78 % 1009,4 hPa 0,0 l/m 7,8 km/h (2 Bft) W-SW 247 1 min 0,000 mm 4,6 UV-I 758 W/m 14,3 C 17,6 C 11,3 km/h (2 Bft) 95,65 %
02.06.2016 15:16 18,1 C 78 % 1009,4 hPa 0,0 l/m 11,7 km/h (2 Bft) S-SW 207 1 min 0,000 mm 4,5 UV-I 723 W/m 14,2 C 15,9 C 16,1 km/h (3 Bft) 100,00 %
02.06.2016 15:17 18,1 C 80 % 1009,4 hPa 0,0 l/m 9,9 km/h (2 Bft) S-SW 205 1 min 0,000 mm 4,4 UV-I 709 W/m 14,6 C 16,6 C 14,5 km/h (3 Bft) 100,00 %
02.06.2016 15:18 18,1 C 79 % 1009,4 hPa 0,0 l/m 6,1 km/h (2 Bft) W-NW 290 1 min 0,000 mm 4,4 UV-I 699 W/m 14,4 C 18,1 C 12,9 km/h (3 Bft) 100,00 %
02.06.2016 15:19 18,1 C 78 % 1009,4 hPa 0,0 l/m 7,7 km/h (2 Bft) W-SW 245 1 min 0,000 mm 4,3 UV-I 675 W/m 14,2 C 17,5 C 11,3 km/h (2 Bft) 100,00 %
02.06.2016 15:20 18,0 C 78 % 1009,4 hPa 0,0 l/m 5,3 km/h (1 Bft) W-SW 246 1 min 0,000 mm 4,2 UV-I 657 W/m 14,1 C 18,0 C 8,0 km/h (2 Bft) 100,00 %
02.06.2016 15:21 18,0 C 80 % 1009,4 hPa 0,0 l/m 6,8 km/h (2 Bft) SW 221 1 min 0,000 mm 4,2 UV-I 653 W/m 14,5 C 17,8 C 11,3 km/h (2 Bft) 100,00 %
02.06.2016 15:22 18,1 C 80 % 1009,3 hPa 0,0 l/m 10,7 km/h (2 Bft) SW 225 1 min 0,000 mm 4,1 UV-I 648 W/m 14,6 C 16,3 C 14,5 km/h (3 Bft) 100,00 %
02.06.2016 15:23 18,1 C 76 % 1009,3 hPa 0,0 l/m 12,1 km/h (2 Bft) SW 234 1 min 0,000 mm 4,2 UV-I 656 W/m 13,8 C 15,8 C 14,5 km/h (3 Bft) 100,00 %
02.06.2016 15:24 18,0 C 76 % 1009,4 hPa 0,0 l/m 7,0 km/h (2 Bft) W-SW 252 1 min 0,000 mm 4,1 UV-I 663 W/m 13,7 C 17,7 C 11,3 km/h (2 Bft) 100,00 %
02.06.2016 15:25 17,9 C 77 % 1009,4 hPa 0,0 l/m 8,4 km/h (2 Bft) W 262 1 min 0,000 mm 4,1 UV-I 671 W/m 13,8 C 17,0 C 16,1 km/h (3 Bft) 100,00 %
02.06.2016 15:26 17,9 C 77 % 1009,3 hPa 0,0 l/m 2,6 km/h (1 Bft) W-NW 284 1 min 0,000 mm 4,2 UV-I 685 W/m 13,8 C 17,9 C 4,8 km/h (1 Bft) 100,00 %
02.06.2016 15:27 18,0 C 78 % 1009,3 hPa 0,0 l/m 4,3 km/h (1 Bft) SW 219 1 min 0,000 mm 4,3 UV-I 726 W/m 14,1 C 18,0 C 8,0 km/h (2 Bft) 100,00 %
02.06.2016 15:28 18,1 C 80 % 1009,3 hPa 0,0 l/m 9,7 km/h (2 Bft) W 281 1 min 0,000 mm 4,2 UV-I 750 W/m 14,6 C 16,7 C 14,5 km/h (3 Bft) 100,00 %
02.06.2016 15:29 18,2 C 80 % 1009,3 hPa 0,0 l/m 5,4 km/h (1 Bft) W 273 1 min 0,000 mm 3,7 UV-I 757 W/m 14,7 C 18,2 C 11,3 km/h (2 Bft) 100,00 %
02.06.2016 15:30 18,3 C 77 % 1009,3 hPa 0,0 l/m 6,4 km/h (2 Bft) W 261 1 min 0,000 mm 4,0 UV-I 763 W/m 14,2 C 18,3 C 12,9 km/h (3 Bft) 100,00 %
02.06.2016 15:31 18,3 C 77 % 1009,3 hPa 0,0 l/m 10,1 km/h (2 Bft) W-SW 239 1 min 0,000 mm 4,4 UV-I 762 W/m 14,2 C 16,7 C 16,1 km/h (3 Bft) 100,00 %
02.06.2016 15:32 18,4 C 78 % 1009,4 hPa 0,0 l/m 6,4 km/h (2 Bft) S-SW 209 1 min 0,000 mm 4,4 UV-I 759 W/m 14,5 C 18,4 C 11,3 km/h (2 Bft) 100,00 %
02.06.2016 15:33 18,4 C 76 % 1009,3 hPa 0,0 l/m 7,3 km/h (2 Bft) W-SW 242 1 min 0,000 mm 4,3 UV-I 759 W/m 14,1 C 18,0 C 12,9 km/h (3 Bft) 100,00 %
02.06.2016 15:34 18,4 C 78 % 1009,3 hPa 0,0 l/m 9,8 km/h (2 Bft) SW 229 1 min 0,000 mm 4,3 UV-I 753 W/m 14,5 C 16,9 C 12,9 km/h (3 Bft) 100,00 %
02.06.2016 15:35 18,4 C 77 % 1009,3 hPa 0,0 l/m 5,3 km/h (1 Bft) S 180 1 min 0,000 mm 4,3 UV-I 754 W/m 14,3 C 18,4 C 8,0 km/h (2 Bft) 100,00 %
02.06.2016 15:36 18,4 C 78 % 1009,2 hPa 0,0 l/m 7,6 km/h (2 Bft) W 259 1 min 0,000 mm 4,3 UV-I 758 W/m 14,5 C 17,8 C 12,9 km/h (3 Bft) 100,00 %
02.06.2016 15:37 18,6 C 77 % 1009,2 hPa 0,0 l/m 12,0 km/h (2 Bft) W 259 1 min 0,000 mm 4,2 UV-I 755 W/m 14,5 C 16,4 C 17,7 km/h (3 Bft) 95,83 %
02.06.2016 15:38 18,4 C 76 % 1009,3 hPa 0,0 l/m 6,7 km/h (2 Bft) W-SW 254 1 min 0,000 mm 4,2 UV-I 752 W/m 14,1 C 18,3 C 11,3 km/h (2 Bft) 100,00 %
02.06.2016 15:39 18,4 C 75 % 1009,2 hPa 0,0 l/m 7,6 km/h (2 Bft) SW 215 1 min 0,000 mm 4,2 UV-I 750 W/m 13,9 C 17,8 C 14,5 km/h (3 Bft) 100,00 %
02.06.2016 15:40 18,3 C 76 % 1009,2 hPa 0,0 l/m 11,7 km/h (2 Bft) W 263 1 min 0,000 mm 4,1 UV-I 748 W/m 14,0 C 16,2 C 16,1 km/h (3 Bft) 100,00 %
02.06.2016 15:41 18,3 C 76 % 1009,3 hPa 0,0 l/m 6,9 km/h (2 Bft) W-SW 240 1 min 0,000 mm 4,2 UV-I 751 W/m 14,0 C 18,1 C 12,9 km/h (3 Bft) 100,00 %
02.06.2016 15:42 18,3 C 75 % 1009,2 hPa 0,0 l/m 3,8 km/h (1 Bft) W-SW 255 1 min 0,000 mm 4,2 UV-I 752 W/m 13,8 C 18,3 C 4,8 km/h (1 Bft) 100,00 %
02.06.2016 15:43 18,3 C 78 % 1009,2 hPa 0,0 l/m 5,4 km/h (1 Bft) W-SW 252 1 min 0,000 mm 4,1 UV-I 745 W/m 14,4 C 18,3 C 9,7 km/h (2 Bft) 100,00 %
02.06.2016 15:44 18,4 C 80 % 1009,2 hPa 0,0 l/m 9,4 km/h (2 Bft) W-SW 251 1 min 0,000 mm 4,1 UV-I 744 W/m 14,9 C 17,1 C 12,9 km/h (3 Bft) 100,00 %
02.06.2016 15:45 18,5 C 76 % 1009,2 hPa 0,0 l/m 9,1 km/h (2 Bft) W-SW 243 1 min 0,000 mm 4,1 UV-I 741 W/m 14,2 C 17,3 C 14,5 km/h (3 Bft) 95,65 %
02.06.2016 15:46 18,5 C 76 % 1009,2 hPa 0,0 l/m 9,9 km/h (2 Bft) W-SW 238 1 min 0,000 mm 4,0 UV-I 740 W/m 14,2 C 17,0 C 14,5 km/h (3 Bft) 100,00 %
02.06.2016 15:47 18,5 C 78 % 1009,2 hPa 0,0 l/m 7,5 km/h (2 Bft) W 281 1 min 0,000 mm 4,0 UV-I 739 W/m 14,6 C 18,0 C 11,3 km/h (2 Bft) 100,00 %
02.06.2016 15:48 18,6 C 76 % 1009,2 hPa 0,0 l/m 4,1 km/h (1 Bft) W 278 1 min 0,000 mm 4,0 UV-I 736 W/m 14,3 C 18,6 C 6,4 km/h (2 Bft) 100,00 %
02.06.2016 15:49 18,7 C 77 % 1009,2 hPa 0,0 l/m 4,8 km/h (1 Bft) W-SW 250 1 min 0,000 mm 4,0 UV-I 735 W/m 14,6 C 18,7 C 11,3 km/h (2 Bft) 100,00 %
02.06.2016 15:50 18,8 C 74 % 1009,2 hPa 0,0 l/m 9,6 km/h (2 Bft) S-SW 212 1 min 0,000 mm 4,0 UV-I 738 W/m 14,1 C 17,5 C 12,9 km/h (3 Bft) 100,00 %
02.06.2016 15:51 18,8 C 73 % 1009,2 hPa 0,0 l/m 11,6 km/h (2 Bft) SW 217 1 min 0,000 mm 4,0 UV-I 737 W/m 13,9 C 16,8 C 14,5 km/h (3 Bft) 96,15 %
02.06.2016 15:52 18,8 C 73 % 1009,2 hPa 0,0 l/m 8,3 km/h (2 Bft) W-SW 252 1 min 0,000 mm 4,0 UV-I 733 W/m 13,9 C 18,0 C 11,3 km/h (2 Bft) 100,00 %
02.06.2016 15:53 18,8 C 74 % 1009,1 hPa 0,0 l/m 8,9 km/h (2 Bft) SW 221 1 min 0,000 mm 3,9 UV-I 722 W/m 14,1 C 17,7 C 14,5 km/h (3 Bft) 100,00 %
02.06.2016 15:54 18,7 C 74 % 1009,1 hPa 0,0 l/m 9,8 km/h (2 Bft) SW 234 1 min 0,000 mm 3,9 UV-I 725 W/m 14,0 C 17,3 C 14,5 km/h (3 Bft) 100,00 %
02.06.2016 15:55 18,7 C 74 % 1009,1 hPa 0,0 l/m 5,2 km/h (1 Bft) SW 219 1 min 0,000 mm 3,9 UV-I 722 W/m 14,0 C 18,7 C 8,0 km/h (2 Bft) 95,65 %
02.06.2016 15:56 18,7 C 71 % 1009,1 hPa 0,0 l/m 3,8 km/h (1 Bft) SW 215 1 min 0,000 mm 3,8 UV-I 718 W/m 13,3 C 18,7 C 6,4 km/h (2 Bft) 100,00 %
02.06.2016 15:57 18,7 C 74 % 1009,1 hPa 0,0 l/m 8,2 km/h (2 Bft) W 275 1 min 0,000 mm 3,8 UV-I 714 W/m 14,0 C 17,9 C 14,5 km/h (3 Bft) 100,00 %
02.06.2016 15:58 18,6 C 72 % 1009,1 hPa 0,0 l/m 6,5 km/h (2 Bft) W-NW 300 1 min 0,000 mm 3,8 UV-I 711 W/m 13,4 C 18,6 C 14,5 km/h (3 Bft) 95,83 %
02.06.2016 15:59 18,6 C 73 % 1009,0 hPa 0,0 l/m 6,7 km/h (2 Bft) W-SW 252 1 min 0,000 mm 3,7 UV-I 709 W/m 13,7 C 18,5 C 11,3 km/h (2 Bft) 95,65 %
02.06.2016 16:00 18,6 C 75 % 1009,0 hPa 0,0 l/m 4,8 km/h (1 Bft) NW 321 1 min 0,432 mm 3,7 UV-I 707 W/m 14,1 C 18,6 C 9,7 km/h (2 Bft) 91,67 %
02.06.2016 16:01 18,7 C 74 % 1009,0 hPa 0,0 l/m 5,1 km/h (1 Bft) W-NW 292 1 min 0,000 mm 3,7 UV-I 705 W/m 14,0 C 18,7 C 9,7 km/h (2 Bft) 96,30 %
02.06.2016 16:02 18,7 C 72 % 1009,1 hPa 0,0 l/m 7,1 km/h (2 Bft) W 263 1 min 0,000 mm 3,7 UV-I 701 W/m 13,5 C 18,4 C 9,7 km/h (2 Bft) 100,00 %
02.06.2016 16:03 18,8 C 73 % 1009,1 hPa 0,0 l/m 5,7 km/h (1 Bft) W 279 1 min 0,000 mm 3,7 UV-I 702 W/m 13,9 C 18,8 C 9,7 km/h (2 Bft) 95,83 %
02.06.2016 16:04 18,8 C 74 % 1009,1 hPa 0,0 l/m 6,7 km/h (2 Bft) W-SW 245 1 min 0,000 mm 3,7 UV-I 702 W/m 14,1 C 18,7 C 11,3 km/h (2 Bft) 95,65 %
02.06.2016 16:05 18,9 C 75 % 1009,0 hPa 0,0 l/m 8,2 km/h (2 Bft) SW 228 1 min 0,000 mm 3,6 UV-I 698 W/m 14,4 C 18,1 C 12,9 km/h (3 Bft) 95,83 %
02.06.2016 16:06 18,9 C 70 % 1009,0 hPa 0,0 l/m 7,7 km/h (2 Bft) SW 230 1 min 0,000 mm 3,6 UV-I 694 W/m 13,3 C 18,3 C 14,5 km/h (3 Bft) 100,00 %
02.06.2016 16:07 18,9 C 73 % 1009,0 hPa 0,0 l/m 5,1 km/h (1 Bft) W 281 1 min 0,000 mm 3,5 UV-I 689 W/m 13,9 C 18,9 C 9,7 km/h (2 Bft) 95,83 %
02.06.2016 16:08 18,8 C 71 % 1009,0 hPa 0,0 l/m 4,6 km/h (1 Bft) NW 311 1 min 0,000 mm 3,5 UV-I 688 W/m 13,4 C 18,8 C 6,4 km/h (2 Bft) 91,30 %
02.06.2016 16:09 18,8 C 71 % 1009,0 hPa 0,0 l/m 1,1 km/h (1 Bft) NW 311 1 min 0,000 mm 3,5 UV-I 687 W/m 13,4 C 18,8 C 1,6 km/h (1 Bft) 100,00 %
02.06.2016 16:10 18,7 C 70 % 1009,0 hPa 0,0 l/m 3,7 km/h (1 Bft) W-SW 239 1 min 0,000 mm 3,5 UV-I 685 W/m 13,1 C 18,7 C 4,8 km/h (1 Bft) 95,65 %
02.06.2016 16:11 18,7 C 73 % 1009,0 hPa 0,0 l/m 5,9 km/h (2 Bft) W-SW 246 1 min 0,000 mm 3,5 UV-I 681 W/m 13,8 C 18,7 C 8,0 km/h (2 Bft) 95,83 %
02.06.2016 16:12 18,8 C 77 % 1009,0 hPa 0,0 l/m 7,1 km/h (2 Bft) SW 227 1 min 0,000 mm 3,4 UV-I 680 W/m 14,7 C 18,5 C 12,9 km/h (3 Bft) 95,65 %
02.06.2016 16:13 18,8 C 73 % 1009,0 hPa 0,0 l/m 10,2 km/h (2 Bft) SW 227 1 min 0,000 mm 3,1 UV-I 675 W/m 13,9 C 17,2 C 14,5 km/h (3 Bft) 100,00 %
02.06.2016 16:14 18,8 C 72 % 1009,0 hPa 0,0 l/m 7,3 km/h (2 Bft) W-SW 247 1 min 0,000 mm 3,4 UV-I 673 W/m 13,6 C 18,4 C 12,9 km/h (3 Bft) 91,30 %
02.06.2016 16:15 18,8 C 72 % 1009,0 hPa 0,0 l/m 4,2 km/h (1 Bft) SW 225 1 min 0,000 mm 3,4 UV-I 672 W/m 13,6 C 18,8 C 8,0 km/h (2 Bft) 95,83 %
02.06.2016 16:16 18,9 C 73 % 1009,0 hPa 0,0 l/m 8,6 km/h (2 Bft) SW 226 1 min 0,000 mm 3,3 UV-I 669 W/m 13,9 C 18,0 C 16,1 km/h (3 Bft) 95,83 %
02.06.2016 16:17 18,9 C 69 % 1009,0 hPa 0,0 l/m 11,1 km/h (2 Bft) SW 223 1 min 0,000 mm 3,3 UV-I 667 W/m 13,1 C 17,0 C 14,5 km/h (3 Bft) 95,65 %
02.06.2016 16:18 18,8 C 69 % 1009,0 hPa 0,0 l/m 8,2 km/h (2 Bft) S-SW 197 1 min 0,000 mm 3,3 UV-I 664 W/m 13,0 C 18,0 C 9,7 km/h (2 Bft) 100,00 %
02.06.2016 16:19 18,7 C 72 % 1009,0 hPa 0,0 l/m 6,9 km/h (2 Bft) SW 225 1 min 0,000 mm 3,1 UV-I 663 W/m 13,5 C 18,5 C 9,7 km/h (2 Bft) 95,65 %
02.06.2016 16:20 18,7 C 71 % 1009,0 hPa 0,0 l/m 8,7 km/h (2 Bft) W-SW 238 1 min 0,000 mm 3,2 UV-I 660 W/m 13,3 C 17,7 C 16,1 km/h (3 Bft) 100,00 %
02.06.2016 16:21 18,8 C 72 % 1009,0 hPa 0,0 l/m 10,5 km/h (2 Bft) W 263 1 min 0,000 mm 3,2 UV-I 657 W/m 13,6 C 17,1 C 14,5 km/h (3 Bft) 96,15 %
02.06.2016 16:22 18,8 C 70 % 1009,0 hPa 0,0 l/m 9,1 km/h (2 Bft) W-SW 246 1 min 0,000 mm 3,2 UV-I 659 W/m 13,2 C 17,6 C 14,5 km/h (3 Bft) 100,00 %
02.06.2016 16:23 18,8 C 70 % 1009,0 hPa 0,0 l/m 10,1 km/h (2 Bft) SW 232 1 min 0,000 mm 3,1 UV-I 659 W/m 13,2 C 17,3 C 12,9 km/h (3 Bft) 92,86 %
02.06.2016 16:24 18,8 C 74 % 1008,9 hPa 0,0 l/m 9,5 km/h (2 Bft) W-SW 244 1 min 0,000 mm 3,1 UV-I 661 W/m 14,1 C 17,5 C 12,9 km/h (3 Bft) 100,00 %
02.06.2016 16:25 18,9 C 72 % 1008,9 hPa 0,0 l/m 8,6 km/h (2 Bft) W-SW 244 1 min 0,000 mm 3,1 UV-I 656 W/m 13,7 C 18,0 C 11,3 km/h (2 Bft) 95,65 %
02.06.2016 16:26 18,9 C 74 % 1009,0 hPa 0,0 l/m 5,7 km/h (1 Bft) W-SW 238 1 min 0,000 mm 3,1 UV-I 650 W/m 14,2 C 18,9 C 9,7 km/h (2 Bft) 100,00 %
02.06.2016 16:27 18,9 C 72 % 1008,9 hPa 0,0 l/m 4,6 km/h (1 Bft) W-NW 300 1 min 0,000 mm 3,1 UV-I 645 W/m 13,7 C 18,9 C 6,4 km/h (2 Bft) 95,65 %
02.06.2016 16:28 18,9 C 73 % 1008,9 hPa 0,0 l/m 2,6 km/h (1 Bft) W-SW 248 1 min 0,000 mm 3,1 UV-I 641 W/m 13,9 C 18,9 C 6,4 km/h (2 Bft) 95,83 %
02.06.2016 16:29 19,0 C 72 % 1008,9 hPa 0,0 l/m 3,7 km/h (1 Bft) SW 235 1 min 0,000 mm 3,0 UV-I 640 W/m 13,8 C 19,0 C 6,4 km/h (2 Bft) 100,00 %
02.06.2016 16:30 18,9 C 72 % 1008,9 hPa 0,0 l/m 8,3 km/h (2 Bft) SW 229 1 min 0,000 mm 3,0 UV-I 636 W/m 13,7 C 18,1 C 12,9 km/h (3 Bft) 100,00 %
02.06.2016 16:31 18,9 C 73 % 1008,9 hPa 0,0 l/m 6,1 km/h (2 Bft) W 266 1 min 0,000 mm 3,0 UV-I 635 W/m 13,9 C 18,9 C 11,3 km/h (2 Bft) 95,65 %
02.06.2016 16:32 19,0 C 72 % 1008,9 hPa 0,0 l/m 5,6 km/h (1 Bft) W-NW 292 1 min 0,000 mm 2,9 UV-I 634 W/m 13,8 C 19,0 C 11,3 km/h (2 Bft) 100,00 %
02.06.2016 16:33 19,0 C 72 % 1008,9 hPa 0,0 l/m 1,8 km/h (1 Bft) W-NW 292 1 min 0,000 mm 2,9 UV-I 630 W/m 13,8 C 19,0 C 3,2 km/h (1 Bft) 95,83 %
02.06.2016 16:34 19,1 C 74 % 1008,9 hPa 0,0 l/m 1,0 km/h (0 Bft) W 261 1 min 0,000 mm 2,9 UV-I 628 W/m 14,4 C 19,1 C 6,4 km/h (2 Bft) 100,00 %
02.06.2016 16:35 19,1 C 72 % 1008,9 hPa 0,0 l/m 9,5 km/h (2 Bft) SW 229 1 min 0,000 mm 2,9 UV-I 628 W/m 13,9 C 17,8 C 12,9 km/h (3 Bft) 100,00 %
02.06.2016 16:36 19,2 C 72 % 1008,9 hPa 0,0 l/m 6,7 km/h (2 Bft) W 264 1 min 0,000 mm 2,9 UV-I 626 W/m 14,0 C 19,1 C 9,7 km/h (2 Bft) 96,15 %
02.06.2016 16:37 19,2 C 73 % 1008,9 hPa 0,0 l/m 8,0 km/h (2 Bft) W 277 1 min 0,000 mm 2,8 UV-I 628 W/m 14,2 C 18,5 C 12,9 km/h (3 Bft) 95,83 %
02.06.2016 16:38 19,2 C 70 % 1008,8 hPa 0,0 l/m 3,1 km/h (1 Bft) W 281 1 min 0,000 mm 2,8 UV-I 627 W/m 13,6 C 19,2 C 4,8 km/h (1 Bft) 100,00 %
02.06.2016 16:39 19,1 C 70 % 1008,8 hPa 0,0 l/m 1,7 km/h (1 Bft) S-SO 163 1 min 0,000 mm 2,8 UV-I 622 W/m 13,5 C 19,1 C 3,2 km/h (1 Bft) 100,00 %
02.06.2016 16:40 19,1 C 71 % 1008,8 hPa 0,0 l/m 6,6 km/h (2 Bft) S-SW 199 1 min 0,000 mm 2,8 UV-I 617 W/m 13,7 C 19,0 C 8,0 km/h (2 Bft) 95,65 %
02.06.2016 16:41 19,2 C 76 % 1008,8 hPa 0,0 l/m 3,3 km/h (1 Bft) SW 227 1 min 0,000 mm 2,7 UV-I 613 W/m 14,9 C 19,2 C 6,4 km/h (2 Bft) 100,00 %
02.06.2016 16:42 19,3 C 72 % 1008,8 hPa 0,0 l/m 5,1 km/h (1 Bft) W 270 1 min 0,000 mm 2,7 UV-I 606 W/m 14,1 C 19,3 C 6,4 km/h (2 Bft) 95,65 %
02.06.2016 16:43 19,3 C 69 % 1008,8 hPa 0,0 l/m 5,2 km/h (1 Bft) W 263 1 min 0,000 mm 2,7 UV-I 606 W/m 13,5 C 19,3 C 9,7 km/h (2 Bft) 100,00 %
02.06.2016 16:44 19,3 C 72 % 1008,8 hPa 0,0 l/m 4,2 km/h (1 Bft) W 274 1 min 0,000 mm 2,7 UV-I 603 W/m 14,1 C 19,3 C 6,4 km/h (2 Bft) 98,40 %
02.06.2016 16:45 19,4 C 71 % 1008,8 hPa 0,0 l/m 6,2 km/h (2 Bft) W-SW 257 1 min 0,000 mm 2,6 UV-I 598 W/m 14,0 C 19,4 C 8,0 km/h (2 Bft) 94,74 %
02.06.2016 16:46 19,4 C 70 % 1008,8 hPa 0,0 l/m 6,2 km/h (2 Bft) W 266 1 min 0,000 mm 2,6 UV-I 596 W/m 13,8 C 19,4 C 11,3 km/h (2 Bft) 100,00 %
02.06.2016 16:47 19,4 C 70 % 1008,8 hPa 0,0 l/m 6,6 km/h (2 Bft) W-SW 241 1 min 0,000 mm 2,6 UV-I 596 W/m 13,8 C 19,3 C 11,3 km/h (2 Bft) 95,83 %
02.06.2016 16:48 19,4 C 68 % 1008,9 hPa 0,0 l/m 4,4 km/h (1 Bft) W 277 1 min 0,000 mm 2,6 UV-I 596 W/m 13,3 C 19,4 C 6,4 km/h (2 Bft) 95,65 %
02.06.2016 16:49 19,5 C 70 % 1008,8 hPa 0,0 l/m 6,6 km/h (2 Bft) W-SW 255 1 min 0,000 mm 2,5 UV-I 592 W/m 13,9 C 19,4 C 9,7 km/h (2 Bft) 96,30 %
02.06.2016 16:50 19,6 C 71 % 1008,8 hPa 0,0 l/m 5,8 km/h (2 Bft) W-NW 290 1 min 0,000 mm 2,5 UV-I 590 W/m 14,2 C 19,6 C 9,7 km/h (2 Bft) 91,30 %
02.06.2016 16:51 19,6 C 70 % 1008,8 hPa 0,0 l/m 3,8 km/h (1 Bft) W 275 1 min 0,000 mm 2,5 UV-I 592 W/m 14,0 C 19,6 C 6,4 km/h (2 Bft) 100,00 %
02.06.2016 16:52 19,6 C 66 % 1008,8 hPa 0,0 l/m 5,0 km/h (1 Bft) W-SW 247 1 min 0,000 mm 2,2 UV-I 594 W/m 13,1 C 19,6 C 9,7 km/h (2 Bft) 100,00 %
02.06.2016 16:53 19,4 C 68 % 1008,8 hPa 0,0 l/m 3,2 km/h (1 Bft) SW 226 1 min 0,000 mm 2,3 UV-I 594 W/m 13,3 C 19,4 C 11,3 km/h (2 Bft) 100,00 %
02.06.2016 16:54 19,3 C 68 % 1008,8 hPa 0,0 l/m 8,3 km/h (2 Bft) W-SW 240 1 min 0,000 mm 2,4 UV-I 595 W/m 13,2 C 18,5 C 11,3 km/h (2 Bft) 100,00 %
02.06.2016 16:55 19,3 C 69 % 1008,8 hPa 0,0 l/m 6,6 km/h (2 Bft) SW 221 1 min 0,000 mm 2,4 UV-I 584 W/m 13,5 C 19,2 C 9,7 km/h (2 Bft) 100,00 %
02.06.2016 16:56 19,2 C 69 % 1008,8 hPa 0,0 l/m 3,5 km/h (1 Bft) N 5 1 min 0,000 mm 2,3 UV-I 576 W/m 13,4 C 19,2 C 8,0 km/h (2 Bft) 100,00 %
02.06.2016 16:57 19,2 C 68 % 1008,8 hPa 0,0 l/m 5,3 km/h (1 Bft) NW 309 1 min 0,000 mm 2,3 UV-I 572 W/m 13,1 C 19,2 C 9,7 km/h (2 Bft) 100,00 %
02.06.2016 16:58 19,2 C 71 % 1008,8 hPa 0,0 l/m 3,5 km/h (1 Bft) W-NW 283 1 min 0,000 mm 2,3 UV-I 572 W/m 13,8 C 19,2 C 4,8 km/h (1 Bft) 100,00 %
02.06.2016 16:59 19,3 C 70 % 1008,8 hPa 0,0 l/m 4,9 km/h (1 Bft) NW 308 1 min 0,000 mm 2,3 UV-I 568 W/m 13,7 C 19,3 C 8,0 km/h (2 Bft) 100,00 %
02.06.2016 17:00 19,3 C 70 % 1008,8 hPa 0,0 l/m 4,1 km/h (1 Bft) NW 309 1 min 0,000 mm 2,3 UV-I 564 W/m 13,7 C 19,3 C 9,7 km/h (2 Bft) 100,00 %
02.06.2016 17:01 19,3 C 71 % 1008,8 hPa 0,0 l/m 1,9 km/h (1 Bft) NW 320 1 min 0,381 mm 2,2 UV-I 567 W/m 13,9 C 19,3 C 3,2 km/h (1 Bft) 100,00 %
02.06.2016 17:02 19,4 C 69 % 1008,8 hPa 0,0 l/m 3,8 km/h (1 Bft) N-NW 327 1 min 0,000 mm 2,2 UV-I 568 W/m 13,6 C 19,4 C 6,4 km/h (2 Bft) 100,00 %
02.06.2016 17:03 19,4 C 71 % 1008,8 hPa 0,0 l/m 1,2 km/h (1 Bft) N-NW 338 1 min 0,000 mm 2,2 UV-I 567 W/m 14,0 C 19,4 C 1,6 km/h (1 Bft) 95,65 %
02.06.2016 17:04 19,4 C 72 % 1008,8 hPa 0,0 l/m 3,8 km/h (1 Bft) W-SW 244 1 min 0,000 mm 2,2 UV-I 566 W/m 14,2 C 19,4 C 6,4 km/h (2 Bft) 100,00 %
02.06.2016 17:05 19,5 C 69 % 1008,8 hPa 0,0 l/m 3,8 km/h (1 Bft) W-NW 295 1 min 0,000 mm 2,2 UV-I 561 W/m 13,7 C 19,5 C 6,4 km/h (2 Bft) 100,00 %
02.06.2016 17:06 19,5 C 68 % 1008,8 hPa 0,0 l/m 7,7 km/h (2 Bft) W-SW 244 1 min 0,000 mm 2,1 UV-I 553 W/m 13,4 C 18,9 C 14,5 km/h (3 Bft) 100,00 %
02.06.2016 17:07 19,5 C 69 % 1008,8 hPa 0,0 l/m 9,4 km/h (2 Bft) SW 224 1 min 0,000 mm 2,1 UV-I 555 W/m 13,7 C 18,3 C 14,5 km/h (3 Bft) 90,91 %
02.06.2016 17:08 19,5 C 68 % 1008,8 hPa 0,0 l/m 3,8 km/h (1 Bft) W 271 1 min 0,000 mm 2,1 UV-I 554 W/m 13,4 C 19,5 C 4,8 km/h (1 Bft) 100,00 %
02.06.2016 17:09 19,5 C 69 % 1008,8 hPa 0,0 l/m 4,6 km/h (1 Bft) W 272 1 min 0,000 mm 2,1 UV-I 554 W/m 13,7 C 19,5 C 6,4 km/h (2 Bft) 100,00 %
02.06.2016 17:10 19,5 C 66 % 1008,8 hPa 0,0 l/m 4,3 km/h (1 Bft) W-SW 249 1 min 0,000 mm 2,0 UV-I 551 W/m 13,0 C 19,5 C 8,0 km/h (2 Bft) 100,00 %
02.06.2016 17:11 19,4 C 70 % 1008,8 hPa 0,0 l/m 6,4 km/h (2 Bft) W-NW 290 1 min 0,000 mm 2,0 UV-I 542 W/m 13,8 C 19,4 C 11,3 km/h (2 Bft) 100,00 %
02.06.2016 17:12 19,5 C 70 % 1008,8 hPa 0,0 l/m 6,8 km/h (2 Bft) W-NW 292 1 min 0,000 mm 2,0 UV-I 540 W/m 13,9 C 19,3 C 11,3 km/h (2 Bft) 100,00 %
02.06.2016 17:13 19,6 C 71 % 1008,8 hPa 0,0 l/m 6,8 km/h (2 Bft) W 271 1 min 0,000 mm 2,0 UV-I 542 W/m 14,2 C 19,4 C 9,7 km/h (2 Bft) 100,00 %
02.06.2016 17:14 19,6 C 68 % 1008,8 hPa 0,0 l/m 5,4 km/h (1 Bft) W-SW 244 1 min 0,000 mm 2,0 UV-I 532 W/m 13,5 C 19,6 C 8,0 km/h (2 Bft) 100,00 %
02.06.2016 17:15 19,6 C 70 % 1008,8 hPa 0,0 l/m 5,7 km/h (1 Bft) W-NW 292 1 min 0,000 mm 1,9 UV-I 529 W/m 14,0 C 19,6 C 8,0 km/h (2 Bft) 100,00 %
02.06.2016 17:16 19,6 C 70 % 1008,8 hPa 0,0 l/m 6,1 km/h (2 Bft) W 259 1 min 0,000 mm 1,9 UV-I 537 W/m 14,0 C 19,6 C 12,9 km/h (3 Bft) 100,00 %
02.06.2016 17:17 19,6 C 68 % 1008,8 hPa 0,0 l/m 4,2 km/h (1 Bft) W-NW 289 1 min 0,000 mm 1,9 UV-I 547 W/m 13,5 C 19,6 C 6,4 km/h (2 Bft) 100,00 %
02.06.2016 17:18 19,6 C 67 % 1008,9 hPa 0,0 l/m 1,3 km/h (1 Bft) W-NW 286 1 min 0,000 mm 1,5 UV-I 548 W/m 13,3 C 19,6 C 3,2 km/h (1 Bft) 100,00 %
02.06.2016 17:19 19,6 C 69 % 1008,8 hPa 0,0 l/m 3,7 km/h (1 Bft) W-SW 238 1 min 0,000 mm 1,7 UV-I 548 W/m 13,8 C 19,6 C 8,0 km/h (2 Bft) 100,00 %
02.06.2016 17:20 19,5 C 67 % 1008,8 hPa 0,0 l/m 4,8 km/h (1 Bft) S-SW 209 1 min 0,000 mm 1,6 UV-I 548 W/m 13,2 C 19,5 C 9,7 km/h (2 Bft) 95,65 %
02.06.2016 17:21 19,4 C 68 % 1008,8 hPa 0,0 l/m 4,8 km/h (1 Bft) N-NW 331 1 min 0,000 mm 1,3 UV-I 548 W/m 13,3 C 19,4 C 11,3 km/h (2 Bft) 95,83 %
02.06.2016 17:22 19,3 C 67 % 1008,8 hPa 0,0 l/m 3,3 km/h (1 Bft) N-NW 329 1 min 0,000 mm 1,3 UV-I 548 W/m 13,0 C 19,3 C 4,8 km/h (1 Bft) 100,00 %
02.06.2016 17:23 19,3 C 68 % 1008,8 hPa 0,0 l/m 4,6 km/h (1 Bft) SW 223 0 min 0,000 mm 1,3 UV-I 154 W/m 13,2 C 19,3 C 6,4 km/h (2 Bft) 100,00 %
02.06.2016 17:24 19,2 C 69 % 1008,8 hPa 0,0 l/m 4,1 km/h (1 Bft) N-NW 342 0 min 0,000 mm 1,7 UV-I 228 W/m 13,4 C 19,2 C 9,7 km/h (2 Bft) 95,65 %
02.06.2016 17:25 19,2 C 68 % 1008,9 hPa 0,0 l/m 2,8 km/h (1 Bft) W-SW 249 1 min 0,000 mm 1,7 UV-I 556 W/m 13,1 C 19,2 C 4,8 km/h (1 Bft) 100,00 %
02.06.2016 17:26 19,2 C 70 % 1008,8 hPa 0,0 l/m 3,3 km/h (1 Bft) W-SW 249 1 min 0,000 mm 1,7 UV-I 555 W/m 13,6 C 19,2 C 4,8 km/h (1 Bft) 95,65 %
02.06.2016 17:27 19,3 C 72 % 1008,8 hPa 0,0 l/m 1,7 km/h (1 Bft) NW 306 1 min 0,000 mm 1,6 UV-I 548 W/m 14,1 C 19,3 C 4,8 km/h (1 Bft) 100,00 %
02.06.2016 17:28 19,4 C 74 % 1008,8 hPa 0,0 l/m 3,7 km/h (1 Bft) W 275 1 min 0,000 mm 1,6 UV-I 545 W/m 14,6 C 19,4 C 9,7 km/h (2 Bft) 95,65 %
02.06.2016 17:29 19,6 C 73 % 1008,8 hPa 0,0 l/m 4,3 km/h (1 Bft) SW 235 1 min 0,000 mm 1,5 UV-I 545 W/m 14,6 C 19,6 C 8,0 km/h (2 Bft) 100,00 %
02.06.2016 17:30 19,6 C 70 % 1008,8 hPa 0,0 l/m 8,6 km/h (2 Bft) SW 234 1 min 0,000 mm 1,6 UV-I 545 W/m 14,0 C 18,7 C 11,3 km/h (2 Bft) 100,00 %
02.06.2016 17:31 19,6 C 71 % 1008,8 hPa 0,0 l/m 11,3 km/h (2 Bft) W-SW 253 1 min 0,000 mm 1,3 UV-I 545 W/m 14,2 C 17,8 C 16,1 km/h (3 Bft) 100,00 %
02.06.2016 17:32 19,6 C 70 % 1008,8 hPa 0,0 l/m 13,6 km/h (3 Bft) W 262 1 min 0,000 mm 1,4 UV-I 419 W/m 14,0 C 17,1 C 17,7 km/h (3 Bft) 96,15 %
02.06.2016 17:33 19,4 C 69 % 1008,8 hPa 0,0 l/m 12,2 km/h (2 Bft) W-SW 257 1 min 0,000 mm 1,4 UV-I 334 W/m 13,6 C 17,3 C 16,1 km/h (3 Bft) 100,00 %
02.06.2016 17:34 19,4 C 71 % 1008,7 hPa 0,0 l/m 5,7 km/h (1 Bft) SW 229 1 min 0,000 mm 1,4 UV-I 313 W/m 14,0 C 19,4 C 9,7 km/h (2 Bft) 100,00 %
02.06.2016 17:35 19,3 C 70 % 1008,7 hPa 0,0 l/m 8,1 km/h (2 Bft) W-SW 251 0 min 0,000 mm 1,3 UV-I 224 W/m 13,7 C 18,6 C 11,3 km/h (2 Bft) 100,00 %
02.06.2016 17:36 19,2 C 72 % 1008,7 hPa 0,0 l/m 7,9 km/h (2 Bft) SW 221 0 min 0,000 mm 1,2 UV-I 182 W/m 14,0 C 18,6 C 11,3 km/h (2 Bft) 100,00 %
02.06.2016 17:37 19,1 C 72 % 1008,7 hPa 0,0 l/m 7,1 km/h (2 Bft) W-SW 247 0 min 0,000 mm 1,2 UV-I 179 W/m 13,9 C 18,8 C 11,3 km/h (2 Bft) 91,30 %
02.06.2016 17:38 18,9 C 72 % 1008,6 hPa 0,0 l/m 9,2 km/h (2 Bft) W-SW 249 0 min 0,000 mm 1,1 UV-I 121 W/m 13,7 C 17,7 C 14,5 km/h (3 Bft) 100,00 %
02.06.2016 17:39 18,8 C 72 % 1008,6 hPa 0,0 l/m 10,8 km/h (2 Bft) W-SW 253 0 min 0,000 mm 1,0 UV-I 90 W/m 13,6 C 17,0 C 14,5 km/h (3 Bft) 100,00 %
02.06.2016 17:40 18,7 C 73 % 1008,6 hPa 0,0 l/m 7,4 km/h (2 Bft) W-SW 254 0 min 0,000 mm 1,0 UV-I 74 W/m 13,8 C 18,2 C 11,3 km/h (2 Bft) 100,00 %
02.06.2016 17:41 18,6 C 73 % 1008,6 hPa 0,0 l/m 6,4 km/h (2 Bft) W-SW 250 0 min 0,000 mm 1,0 UV-I 62 W/m 13,7 C 18,6 C 9,7 km/h (2 Bft) 95,65 %
02.06.2016 17:42 18,4 C 75 % 1008,6 hPa 0,0 l/m 4,8 km/h (1 Bft) W-SW 253 0 min 0,000 mm 0,9 UV-I 57 W/m 13,9 C 18,4 C 6,4 km/h (2 Bft) 100,00 %
02.06.2016 17:43 18,3 C 75 % 1008,6 hPa 0,0 l/m 5,2 km/h (1 Bft) SW 227 0 min 0,000 mm 0,9 UV-I 56 W/m 13,8 C 18,3 C 8,0 km/h (2 Bft) 100,00 %
02.06.2016 17:44 18,3 C 76 % 1008,5 hPa 0,0 l/m 6,1 km/h (2 Bft) W-SW 257 0 min 0,000 mm 0,9 UV-I 56 W/m 14,0 C 18,3 C 11,3 km/h (2 Bft) 100,00 %
02.06.2016 17:45 18,2 C 75 % 1008,6 hPa 0,0 l/m 5,8 km/h (2 Bft) W-SW 250 0 min 0,000 mm 0,9 UV-I 56 W/m 13,7 C 18,2 C 6,4 km/h (2 Bft) 95,65 %
02.06.2016 17:46 18,1 C 76 % 1008,5 hPa 0,0 l/m 6,6 km/h (2 Bft) W-SW 242 0 min 0,000 mm 0,9 UV-I 56 W/m 13,8 C 18,0 C 9,7 km/h (2 Bft) 100,00 %
02.06.2016 17:47 18,0 C 77 % 1008,5 hPa 0,0 l/m 5,7 km/h (1 Bft) W-SW 246 0 min 0,000 mm 0,9 UV-I 58 W/m 13,9 C 18,0 C 11,3 km/h (2 Bft) 100,00 %
02.06.2016 17:48 17,9 C 77 % 1008,5 hPa 0,0 l/m 7,2 km/h (2 Bft) W-SW 253 0 min 0,000 mm 0,9 UV-I 58 W/m 13,8 C 17,5 C 11,3 km/h (2 Bft) 100,00 %
02.06.2016 17:49 17,9 C 78 % 1008,5 hPa 0,0 l/m 6,9 km/h (2 Bft) W 269 0 min 0,000 mm 0,8 UV-I 58 W/m 14,0 C 17,7 C 9,7 km/h (2 Bft) 100,00 %
02.06.2016 17:50 17,8 C 78 % 1008,4 hPa 0,0 l/m 8,4 km/h (2 Bft) W 271 0 min 0,000 mm 0,8 UV-I 58 W/m 13,9 C 16,9 C 11,3 km/h (2 Bft) 100,00 %
02.06.2016 17:51 17,8 C 78 % 1008,4 hPa 0,0 l/m 7,3 km/h (2 Bft) W-SW 245 0 min 0,000 mm 0,8 UV-I 56 W/m 13,9 C 17,4 C 11,3 km/h (2 Bft) 100,00 %
02.06.2016 17:52 17,8 C 79 % 1008,4 hPa 0,0 l/m 6,9 km/h (2 Bft) W-SW 247 0 min 0,000 mm 0,8 UV-I 58 W/m 14,1 C 17,6 C 11,3 km/h (2 Bft) 100,00 %
02.06.2016 17:53 17,8 C 78 % 1008,4 hPa 0,0 l/m 7,6 km/h (2 Bft) W-SW 244 0 min 0,000 mm 0,8 UV-I 58 W/m 13,9 C 17,2 C 11,3 km/h (2 Bft) 95,83 %
02.06.2016 17:54 17,7 C 80 % 1008,4 hPa 0,0 l/m 6,4 km/h (2 Bft) W-SW 250 0 min 0,000 mm 0,8 UV-I 60 W/m 14,2 C 17,7 C 8,0 km/h (2 Bft) 95,65 %
02.06.2016 17:55 17,7 C 79 % 1008,4 hPa 0,0 l/m 5,8 km/h (2 Bft) W-SW 255 0 min 0,000 mm 0,8 UV-I 60 W/m 14,0 C 17,7 C 11,3 km/h (2 Bft) 100,00 %
02.06.2016 17:56 17,7 C 79 % 1008,4 hPa 0,0 l/m 6,7 km/h (2 Bft) W-SW 254 0 min 0,000 mm 0,8 UV-I 60 W/m 14,0 C 17,6 C 11,3 km/h (2 Bft) 95,65 %
02.06.2016 17:57 17,7 C 80 % 1008,5 hPa 0,0 l/m 9,1 km/h (2 Bft) W-SW 251 0 min 0,000 mm 0,8 UV-I 62 W/m 14,2 C 16,5 C 14,5 km/h (3 Bft) 100,00 %
02.06.2016 17:58 17,6 C 80 % 1008,5 hPa 0,0 l/m 10,6 km/h (2 Bft) W-SW 258 0 min 0,000 mm 0,8 UV-I 62 W/m 14,1 C 15,8 C 12,9 km/h (3 Bft) 91,30 %
02.06.2016 17:59 17,6 C 81 % 1008,5 hPa 0,0 l/m 8,4 km/h (2 Bft) W-SW 257 0 min 0,000 mm 0,8 UV-I 60 W/m 14,3 C 16,7 C 11,3 km/h (2 Bft) 100,00 %
02.06.2016 18:00 17,6 C 81 % 1008,5 hPa 0,0 l/m 7,3 km/h (2 Bft) SW 227 0 min 0,000 mm 0,8 UV-I 57 W/m 14,3 C 17,2 C 8,0 km/h (2 Bft) 96,15 %
02.06.2016 18:01 17,5 C 81 % 1008,5 hPa 0,0 l/m 5,8 km/h (2 Bft) W-SW 240 0 min 0,203 mm 0,7 UV-I 56 W/m 14,2 C 17,5 C 8,0 km/h (2 Bft) 95,83 %
02.06.2016 18:02 17,4 C 82 % 1008,6 hPa 0,0 l/m 7,8 km/h (2 Bft) W-SW 252 0 min 0,000 mm 0,4 UV-I 55 W/m 14,3 C 16,7 C 11,3 km/h (2 Bft) 100,00 %
02.06.2016 18:03 17,3 C 82 % 1008,5 hPa 0,0 l/m 5,8 km/h (2 Bft) W-SW 256 0 min 0,000 mm 0,0 UV-I 53 W/m 14,2 C 17,3 C 8,0 km/h (2 Bft) 95,83 %
02.06.2016 18:04 17,3 C 82 % 1008,5 hPa 0,0 l/m 7,4 km/h (2 Bft) W-SW 243 0 min 0,000 mm 0,0 UV-I 53 W/m 14,2 C 16,8 C 9,7 km/h (2 Bft) 100,00 %
02.06.2016 18:05 17,2 C 81 % 1008,5 hPa 0,0 l/m 7,6 km/h (2 Bft) SW 227 0 min 0,000 mm 0,0 UV-I 51 W/m 13,9 C 16,6 C 12,9 km/h (3 Bft) 95,83 %
02.06.2016 18:06 17,1 C 81 % 1008,5 hPa 0,0 l/m 7,8 km/h (2 Bft) SW 217 0 min 0,000 mm 0,0 UV-I 50 W/m 13,8 C 16,4 C 11,3 km/h (2 Bft) 100,00 %
02.06.2016 18:07 17,1 C 81 % 1008,5 hPa 0,0 l/m 7,0 km/h (2 Bft) W-SW 253 0 min 0,000 mm 0,0 UV-I 49 W/m 13,8 C 16,8 C 9,7 km/h (2 Bft) 95,83 %
02.06.2016 18:08 17,0 C 81 % 1008,5 hPa 0,0 l/m 6,2 km/h (2 Bft) W-SW 253 0 min 0,000 mm 0,0 UV-I 49 W/m 13,7 C 17,0 C 11,3 km/h (2 Bft) 95,65 %
02.06.2016 18:09 16,9 C 82 % 1008,4 hPa 0,0 l/m 4,8 km/h (1 Bft) SW 223 0 min 0,000 mm 0,0 UV-I 47 W/m 13,8 C 16,9 C 8,0 km/h (2 Bft) 100,00 %
02.06.2016 18:10 16,9 C 82 % 1008,5 hPa 0,0 l/m 4,9 km/h (1 Bft) W-SW 238 0 min 0,000 mm 0,0 UV-I 49 W/m 13,8 C 16,9 C 6,4 km/h (2 Bft) 95,65 %
02.06.2016 18:11 16,8 C 82 % 1008,5 hPa 0,0 l/m 4,0 km/h (1 Bft) W-SW 246 0 min 0,000 mm 0,0 UV-I 49 W/m 13,7 C 16,8 C 6,4 km/h (2 Bft) 100,00 %
02.06.2016 18:12 16,8 C 82 % 1008,5 hPa 0,0 l/m 3,8 km/h (1 Bft) W-SW 248 0 min 0,000 mm 0,0 UV-I 49 W/m 13,7 C 16,8 C 4,8 km/h (1 Bft) 95,65 %
02.06.2016 18:13 16,7 C 81 % 1008,6 hPa 0,0 l/m 3,6 km/h (1 Bft) W-SW 242 0 min 0,000 mm 0,0 UV-I 50 W/m 13,4 C 16,7 C 4,8 km/h (1 Bft) 100,00 %
02.06.2016 18:14 16,7 C 81 % 1008,6 hPa 0,0 l/m 3,8 km/h (1 Bft) W-SW 242 0 min 0,000 mm 0,0 UV-I 51 W/m 13,4 C 16,7 C 6,4 km/h (2 Bft) 95,65 %
02.06.2016 18:15 16,7 C 82 % 1008,6 hPa 0,0 l/m 4,6 km/h (1 Bft) S-SW 205 0 min 0,000 mm 0,0 UV-I 51 W/m 13,6 C 16,7 C 8,0 km/h (2 Bft) 100,00 %
02.06.2016 18:16 16,7 C 82 % 1008,6 hPa 0,0 l/m 8,2 km/h (2 Bft) SW 232 0 min 0,000 mm 0,0 UV-I 51 W/m 13,6 C 15,8 C 12,9 km/h (3 Bft) 93,33 %
02.06.2016 18:17 16,7 C 82 % 1008,6 hPa 0,0 l/m 7,1 km/h (2 Bft) W 260 0 min 0,000 mm 0,0 UV-I 53 W/m 13,6 C 16,3 C 11,3 km/h (2 Bft) 95,65 %
02.06.2016 18:18 16,6 C 81 % 1008,7 hPa 0,0 l/m 8,9 km/h (2 Bft) W-SW 250 0 min 0,000 mm 0,0 UV-I 53 W/m 13,3 C 15,4 C 12,9 km/h (3 Bft) 88,89 %
02.06.2016 18:19 16,6 C 80 % 1008,7 hPa 0,0 l/m 7,0 km/h (2 Bft) W-SW 248 0 min 0,000 mm 0,0 UV-I 54 W/m 13,1 C 16,3 C 11,3 km/h (2 Bft) 95,65 %
02.06.2016 18:20 16,5 C 80 % 1008,6 hPa 0,0 l/m 6,6 km/h (2 Bft) W-SW 239 0 min 0,000 mm 0,0 UV-I 54 W/m 13,0 C 16,4 C 11,3 km/h (2 Bft) 100,00 %
02.06.2016 18:21 16,5 C 79 % 1008,7 hPa 0,0 l/m 5,0 km/h (1 Bft) W 261 0 min 0,000 mm 0,0 UV-I 54 W/m 12,8 C 16,5 C 6,4 km/h (2 Bft) 91,30 %
02.06.2016 18:22 16,4 C 80 % 1008,7 hPa 0,0 l/m 4,8 km/h (1 Bft) W-SW 242 0 min 0,000 mm 0,5 UV-I 56 W/m 12,9 C 16,4 C 6,4 km/h (2 Bft) 100,00 %
02.06.2016 18:23 16,4 C 80 % 1008,7 hPa 0,0 l/m 6,5 km/h (2 Bft) W-SW 244 0 min 0,000 mm 0,6 UV-I 58 W/m 12,9 C 16,4 C 9,7 km/h (2 Bft) 95,65 %
02.06.2016 18:24 16,3 C 80 % 1008,7 hPa 0,0 l/m 3,4 km/h (1 Bft) W-SW 238 0 min 0,000 mm 0,6 UV-I 59 W/m 12,8 C 16,3 C 4,8 km/h (1 Bft) 100,00 %
02.06.2016 18:25 16,3 C 80 % 1008,7 hPa 0,0 l/m 3,4 km/h (1 Bft) W-SW 241 0 min 0,000 mm 0,6 UV-I 62 W/m 12,8 C 16,3 C 4,8 km/h (1 Bft) 91,30 %
02.06.2016 18:26 16,3 C 80 % 1008,7 hPa 0,0 l/m 6,1 km/h (2 Bft) S-SW 205 0 min 0,000 mm 0,6 UV-I 64 W/m 12,8 C 16,3 C 9,7 km/h (2 Bft) 100,00 %
02.06.2016 18:27 16,3 C 80 % 1008,7 hPa 0,0 l/m 5,9 km/h (2 Bft) W-SW 246 0 min 0,000 mm 0,6 UV-I 69 W/m 12,8 C 16,3 C 9,7 km/h (2 Bft) 100,00 %
02.06.2016 18:28 16,2 C 81 % 1008,7 hPa 0,0 l/m 5,8 km/h (2 Bft) W-SW 250 0 min 0,000 mm 0,6 UV-I 77 W/m 12,9 C 16,2 C 9,7 km/h (2 Bft) 95,83 %
02.06.2016 18:29 16,2 C 81 % 1008,7 hPa 0,0 l/m 5,1 km/h (1 Bft) SW 231 0 min 0,000 mm 0,6 UV-I 85 W/m 12,9 C 16,2 C 8,0 km/h (2 Bft) 95,65 %
02.06.2016 18:30 16,2 C 81 % 1008,8 hPa 0,0 l/m 5,8 km/h (2 Bft) SW 234 0 min 0,000 mm 0,5 UV-I 91 W/m 12,9 C 16,2 C 8,0 km/h (2 Bft) 100,00 %
02.06.2016 18:31 16,2 C 82 % 1008,8 hPa 0,0 l/m 4,6 km/h (1 Bft) SW 224 0 min 0,000 mm 0,5 UV-I 96 W/m 13,1 C 16,2 C 8,0 km/h (2 Bft) 100,00 %
02.06.2016 18:32 16,1 C 82 % 1008,7 hPa 0,0 l/m 5,3 km/h (1 Bft) SW 236 0 min 0,000 mm 0,5 UV-I 98 W/m 13,0 C 16,1 C 8,0 km/h (2 Bft) 100,00 %
02.06.2016 18:33 16,1 C 83 % 1008,7 hPa 0,0 l/m 4,7 km/h (1 Bft) S-SW 211 0 min 0,000 mm 0,5 UV-I 104 W/m 13,2 C 16,1 C 6,4 km/h (2 Bft) 100,00 %
02.06.2016 18:34 16,2 C 82 % 1008,7 hPa 0,0 l/m 5,8 km/h (2 Bft) SW 236 0 min 0,000 mm 0,5 UV-I 108 W/m 13,1 C 16,2 C 8,0 km/h (2 Bft) 93,33 %
02.06.2016 18:35 16,1 C 82 % 1008,7 hPa 0,0 l/m 5,9 km/h (2 Bft) SW 226 0 min 0,000 mm 0,5 UV-I 116 W/m 13,0 C 16,1 C 8,0 km/h (2 Bft) 100,00 %
02.06.2016 18:36 16,1 C 83 % 1008,7 hPa 0,0 l/m 5,7 km/h (1 Bft) S-SW 205 0 min 0,000 mm 0,5 UV-I 122 W/m 13,2 C 16,1 C 9,7 km/h (2 Bft) 100,00 %
02.06.2016 18:37 16,1 C 83 % 1008,8 hPa 0,0 l/m 6,6 km/h (2 Bft) S-SW 210 0 min 0,000 mm 0,5 UV-I 133 W/m 13,2 C 16,0 C 8,0 km/h (2 Bft) 100,00 %
02.06.2016 18:38 16,1 C 83 % 1008,8 hPa 0,0 l/m 6,3 km/h (2 Bft) SW 214 0 min 0,000 mm 0,5 UV-I 145 W/m 13,2 C 16,1 C 8,0 km/h (2 Bft) 100,00 %
02.06.2016 18:39 16,2 C 83 % 1008,7 hPa 0,0 l/m 7,2 km/h (2 Bft) SW 228 0 min 0,000 mm 0,5 UV-I 151 W/m 13,3 C 15,8 C 9,7 km/h (2 Bft) 100,00 %
02.06.2016 18:40 16,2 C 83 % 1008,7 hPa 0,0 l/m 7,6 km/h (2 Bft) W-SW 246 0 min 0,000 mm 0,5 UV-I 147 W/m 13,3 C 15,6 C 9,7 km/h (2 Bft) 100,00 %
02.06.2016 18:41 16,2 C 83 % 1008,7 hPa 0,0 l/m 6,5 km/h (2 Bft) S-SW 208 0 min 0,000 mm 0,5 UV-I 134 W/m 13,3 C 16,2 C 9,7 km/h (2 Bft) 100,00 %
02.06.2016 18:42 16,2 C 83 % 1008,8 hPa 0,0 l/m 7,6 km/h (2 Bft) SW 227 0 min 0,000 mm 0,5 UV-I 143 W/m 13,3 C 15,6 C 9,7 km/h (2 Bft) 95,65 %
02.06.2016 18:43 16,2 C 83 % 1008,8 hPa 0,0 l/m 7,2 km/h (2 Bft) SW 227 0 min 0,000 mm 0,5 UV-I 166 W/m 13,3 C 15,8 C 9,7 km/h (2 Bft) 100,00 %
02.06.2016 18:44 16,2 C 84 % 1008,8 hPa 0,0 l/m 5,1 km/h (1 Bft) W-SW 245 1 min 0,000 mm 0,5 UV-I 191 W/m 13,5 C 16,2 C 8,0 km/h (2 Bft) 90,91 %
02.06.2016 18:45 16,3 C 84 % 1008,7 hPa 0,0 l/m 6,4 km/h (2 Bft) W-SW 247 1 min 0,000 mm 0,5 UV-I 206 W/m 13,6 C 16,3 C 11,3 km/h (2 Bft) 100,00 %
02.06.2016 18:46 16,3 C 84 % 1008,8 hPa 0,0 l/m 9,9 km/h (2 Bft) SW 229 1 min 0,000 mm 0,5 UV-I 217 W/m 13,6 C 14,6 C 14,5 km/h (3 Bft) 100,00 %
02.06.2016 18:47 16,3 C 83 % 1008,8 hPa 0,0 l/m 7,0 km/h (2 Bft) W-SW 250 1 min 0,000 mm 0,5 UV-I 227 W/m 13,4 C 16,0 C 11,3 km/h (2 Bft) 100,00 %
02.06.2016 18:48 16,3 C 82 % 1008,7 hPa 0,0 l/m 9,6 km/h (2 Bft) W-SW 244 1 min 0,000 mm 0,5 UV-I 236 W/m 13,2 C 14,7 C 12,9 km/h (3 Bft) 96,15 %
02.06.2016 18:49 16,4 C 82 % 1008,8 hPa 0,0 l/m 5,2 km/h (1 Bft) W-SW 257 1 min 0,000 mm 0,5 UV-I 237 W/m 13,3 C 16,4 C 8,0 km/h (2 Bft) 100,00 %
02.06.2016 18:50 16,4 C 82 % 1008,7 hPa 0,0 l/m 5,2 km/h (1 Bft) SW 233 1 min 0,000 mm 0,5 UV-I 236 W/m 13,3 C 16,4 C 6,4 km/h (2 Bft) 95,65 %
02.06.2016 18:51 16,5 C 82 % 1008,8 hPa 0,0 l/m 4,6 km/h (1 Bft) S 171 1 min 0,000 mm 0,5 UV-I 236 W/m 13,4 C 16,5 C 8,0 km/h (2 Bft) 100,00 %
02.06.2016 18:52 16,6 C 81 % 1008,8 hPa 0,0 l/m 6,8 km/h (2 Bft) W 261 1 min 0,000 mm 0,5 UV-I 247 W/m 13,3 C 16,4 C 9,7 km/h (2 Bft) 100,00 %
02.06.2016 18:53 16,6 C 82 % 1008,8 hPa 0,0 l/m 10,2 km/h (2 Bft) W-SW 254 1 min 0,000 mm 0,5 UV-I 245 W/m 13,5 C 14,8 C 12,9 km/h (3 Bft) 91,67 %
02.06.2016 18:54 16,6 C 81 % 1008,8 hPa 0,0 l/m 7,5 km/h (2 Bft) W 271 1 min 0,000 mm 0,3 UV-I 242 W/m 13,3 C 16,0 C 12,9 km/h (3 Bft) 100,00 %
02.06.2016 18:55 16,7 C 80 % 1008,8 hPa 0,0 l/m 5,8 km/h (2 Bft) SW 219 1 min 0,000 mm 0,0 UV-I 238 W/m 13,2 C 16,7 C 9,7 km/h (2 Bft) 100,00 %
02.06.2016 18:56 16,7 C 80 % 1008,9 hPa 0,0 l/m 6,9 km/h (2 Bft) W-SW 254 1 min 0,000 mm 0,0 UV-I 236 W/m 13,2 C 16,4 C 12,9 km/h (3 Bft) 100,00 %
02.06.2016 18:57 16,7 C 80 % 1008,8 hPa 0,0 l/m 8,8 km/h (2 Bft) SW 225 1 min 0,000 mm 0,0 UV-I 234 W/m 13,2 C 15,5 C 12,9 km/h (3 Bft) 100,00 %
02.06.2016 18:58 16,7 C 80 % 1008,9 hPa 0,0 l/m 6,4 km/h (2 Bft) S-SW 211 1 min 0,000 mm 0,0 UV-I 231 W/m 13,2 C 16,7 C 9,7 km/h (2 Bft) 100,00 %
02.06.2016 18:59 16,7 C 80 % 1008,9 hPa 0,0 l/m 6,3 km/h (2 Bft) W-SW 239 1 min 0,000 mm 0,0 UV-I 229 W/m 13,2 C 16,7 C 8,0 km/h (2 Bft) 100,00 %
02.06.2016 19:00 16,7 C 80 % 1008,9 hPa 0,0 l/m 5,8 km/h (2 Bft) SW 225 1 min 0,000 mm 0,0 UV-I 225 W/m 13,2 C 16,7 C 8,0 km/h (2 Bft) 100,00 %
02.06.2016 19:01 16,7 C 80 % 1008,8 hPa 0,0 l/m 4,8 km/h (1 Bft) SW 236 1 min 0,077 mm 0,0 UV-I 221 W/m 13,2 C 16,7 C 6,4 km/h (2 Bft) 100,00 %
02.06.2016 19:02 16,7 C 81 % 1008,8 hPa 0,0 l/m 4,1 km/h (1 Bft) S-SW 208 1 min 0,000 mm 0,0 UV-I 218 W/m 13,4 C 16,7 C 4,8 km/h (1 Bft) 100,00 %
02.06.2016 19:03 16,8 C 80 % 1008,8 hPa 0,0 l/m 5,9 km/h (2 Bft) W-SW 255 1 min 0,000 mm 0,0 UV-I 214 W/m 13,3 C 16,8 C 8,0 km/h (2 Bft) 95,65 %
02.06.2016 19:04 16,8 C 81 % 1008,8 hPa 0,0 l/m 7,5 km/h (2 Bft) SW 214 1 min 0,000 mm 0,0 UV-I 210 W/m 13,5 C 16,2 C 9,7 km/h (2 Bft) 100,00 %
02.06.2016 19:05 16,8 C 81 % 1008,8 hPa 0,0 l/m 6,9 km/h (2 Bft) W-SW 238 1 min 0,000 mm 0,0 UV-I 208 W/m 13,5 C 16,5 C 8,0 km/h (2 Bft) 95,65 %
02.06.2016 19:06 16,8 C 81 % 1008,8 hPa 0,0 l/m 5,8 km/h (2 Bft) SW 234 1 min 0,000 mm 0,0 UV-I 206 W/m 13,5 C 16,8 C 9,7 km/h (2 Bft) 100,00 %
02.06.2016 19:07 16,8 C 81 % 1008,9 hPa 0,0 l/m 7,6 km/h (2 Bft) S-SW 213 1 min 0,000 mm 0,0 UV-I 203 W/m 13,5 C 16,2 C 11,3 km/h (2 Bft) 100,00 %
02.06.2016 19:08 16,8 C 81 % 1008,8 hPa 0,0 l/m 6,8 km/h (2 Bft) SW 229 1 min 0,000 mm 0,0 UV-I 199 W/m 13,5 C 16,6 C 9,7 km/h (2 Bft) 91,67 %
02.06.2016 19:09 16,9 C 81 % 1008,9 hPa 0,0 l/m 8,4 km/h (2 Bft) SW 234 1 min 0,000 mm 0,0 UV-I 196 W/m 13,6 C 15,9 C 9,7 km/h (2 Bft) 100,00 %
02.06.2016 19:10 16,9 C 81 % 1008,9 hPa 0,0 l/m 7,5 km/h (2 Bft) S-SW 202 1 min 0,000 mm 0,0 UV-I 192 W/m 13,6 C 16,3 C 9,7 km/h (2 Bft) 100,00 %
02.06.2016 19:11 16,9 C 81 % 1008,8 hPa 0,0 l/m 8,3 km/h (2 Bft) SW 227 1 min 0,000 mm 0,0 UV-I 189 W/m 13,6 C 16,0 C 9,7 km/h (2 Bft) 100,00 %
02.06.2016 19:12 16,9 C 81 % 1008,8 hPa 0,0 l/m 6,0 km/h (2 Bft) W-SW 240 1 min 0,000 mm 0,0 UV-I 186 W/m 13,6 C 16,9 C 8,0 km/h (2 Bft) 92,31 %
02.06.2016 19:13 16,9 C 81 % 1008,9 hPa 0,0 l/m 7,6 km/h (2 Bft) W-SW 243 1 min 0,000 mm 0,0 UV-I 183 W/m 13,6 C 16,3 C 12,9 km/h (3 Bft) 100,00 %
02.06.2016 19:14 16,8 C 81 % 1008,8 hPa 0,0 l/m 8,4 km/h (2 Bft) W-SW 258 1 min 0,000 mm 0,0 UV-I 179 W/m 13,5 C 15,8 C 12,9 km/h (3 Bft) 100,00 %
02.06.2016 19:15 16,8 C 81 % 1008,8 hPa 0,0 l/m 6,8 km/h (2 Bft) W-SW 238 1 min 0,000 mm 0,0 UV-I 177 W/m 13,5 C 16,6 C 9,7 km/h (2 Bft) 100,00 %
02.06.2016 19:16 16,8 C 82 % 1008,8 hPa 0,0 l/m 8,6 km/h (2 Bft) S-SW 213 1 min 0,000 mm 0,0 UV-I 173 W/m 13,7 C 15,7 C 11,3 km/h (2 Bft) 95,65 %
02.06.2016 19:17 16,7 C 81 % 1008,8 hPa 0,0 l/m 8,2 km/h (2 Bft) SW 228 1 min 0,000 mm 0,0 UV-I 169 W/m 13,4 C 15,8 C 14,5 km/h (3 Bft) 100,00 %
02.06.2016 19:18 16,7 C 82 % 1008,8 hPa 0,0 l/m 7,1 km/h (2 Bft) W-SW 249 1 min 0,000 mm 0,0 UV-I 164 W/m 13,6 C 16,3 C 11,3 km/h (2 Bft) 100,00 %
02.06.2016 19:19 16,7 C 83 % 1008,8 hPa 0,0 l/m 5,6 km/h (1 Bft) SW 217 1 min 0,000 mm 0,0 UV-I 159 W/m 13,8 C 16,7 C 8,0 km/h (2 Bft) 100,00 %
02.06.2016 19:20 16,7 C 83 % 1008,8 hPa 0,0 l/m 7,6 km/h (2 Bft) SW 232 1 min 0,000 mm 0,0 UV-I 151 W/m 13,8 C 16,1 C 9,7 km/h (2 Bft) 100,00 %
02.06.2016 19:21 16,7 C 82 % 1008,8 hPa 0,0 l/m 7,1 km/h (2 Bft) W-SW 257 1 min 0,000 mm 0,0 UV-I 143 W/m 13,6 C 16,3 C 8,0 km/h (2 Bft) 100,00 %
02.06.2016 19:22 16,7 C 82 % 1008,8 hPa 0,0 l/m 8,6 km/h (2 Bft) W-SW 257 1 min 0,000 mm 0,0 UV-I 139 W/m 13,6 C 15,6 C 12,9 km/h (3 Bft) 95,65 %
02.06.2016 19:23 16,7 C 83 % 1008,8 hPa 0,0 l/m 10,3 km/h (2 Bft) W-SW 242 1 min 0,000 mm 0,0 UV-I 139 W/m 13,8 C 14,9 C 16,1 km/h (3 Bft) 100,00 %
02.06.2016 19:24 16,7 C 83 % 1008,8 hPa 0,0 l/m 7,7 km/h (2 Bft) SW 225 1 min 0,000 mm 0,0 UV-I 138 W/m 13,8 C 16,0 C 11,3 km/h (2 Bft) 100,00 %
02.06.2016 19:25 16,7 C 83 % 1008,8 hPa 0,0 l/m 7,0 km/h (2 Bft) W-SW 240 1 min 0,000 mm 0,0 UV-I 135 W/m 13,8 C 16,4 C 11,3 km/h (2 Bft) 100,00 %
02.06.2016 19:26 16,7 C 83 % 1008,8 hPa 0,0 l/m 6,4 km/h (2 Bft) SW 223 1 min 0,000 mm 0,0 UV-I 132 W/m 13,8 C 16,7 C 8,0 km/h (2 Bft) 100,00 %
02.06.2016 19:27 16,6 C 83 % 1008,8 hPa 0,0 l/m 6,4 km/h (2 Bft) SW 227 1 min 0,000 mm 0,0 UV-I 127 W/m 13,7 C 16,6 C 8,0 km/h (2 Bft) 100,00 %
02.06.2016 19:28 16,6 C 83 % 1008,8 hPa 0,0 l/m 7,5 km/h (2 Bft) SW 219 1 min 0,000 mm 0,0 UV-I 123 W/m 13,7 C 16,0 C 12,9 km/h (3 Bft) 100,00 %
02.06.2016 19:29 16,6 C 83 % 1008,8 hPa 0,0 l/m 8,3 km/h (2 Bft) SW 226 1 min 0,000 mm 0,0 UV-I 119 W/m 13,7 C 15,6 C 11,3 km/h (2 Bft) 100,00 %
02.06.2016 19:30 16,6 C 82 % 1008,8 hPa 0,0 l/m 5,5 km/h (1 Bft) W-SW 253 1 min 0,000 mm 0,0 UV-I 118 W/m 13,5 C 16,6 C 6,4 km/h (2 Bft) 100,00 %
02.06.2016 19:31 16,5 C 83 % 1008,8 hPa 0,0 l/m 4,6 km/h (1 Bft) W 259 1 min 0,000 mm 0,0 UV-I 116 W/m 13,6 C 16,5 C 6,4 km/h (2 Bft) 100,00 %
02.06.2016 19:32 16,4 C 83 % 1008,8 hPa 0,0 l/m 7,5 km/h (2 Bft) W 259 1 min 0,000 mm 0,0 UV-I 112 W/m 13,5 C 15,8 C 11,3 km/h (2 Bft) 100,00 %
02.06.2016 19:33 16,4 C 83 % 1008,8 hPa 0,0 l/m 6,8 km/h (2 Bft) W 265 0 min 0,000 mm 0,0 UV-I 106 W/m 13,5 C 16,2 C 11,3 km/h (2 Bft) 95,65 %
02.06.2016 19:34 16,4 C 83 % 1008,8 hPa 0,0 l/m 7,8 km/h (2 Bft) W-SW 252 0 min 0,000 mm 0,0 UV-I 101 W/m 13,5 C 15,7 C 9,7 km/h (2 Bft) 100,00 %
02.06.2016 19:35 16,4 C 83 % 1008,8 hPa 0,0 l/m 6,6 km/h (2 Bft) W 272 0 min 0,000 mm 0,0 UV-I 99 W/m 13,5 C 16,3 C 11,3 km/h (2 Bft) 95,65 %
02.06.2016 19:36 16,4 C 83 % 1008,8 hPa 0,0 l/m 5,6 km/h (1 Bft) W 281 0 min 0,000 mm 0,0 UV-I 94 W/m 13,5 C 16,4 C 6,4 km/h (2 Bft) 95,83 %
02.06.2016 19:37 16,4 C 84 % 1008,8 hPa 0,0 l/m 3,4 km/h (1 Bft) W-SW 243 0 min 0,000 mm 0,0 UV-I 87 W/m 13,7 C 16,4 C 4,8 km/h (1 Bft) 100,00 %
02.06.2016 19:38 16,4 C 83 % 1008,8 hPa 0,0 l/m 5,0 km/h (1 Bft) SW 223 0 min 0,000 mm 0,0 UV-I 80 W/m 13,5 C 16,4 C 6,4 km/h (2 Bft) 95,83 %
02.06.2016 19:39 16,4 C 83 % 1008,8 hPa 0,0 l/m 5,2 km/h (1 Bft) W 263 0 min 0,000 mm 0,0 UV-I 84 W/m 13,5 C 16,4 C 6,4 km/h (2 Bft) 100,00 %
02.06.2016 19:40 16,4 C 84 % 1008,9 hPa 0,0 l/m 4,0 km/h (1 Bft) W-SW 251 0 min 0,000 mm 0,0 UV-I 87 W/m 13,7 C 16,4 C 4,8 km/h (1 Bft) 95,83 %
02.06.2016 19:41 16,4 C 83 % 1008,8 hPa 0,0 l/m 4,1 km/h (1 Bft) SW 225 0 min 0,000 mm 0,0 UV-I 92 W/m 13,5 C 16,4 C 4,8 km/h (1 Bft) 100,00 %
02.06.2016 19:42 16,4 C 83 % 1008,8 hPa 0,0 l/m 5,2 km/h (1 Bft) SW 218 0 min 0,000 mm 0,0 UV-I 91 W/m 13,5 C 16,4 C 9,7 km/h (2 Bft) 100,00 %
02.06.2016 19:43 16,4 C 84 % 1008,9 hPa 0,0 l/m 10,0 km/h (2 Bft) W 261 0 min 0,000 mm 0,0 UV-I 86 W/m 13,7 C 14,7 C 12,9 km/h (3 Bft) 100,00 %
02.06.2016 19:44 16,4 C 84 % 1008,8 hPa 0,0 l/m 6,1 km/h (2 Bft) W-SW 246 0 min 0,000 mm 0,0 UV-I 82 W/m 13,7 C 16,4 C 9,7 km/h (2 Bft) 100,00 %
02.06.2016 19:45 16,3 C 84 % 1008,9 hPa 0,0 l/m 6,2 km/h (2 Bft) W-SW 249 0 min 0,000 mm 0,0 UV-I 78 W/m 13,6 C 16,3 C 8,0 km/h (2 Bft) 95,65 %
02.06.2016 19:46 16,4 C 84 % 1008,8 hPa 0,0 l/m 8,2 km/h (2 Bft) W-SW 243 0 min 0,000 mm 0,0 UV-I 72 W/m 13,7 C 15,5 C 12,9 km/h (3 Bft) 100,00 %
02.06.2016 19:47 16,3 C 84 % 1008,8 hPa 0,0 l/m 6,3 km/h (2 Bft) SW 229 0 min 0,000 mm 0,0 UV-I 68 W/m 13,6 C 16,3 C 11,3 km/h (2 Bft) 95,65 %
02.06.2016 19:48 16,3 C 84 % 1008,8 hPa 0,0 l/m 4,4 km/h (1 Bft) SW 235 0 min 0,000 mm 0,0 UV-I 66 W/m 13,6 C 16,3 C 6,4 km/h (2 Bft) 100,00 %
02.06.2016 19:49 16,3 C 84 % 1008,8 hPa 0,0 l/m 8,4 km/h (2 Bft) W 266 0 min 0,000 mm 0,0 UV-I 63 W/m 13,6 C 15,3 C 11,3 km/h (2 Bft) 100,00 %
02.06.2016 19:50 16,3 C 84 % 1008,8 hPa 0,0 l/m 7,0 km/h (2 Bft) W 265 0 min 0,000 mm 0,0 UV-I 59 W/m 13,6 C 16,0 C 9,7 km/h (2 Bft) 95,65 %
02.06.2016 19:51 16,3 C 84 % 1008,8 hPa 0,0 l/m 8,2 km/h (2 Bft) W-SW 246 0 min 0,000 mm 0,0 UV-I 55 W/m 13,6 C 15,4 C 11,3 km/h (2 Bft) 100,00 %
02.06.2016 19:52 16,2 C 85 % 1008,8 hPa 0,0 l/m 8,6 km/h (2 Bft) W-SW 250 0 min 0,000 mm 0,0 UV-I 54 W/m 13,7 C 15,1 C 11,3 km/h (2 Bft) 100,00 %
02.06.2016 19:53 16,2 C 84 % 1008,8 hPa 0,0 l/m 6,2 km/h (2 Bft) W-SW 245 0 min 0,000 mm 0,0 UV-I 54 W/m 13,5 C 16,2 C 8,0 km/h (2 Bft) 95,83 %
02.06.2016 19:54 16,2 C 85 % 1008,8 hPa 0,0 l/m 6,4 km/h (2 Bft) W-SW 258 0 min 0,000 mm 0,0 UV-I 54 W/m 13,7 C 16,2 C 9,7 km/h (2 Bft) 91,30 %
02.06.2016 19:55 16,2 C 85 % 1008,8 hPa 0,0 l/m 6,8 km/h (2 Bft) W-SW 253 0 min 0,000 mm 0,0 UV-I 54 W/m 13,7 C 16,0 C 11,3 km/h (2 Bft) 100,00 %
02.06.2016 19:56 16,2 C 85 % 1008,8 hPa 0,0 l/m 5,8 km/h (2 Bft) W-SW 251 0 min 0,000 mm 0,0 UV-I 54 W/m 13,7 C 16,2 C 8,0 km/h (2 Bft) 95,65 %
02.06.2016 19:57 16,2 C 85 % 1008,8 hPa 0,0 l/m 7,4 km/h (2 Bft) W-SW 248 0 min 0,000 mm 0,0 UV-I 52 W/m 13,7 C 15,7 C 11,3 km/h (2 Bft) 100,00 %
02.06.2016 19:58 16,2 C 84 % 1008,8 hPa 0,0 l/m 6,0 km/h (2 Bft) W-SW 246 0 min 0,000 mm 0,0 UV-I 50 W/m 13,5 C 16,2 C 11,3 km/h (2 Bft) 95,65 %
02.06.2016 19:59 16,1 C 85 % 1008,8 hPa 0,0 l/m 7,0 km/h (2 Bft) W-SW 242 0 min 0,000 mm 0,0 UV-I 48 W/m 13,6 C 15,8 C 9,7 km/h (2 Bft) 100,00 %
02.06.2016 20:00 16,1 C 84 % 1008,8 hPa 0,0 l/m 10,1 km/h (2 Bft) W-SW 257 0 min 0,000 mm 0,0 UV-I 47 W/m 13,4 C 14,3 C 14,5 km/h (3 Bft) 91,30 %
02.06.2016 20:01 16,1 C 84 % 1008,8 hPa 0,0 l/m 6,0 km/h (2 Bft) SW 235 0 min 0,076 mm 0,0 UV-I 47 W/m 13,4 C 16,1 C 8,0 km/h (2 Bft) 95,83 %
02.06.2016 20:02 16,0 C 84 % 1008,8 hPa 0,0 l/m 5,0 km/h (1 Bft) SW 236 0 min 0,000 mm 0,0 UV-I 50 W/m 13,3 C 16,0 C 6,4 km/h (2 Bft) 95,65 %
02.06.2016 20:03 16,0 C 85 % 1008,8 hPa 0,0 l/m 6,1 km/h (2 Bft) SW 235 0 min 0,000 mm 0,0 UV-I 53 W/m 13,5 C 16,0 C 9,7 km/h (2 Bft) 95,83 %
02.06.2016 20:04 15,9 C 85 % 1008,8 hPa 0,0 l/m 5,1 km/h (1 Bft) SW 227 0 min 0,000 mm 0,0 UV-I 52 W/m 13,4 C 15,9 C 8,0 km/h (2 Bft) 95,65 %
02.06.2016 20:05 15,9 C 85 % 1008,8 hPa 0,0 l/m 6,4 km/h (2 Bft) SW 223 0 min 0,000 mm 0,0 UV-I 49 W/m 13,4 C 15,9 C 8,0 km/h (2 Bft) 96,30 %
02.06.2016 20:06 15,9 C 85 % 1008,8 hPa 0,0 l/m 7,1 km/h (2 Bft) SW 223 0 min 0,000 mm 0,0 UV-I 47 W/m 13,4 C 15,5 C 9,7 km/h (2 Bft) 100,00 %
02.06.2016 20:07 15,8 C 85 % 1008,9 hPa 0,0 l/m 8,4 km/h (2 Bft) SW 224 0 min 0,000 mm 0,0 UV-I 46 W/m 13,3 C 14,7 C 11,3 km/h (2 Bft) 91,67 %
02.06.2016 20:08 15,8 C 86 % 1008,9 hPa 0,0 l/m 9,6 km/h (2 Bft) W-SW 239 0 min 0,000 mm 0,0 UV-I 44 W/m 13,5 C 14,2 C 11,3 km/h (2 Bft) 100,00 %
02.06.2016 20:09 15,8 C 86 % 1008,9 hPa 0,0 l/m 8,1 km/h (2 Bft) SW 218 0 min 0,000 mm 0,0 UV-I 41 W/m 13,5 C 14,9 C 11,3 km/h (2 Bft) 95,65 %
02.06.2016 20:10 15,8 C 86 % 1008,9 hPa 0,0 l/m 9,1 km/h (2 Bft) S-SW 200 0 min 0,000 mm 0,0 UV-I 40 W/m 13,5 C 14,4 C 12,9 km/h (3 Bft) 100,00 %
02.06.2016 20:11 15,7 C 86 % 1008,9 hPa 0,0 l/m 6,6 km/h (2 Bft) SW 221 0 min 0,000 mm 0,0 UV-I 38 W/m 13,4 C 15,6 C 8,0 km/h (2 Bft) 95,65 %
02.06.2016 20:12 15,7 C 86 % 1008,9 hPa 0,0 l/m 7,1 km/h (2 Bft) W-SW 238 0 min 0,000 mm 0,0 UV-I 35 W/m 13,4 C 15,3 C 9,7 km/h (2 Bft) 95,83 %
02.06.2016 20:13 15,7 C 86 % 1008,9 hPa 0,0 l/m 5,1 km/h (1 Bft) SW 226 0 min 0,000 mm 0,0 UV-I 32 W/m 13,4 C 15,7 C 8,0 km/h (2 Bft) 100,00 %
02.06.2016 20:14 15,7 C 86 % 1008,9 hPa 0,0 l/m 8,2 km/h (2 Bft) S-SW 209 0 min 0,000 mm 0,0 UV-I 32 W/m 13,4 C 14,7 C 12,9 km/h (3 Bft) 95,83 %
02.06.2016 20:15 15,7 C 86 % 1008,9 hPa 0,0 l/m 8,6 km/h (2 Bft) SW 232 0 min 0,000 mm 0,0 UV-I 31 W/m 13,4 C 14,5 C 12,9 km/h (3 Bft) 100,00 %
02.06.2016 20:16 15,7 C 87 % 1008,9 hPa 0,0 l/m 8,2 km/h (2 Bft) S-SW 210 0 min 0,000 mm 0,0 UV-I 27 W/m 13,5 C 14,7 C 9,7 km/h (2 Bft) 95,83 %
02.06.2016 20:17 15,6 C 87 % 1008,9 hPa 0,0 l/m 7,2 km/h (2 Bft) SW 222 0 min 0,000 mm 0,0 UV-I 22 W/m 13,4 C 15,2 C 9,7 km/h (2 Bft) 100,00 %
02.06.2016 20:18 15,6 C 87 % 1008,9 hPa 0,0 l/m 6,6 km/h (2 Bft) SW 235 0 min 0,000 mm 0,0 UV-I 19 W/m 13,4 C 15,5 C 9,7 km/h (2 Bft) 95,83 %
02.06.2016 20:19 15,6 C 87 % 1008,9 hPa 0,0 l/m 7,7 km/h (2 Bft) SW 215 0 min 0,000 mm 0,0 UV-I 19 W/m 13,4 C 14,9 C 12,9 km/h (3 Bft) 100,00 %
02.06.2016 20:20 15,5 C 87 % 1008,9 hPa 0,0 l/m 7,1 km/h (2 Bft) SW 217 0 min 0,000 mm 0,0 UV-I 19 W/m 13,3 C 15,1 C 9,7 km/h (2 Bft) 95,83 %
02.06.2016 20:21 15,4 C 87 % 1008,8 hPa 0,0 l/m 8,0 km/h (2 Bft) S-SW 202 0 min 0,000 mm 0,0 UV-I 19 W/m 13,2 C 14,5 C 11,3 km/h (2 Bft) 95,65 %
02.06.2016 20:22 15,4 C 87 % 1008,9 hPa 0,0 l/m 7,8 km/h (2 Bft) SW 227 0 min 0,000 mm 0,0 UV-I 18 W/m 13,2 C 14,6 C 11,3 km/h (2 Bft) 100,00 %
02.06.2016 20:23 15,4 C 87 % 1008,8 hPa 0,0 l/m 7,2 km/h (2 Bft) SW 229 0 min 0,000 mm 0,0 UV-I 18 W/m 13,2 C 15,0 C 11,3 km/h (2 Bft) 91,30 %
02.06.2016 20:24 15,4 C 87 % 1008,8 hPa 0,0 l/m 10,5 km/h (2 Bft) SW 232 0 min 0,000 mm 0,0 UV-I 18 W/m 13,2 C 13,3 C 12,9 km/h (3 Bft) 100,00 %
02.06.2016 20:25 15,3 C 88 % 1008,8 hPa 0,0 l/m 10,0 km/h (2 Bft) S-SW 213 0 min 0,000 mm 0,0 UV-I 18 W/m 13,3 C 13,4 C 12,9 km/h (3 Bft) 92,31 %
02.06.2016 20:26 15,3 C 88 % 1008,8 hPa 0,0 l/m 10,1 km/h (2 Bft) SW 229 0 min 0,000 mm 0,0 UV-I 16 W/m 13,3 C 13,4 C 12,9 km/h (3 Bft) 100,00 %
02.06.2016 20:27 15,3 C 88 % 1008,9 hPa 0,0 l/m 9,3 km/h (2 Bft) SW 225 0 min 0,000 mm 0,0 UV-I 16 W/m 13,3 C 13,8 C 12,9 km/h (3 Bft) 100,00 %
02.06.2016 20:28 15,3 C 88 % 1008,8 hPa 0,0 l/m 8,9 km/h (2 Bft) SW 220 0 min 0,000 mm 0,0 UV-I 16 W/m 13,3 C 14,0 C 12,9 km/h (3 Bft) 100,00 %
02.06.2016 20:29 15,3 C 88 % 1008,8 hPa 0,0 l/m 7,6 km/h (2 Bft) W-SW 244 0 min 0,000 mm 0,0 UV-I 16 W/m 13,3 C 14,6 C 11,3 km/h (2 Bft) 100,00 %
02.06.2016 20:30 15,3 C 88 % 1008,8 hPa 0,0 l/m 6,8 km/h (2 Bft) S-SW 211 0 min 0,000 mm 0,0 UV-I 14 W/m 13,3 C 15,1 C 8,0 km/h (2 Bft) 95,83 %
02.06.2016 20:31 15,2 C 88 % 1008,8 hPa 0,0 l/m 6,0 km/h (2 Bft) SW 225 0 min 0,000 mm 0,0 UV-I 14 W/m 13,2 C 15,2 C 11,3 km/h (2 Bft) 95,65 %
02.06.2016 20:32 15,2 C 88 % 1008,8 hPa 0,0 l/m 6,4 km/h (2 Bft) SW 219 0 min 0,000 mm 0,0 UV-I 14 W/m 13,2 C 15,2 C 8,0 km/h (2 Bft) 100,00 %
02.06.2016 20:33 15,2 C 88 % 1008,8 hPa 0,0 l/m 7,6 km/h (2 Bft) SW 236 0 min 0,000 mm 0,0 UV-I 14 W/m 13,2 C 14,5 C 11,3 km/h (2 Bft) 100,00 %
02.06.2016 20:34 15,2 C 88 % 1008,8 hPa 0,0 l/m 7,2 km/h (2 Bft) SW 228 0 min 0,000 mm 0,0 UV-I 14 W/m 13,2 C 14,8 C 9,7 km/h (2 Bft) 100,00 %
02.06.2016 20:35 15,1 C 88 % 1008,9 hPa 0,0 l/m 5,7 km/h (1 Bft) W-SW 237 0 min 0,000 mm 0,0 UV-I 12 W/m 13,1 C 15,1 C 8,0 km/h (2 Bft) 100,00 %
02.06.2016 20:36 15,1 C 88 % 1008,8 hPa 0,0 l/m 5,0 km/h (1 Bft) W-SW 240 0 min 0,000 mm 0,0 UV-I 12 W/m 13,1 C 15,1 C 8,0 km/h (2 Bft) 100,00 %
02.06.2016 20:37 15,1 C 88 % 1008,8 hPa 0,0 l/m 5,4 km/h (1 Bft) W-SW 239 0 min 0,000 mm 0,0 UV-I 12 W/m 13,1 C 15,1 C 6,4 km/h (2 Bft) 100,00 %
02.06.2016 20:38 15,1 C 88 % 1008,8 hPa 0,0 l/m 5,5 km/h (1 Bft) SW 223 0 min 0,000 mm 0,0 UV-I 12 W/m 13,1 C 15,1 C 8,0 km/h (2 Bft) 100,00 %
02.06.2016 20:39 15,1 C 89 % 1008,8 hPa 0,0 l/m 5,8 km/h (2 Bft) SW 219 0 min 0,000 mm 0,0 UV-I 12 W/m 13,3 C 15,1 C 8,0 km/h (2 Bft) 100,00 %
02.06.2016 20:40 15,0 C 89 % 1008,9 hPa 0,0 l/m 6,8 km/h (2 Bft) SW 215 0 min 0,000 mm 0,0 UV-I 11 W/m 13,2 C 14,8 C 8,0 km/h (2 Bft) 100,00 %
02.06.2016 20:41 15,0 C 89 % 1008,9 hPa 0,0 l/m 6,4 km/h (2 Bft) SW 228 0 min 0,000 mm 0,0 UV-I 11 W/m 13,2 C 15,0 C 8,0 km/h (2 Bft) 100,00 %
02.06.2016 20:42 14,9 C 89 % 1008,8 hPa 0,0 l/m 4,3 km/h (1 Bft) SW 224 0 min 0,000 mm 0,0 UV-I 11 W/m 13,1 C 14,9 C 6,4 km/h (2 Bft) 100,00 %
02.06.2016 20:43 14,9 C 89 % 1008,9 hPa 0,0 l/m 4,0 km/h (1 Bft) SW 216 1 min 0,000 mm 0,0 UV-I 11 W/m 13,1 C 14,9 C 6,4 km/h (2 Bft) 100,00 %
02.06.2016 20:44 14,9 C 89 % 1008,9 hPa 0,0 l/m 2,9 km/h (1 Bft) SW 216 1 min 0,000 mm 0,0 UV-I 10 W/m 13,1 C 14,9 C 4,8 km/h (1 Bft) 100,00 %
02.06.2016 20:45 14,8 C 89 % 1008,9 hPa 0,0 l/m 3,8 km/h (1 Bft) W-SW 256 0 min 0,000 mm 0,0 UV-I 9 W/m 13,0 C 14,8 C 6,4 km/h (2 Bft) 100,00 %
02.06.2016 20:46 14,8 C 89 % 1008,9 hPa 0,0 l/m 3,0 km/h (1 Bft) SW 225 0 min 0,000 mm 0,0 UV-I 9 W/m 13,0 C 14,8 C 4,8 km/h (1 Bft) 100,00 %
02.06.2016 20:47 14,8 C 89 % 1008,9 hPa 0,0 l/m 4,6 km/h (1 Bft) W 266 0 min 0,000 mm 0,0 UV-I 9 W/m 13,0 C 14,8 C 6,4 km/h (2 Bft) 100,00 %
02.06.2016 20:48 14,8 C 89 % 1008,9 hPa 0,0 l/m 3,5 km/h (1 Bft) W 266 0 min 0,000 mm 0,0 UV-I 7 W/m 13,0 C 14,8 C 4,8 km/h (1 Bft) 100,00 %
02.06.2016 20:49 14,8 C 89 % 1008,9 hPa 0,0 l/m 2,7 km/h (1 Bft) W 266 0 min 0,000 mm 0,0 UV-I 7 W/m 13,0 C 14,8 C 3,2 km/h (1 Bft) 100,00 %
02.06.2016 20:50 14,8 C 89 % 1008,9 hPa 0,0 l/m 3,2 km/h (1 Bft) W 262 0 min 0,000 mm 0,0 UV-I 7 W/m 13,0 C 14,8 C 4,8 km/h (1 Bft) 100,00 %
02.06.2016 20:51 14,8 C 89 % 1008,9 hPa 0,0 l/m 3,6 km/h (1 Bft) SW 226 0 min 0,000 mm 0,0 UV-I 7 W/m 13,0 C 14,8 C 4,8 km/h (1 Bft) 100,00 %
02.06.2016 20:52 14,7 C 90 % 1008,9 hPa 0,0 l/m 3,1 km/h (1 Bft) SW 221 0 min 0,000 mm 0,0 UV-I 7 W/m 13,1 C 14,7 C 4,8 km/h (1 Bft) 100,00 %
02.06.2016 20:53 14,7 C 90 % 1008,9 hPa 0,0 l/m 4,6 km/h (1 Bft) SW 225 0 min 0,000 mm 0,0 UV-I 5 W/m 13,1 C 14,7 C 6,4 km/h (2 Bft) 100,00 %
02.06.2016 20:54 14,7 C 90 % 1009,0 hPa 0,0 l/m 2,3 km/h (1 Bft) SW 225 0 min 0,000 mm 0,0 UV-I 5 W/m 13,1 C 14,7 C 4,8 km/h (1 Bft) 100,00 %
02.06.2016 20:55 14,7 C 90 % 1009,0 hPa 0,0 l/m 2,5 km/h (1 Bft) SW 225 0 min 0,000 mm 0,0 UV-I 5 W/m 13,1 C 14,7 C 4,8 km/h (1 Bft) 100,00 %
02.06.2016 20:56 14,7 C 90 % 1009,0 hPa 0,0 l/m 2,8 km/h (1 Bft) SW 228 0 min 0,000 mm 0,0 UV-I 5 W/m 13,1 C 14,7 C 6,4 km/h (2 Bft) 100,00 %
02.06.2016 20:57 14,7 C 90 % 1009,0 hPa 0,0 l/m 1,0 km/h (0 Bft) SW 228 0 min 0,000 mm 0,0 UV-I 5 W/m 13,1 C 14,7 C 3,2 km/h (1 Bft) 100,00 %
02.06.2016 21:00 14,6 C 91 % 1009,1 hPa 0,0 l/m 1,6 km/h (1 Bft) SW 225 0 min 0,025 mm 0,0 UV-I 3 W/m 13,1 C 14,6 C 6,4 km/h (2 Bft) 98,25 %
02.06.2016 21:05 14,5 C 91 % 1009,1 hPa 0,0 l/m 3,2 km/h (1 Bft) SW 225 0 min 0,000 mm 0,0 UV-I 0 W/m 13,0 C 14,5 C 4,8 km/h (1 Bft) 100,00 %
02.06.2016 21:10 14,3 C 92 % 1009,2 hPa 0,0 l/m 1,6 km/h (1 Bft) SW 225 0 min 0,000 mm 0,0 UV-I 0 W/m 13,0 C 14,3 C 4,8 km/h (1 Bft) 100,00 %
02.06.2016 21:15 14,2 C 92 % 1009,3 hPa 0,0 l/m 1,6 km/h (1 Bft) SW 225 0 min 0,000 mm 0,0 UV-I 0 W/m 12,9 C 14,2 C 3,2 km/h (1 Bft) 99,12 %
02.06.2016 21:20 14,1 C 92 % 1009,3 hPa 0,0 l/m 0,0 km/h (0 Bft) SW 225 0 min 0,000 mm 0,0 UV-I 0 W/m 12,8 C 14,1 C 3,2 km/h (1 Bft) 100,00 %
02.06.2016 21:25 14,1 C 92 % 1009,4 hPa 0,0 l/m 0,0 km/h (0 Bft) SW 225 0 min 0,000 mm 0,0 UV-I 0 W/m 12,8 C 14,1 C 3,2 km/h (1 Bft) 100,00 %
02.06.2016 21:30 14,1 C 93 % 1009,4 hPa 0,0 l/m 0,0 km/h (0 Bft) SW 225 0 min 0,000 mm 0,0 UV-I 0 W/m 13,0 C 14,1 C 1,6 km/h (1 Bft) 99,12 %
02.06.2016 21:35 14,0 C 93 % 1009,5 hPa 0,0 l/m 0,0 km/h (0 Bft) SW 225 0 min 0,000 mm 0,0 UV-I 0 W/m 12,9 C 14,0 C 3,2 km/h (1 Bft) 100,00 %
02.06.2016 21:40 13,9 C 93 % 1009,4 hPa 0,0 l/m 1,6 km/h (1 Bft) S-SW 202 0 min 0,000 mm 0,0 UV-I 0 W/m 12,8 C 13,9 C 3,2 km/h (1 Bft) 99,12 %
02.06.2016 21:45 13,9 C 92 % 1009,5 hPa 0,0 l/m 3,2 km/h (1 Bft) S-SW 202 0 min 0,000 mm 0,0 UV-I 0 W/m 12,6 C 13,9 C 4,8 km/h (1 Bft) 100,00 %
02.06.2016 21:49 13,8 C 92 % 1009,6 hPa 0,0 l/m 4,2 km/h (1 Bft) S 182 0 min 0,000 mm 0,0 UV-I 2 W/m 12,5 C 13,8 C 6,4 km/h (2 Bft) 99,84 %
02.06.2016 21:50 13,8 C 92 % 1009,6 hPa 0,0 l/m 2,7 km/h (1 Bft) S 182 0 min 0,000 mm 0,0 UV-I 0 W/m 12,5 C 13,8 C 4,8 km/h (1 Bft) 100,00 %
02.06.2016 21:51 13,8 C 92 % 1009,5 hPa 0,0 l/m 4,5 km/h (1 Bft) S 182 0 min 0,000 mm 0,0 UV-I 0 W/m 12,5 C 13,8 C 6,4 km/h (2 Bft) 100,00 %
02.06.2016 21:52 13,8 C 92 % 1009,5 hPa 0,0 l/m 3,1 km/h (1 Bft) S 182 0 min 0,000 mm 0,0 UV-I 0 W/m 12,5 C 13,8 C 4,8 km/h (1 Bft) 95,83 %
02.06.2016 21:53 13,8 C 92 % 1009,5 hPa 0,0 l/m 3,2 km/h (1 Bft) S 182 0 min 0,000 mm 0,0 UV-I 0 W/m 12,5 C 13,8 C 4,8 km/h (1 Bft) 95,65 %
02.06.2016 21:54 13,8 C 92 % 1009,5 hPa 0,0 l/m 3,0 km/h (1 Bft) S 182 0 min 0,000 mm 0,0 UV-I 0 W/m 12,5 C 13,8 C 4,8 km/h (1 Bft) 95,83 %
02.06.2016 21:55 13,8 C 92 % 1009,5 hPa 0,0 l/m 4,2 km/h (1 Bft) S 182 0 min 0,000 mm 0,0 UV-I 0 W/m 12,5 C 13,8 C 4,8 km/h (1 Bft) 96,15 %
02.06.2016 21:56 13,7 C 92 % 1009,5 hPa 0,0 l/m 3,3 km/h (1 Bft) S 186 0 min 0,000 mm 0,0 UV-I 0 W/m 12,4 C 13,7 C 4,8 km/h (1 Bft) 95,83 %
02.06.2016 21:57 13,8 C 92 % 1009,5 hPa 0,0 l/m 3,1 km/h (1 Bft) S 186 0 min 0,000 mm 0,0 UV-I 0 W/m 12,5 C 13,8 C 4,8 km/h (1 Bft) 100,00 %
02.06.2016 21:58 13,7 C 92 % 1009,5 hPa 0,0 l/m 4,4 km/h (1 Bft) S-SW 205 0 min 0,000 mm 0,0 UV-I 0 W/m 12,4 C 13,7 C 6,4 km/h (2 Bft) 92,59 %
02.06.2016 21:59 13,7 C 92 % 1009,6 hPa 0,0 l/m 4,1 km/h (1 Bft) S-SW 205 0 min 0,000 mm 0,0 UV-I 0 W/m 12,4 C 13,7 C 4,8 km/h (1 Bft) 100,00 %
02.06.2016 22:00 13,7 C 92 % 1009,6 hPa 0,0 l/m 4,0 km/h (1 Bft) S-SW 211 0 min 0,000 mm 0,0 UV-I 0 W/m 12,4 C 13,7 C 4,8 km/h (1 Bft) 95,65 %
02.06.2016 22:01 13,7 C 93 % 1009,6 hPa 0,0 l/m 3,4 km/h (1 Bft) S-SW 211 0 min 0,000 mm 0,0 UV-I 0 W/m 12,6 C 13,7 C 4,8 km/h (1 Bft) 96,00 %
02.06.2016 22:02 13,7 C 93 % 1009,6 hPa 0,0 l/m 3,2 km/h (1 Bft) S-SW 211 0 min 0,000 mm 0,0 UV-I 0 W/m 12,6 C 13,7 C 4,8 km/h (1 Bft) 91,67 %
02.06.2016 22:03 13,7 C 93 % 1009,6 hPa 0,0 l/m 2,6 km/h (1 Bft) S-SW 211 0 min 0,000 mm 0,0 UV-I 0 W/m 12,6 C 13,7 C 3,2 km/h (1 Bft) 100,00 %
02.06.2016 22:04 13,6 C 93 % 1009,6 hPa 0,0 l/m 2,4 km/h (1 Bft) S-SW 211 0 min 0,000 mm 0,0 UV-I 0 W/m 12,5 C 13,6 C 3,2 km/h (1 Bft) 91,30 %
02.06.2016 22:05 13,6 C 93 % 1009,5 hPa 0,0 l/m 1,5 km/h (1 Bft) S-SW 211 0 min 0,000 mm 0,0 UV-I 0 W/m 12,5 C 13,6 C 3,2 km/h (1 Bft) 95,83 %
02.06.2016 22:06 13,6 C 93 % 1009,6 hPa 0,0 l/m 2,3 km/h (1 Bft) S-SW 211 0 min 0,000 mm 0,0 UV-I 0 W/m 12,5 C 13,6 C 3,2 km/h (1 Bft) 100,00 %
02.06.2016 22:07 13,5 C 93 % 1009,6 hPa 0,0 l/m 1,6 km/h (1 Bft) S-SW 211 0 min 0,000 mm 0,0 UV-I 0 W/m 12,4 C 13,5 C 3,2 km/h (1 Bft) 95,83 %
02.06.2016 22:08 13,5 C 93 % 1009,6 hPa 0,0 l/m 1,7 km/h (1 Bft) S-SW 211 0 min 0,000 mm 0,0 UV-I 0 W/m 12,4 C 13,5 C 3,2 km/h (1 Bft) 100,00 %
02.06.2016 22:09 13,5 C 93 % 1009,6 hPa 0,0 l/m 1,6 km/h (1 Bft) S-SW 211 0 min 0,000 mm 0,0 UV-I 0 W/m 12,4 C 13,5 C 3,2 km/h (1 Bft) 95,83 %
02.06.2016 22:10 13,4 C 93 % 1009,6 hPa 0,0 l/m 1,6 km/h (1 Bft) S-SW 211 0 min 0,000 mm 0,0 UV-I 0 W/m 12,3 C 13,4 C 3,2 km/h (1 Bft) 91,30 %
02.06.2016 22:11 13,4 C 93 % 1009,6 hPa 0,0 l/m 1,7 km/h (1 Bft) S-SW 211 0 min 0,000 mm 0,0 UV-I 0 W/m 12,3 C 13,4 C 3,2 km/h (1 Bft) 95,83 %
02.06.2016 22:12 13,4 C 93 % 1009,6 hPa 0,0 l/m 2,3 km/h (1 Bft) S-SW 211 0 min 0,000 mm 0,0 UV-I 0 W/m 12,3 C 13,4 C 3,2 km/h (1 Bft) 91,30 %
02.06.2016 22:13 13,3 C 93 % 1009,6 hPa 0,0 l/m 3,0 km/h (1 Bft) S-SW 211 0 min 0,000 mm 0,0 UV-I 0 W/m 12,2 C 13,3 C 3,2 km/h (1 Bft) 100,00 %
02.06.2016 22:14 13,3 C 93 % 1009,6 hPa 0,0 l/m 2,5 km/h (1 Bft) S-SW 211 0 min 0,000 mm 0,0 UV-I 0 W/m 12,2 C 13,3 C 3,2 km/h (1 Bft) 95,65 %
02.06.2016 22:15 13,3 C 93 % 1009,5 hPa 0,0 l/m 2,3 km/h (1 Bft) S-SW 211 0 min 0,000 mm 0,0 UV-I 0 W/m 12,2 C 13,3 C 3,2 km/h (1 Bft) 100,00 %
02.06.2016 22:16 13,3 C 94 % 1009,5 hPa 0,0 l/m 1,5 km/h (1 Bft) S-SW 211 0 min 0,000 mm 0,0 UV-I 0 W/m 12,4 C 13,3 C 3,2 km/h (1 Bft) 86,96 %
02.06.2016 22:17 13,2 C 94 % 1009,6 hPa 0,0 l/m 1,0 km/h (0 Bft) S-SW 211 0 min 0,000 mm 0,0 UV-I 0 W/m 12,3 C 13,2 C 1,6 km/h (1 Bft) 100,00 %
02.06.2016 22:18 13,2 C 94 % 1009,5 hPa 0,0 l/m 2,1 km/h (1 Bft) S-SW 211 0 min 0,000 mm 0,0 UV-I 0 W/m 12,3 C 13,2 C 3,2 km/h (1 Bft) 95,65 %
02.06.2016 22:19 13,2 C 94 % 1009,5 hPa 0,0 l/m 3,0 km/h (1 Bft) S-SW 211 0 min 0,000 mm 0,0 UV-I 0 W/m 12,3 C 13,2 C 3,2 km/h (1 Bft) 100,00 %
02.06.2016 22:20 13,2 C 94 % 1009,5 hPa 0,0 l/m 3,4 km/h (1 Bft) S-SW 211 0 min 0,000 mm 0,0 UV-I 0 W/m 12,3 C 13,2 C 4,8 km/h (1 Bft) 91,30 %
02.06.2016 22:21 13,2 C 94 % 1009,5 hPa 0,0 l/m 3,0 km/h (1 Bft) S-SW 211 0 min 0,000 mm 0,0 UV-I 0 W/m 12,3 C 13,2 C 3,2 km/h (1 Bft) 95,83 %
02.06.2016 22:22 13,2 C 94 % 1009,5 hPa 0,0 l/m 2,7 km/h (1 Bft) S-SW 211 0 min 0,000 mm 0,0 UV-I 0 W/m 12,3 C 13,2 C 3,2 km/h (1 Bft) 100,00 %
02.06.2016 22:23 13,2 C 94 % 1009,5 hPa 0,0 l/m 4,0 km/h (1 Bft) S-SW 211 0 min 0,000 mm 0,0 UV-I 0 W/m 12,3 C 13,2 C 4,8 km/h (1 Bft) 95,65 %
02.06.2016 22:24 13,2 C 94 % 1009,5 hPa 0,0 l/m 3,4 km/h (1 Bft) S-SW 205 0 min 0,000 mm 0,0 UV-I 0 W/m 12,3 C 13,2 C 4,8 km/h (1 Bft) 100,00 %
02.06.2016 22:25 13,2 C 94 % 1009,5 hPa 0,0 l/m 4,7 km/h (1 Bft) S-SW 204 0 min 0,000 mm 0,0 UV-I 0 W/m 12,3 C 13,2 C 6,4 km/h (2 Bft) 100,00 %
02.06.2016 22:26 13,2 C 94 % 1009,4 hPa 0,0 l/m 2,2 km/h (1 Bft) S-SW 203 0 min 0,000 mm 0,0 UV-I 0 W/m 12,3 C 13,2 C 4,8 km/h (1 Bft) 100,00 %
02.06.2016 22:27 13,2 C 94 % 1009,4 hPa 0,0 l/m 1,7 km/h (1 Bft) S-SW 202 0 min 0,000 mm 0,0 UV-I 0 W/m 12,3 C 13,2 C 3,2 km/h (1 Bft) 96,15 %
02.06.2016 22:28 13,2 C 94 % 1009,4 hPa 0,0 l/m 2,7 km/h (1 Bft) S-SW 202 0 min 0,000 mm 0,0 UV-I 0 W/m 12,3 C 13,2 C 3,2 km/h (1 Bft) 100,00 %
02.06.2016 22:29 13,2 C 94 % 1009,5 hPa 0,0 l/m 1,9 km/h (1 Bft) S-SW 202 0 min 0,000 mm 0,0 UV-I 0 W/m 12,3 C 13,2 C 3,2 km/h (1 Bft) 95,65 %
02.06.2016 22:30 13,2 C 94 % 1009,4 hPa 0,0 l/m 2,1 km/h (1 Bft) S-SW 202 0 min 0,000 mm 0,0 UV-I 0 W/m 12,3 C 13,2 C 4,8 km/h (1 Bft) 100,00 %
02.06.2016 22:31 13,2 C 94 % 1009,4 hPa 0,0 l/m 2,6 km/h (1 Bft) S-SW 202 0 min 0,000 mm 0,0 UV-I 0 W/m 12,3 C 13,2 C 3,2 km/h (1 Bft) 100,00 %
02.06.2016 22:32 13,2 C 94 % 1009,4 hPa 0,0 l/m 2,9 km/h (1 Bft) S-SW 202 0 min 0,000 mm 0,0 UV-I 0 W/m 12,3 C 13,2 C 4,8 km/h (1 Bft) 100,00 %
02.06.2016 22:33 13,2 C 94 % 1009,4 hPa 0,0 l/m 3,4 km/h (1 Bft) S-SW 202 0 min 0,000 mm 0,0 UV-I 0 W/m 12,3 C 13,2 C 4,8 km/h (1 Bft) 100,00 %
02.06.2016 22:34 13,2 C 94 % 1009,4 hPa 0,0 l/m 4,1 km/h (1 Bft) S-SW 201 0 min 0,000 mm 0,0 UV-I 0 W/m 12,3 C 13,2 C 6,4 km/h (2 Bft) 100,00 %
02.06.2016 22:35 13,2 C 94 % 1009,4 hPa 0,0 l/m 3,8 km/h (1 Bft) S-SW 201 0 min 0,000 mm 0,0 UV-I 0 W/m 12,3 C 13,2 C 6,4 km/h (2 Bft) 100,00 %
02.06.2016 22:36 13,2 C 94 % 1009,4 hPa 0,0 l/m 3,5 km/h (1 Bft) S-SW 199 0 min 0,000 mm 0,0 UV-I 0 W/m 12,3 C 13,2 C 4,8 km/h (1 Bft) 95,83 %
02.06.2016 22:37 13,2 C 94 % 1009,4 hPa 0,0 l/m 3,7 km/h (1 Bft) S-SW 199 0 min 0,000 mm 0,0 UV-I 0 W/m 12,3 C 13,2 C 4,8 km/h (1 Bft) 100,00 %
02.06.2016 22:38 13,2 C 94 % 1009,4 hPa 0,0 l/m 4,6 km/h (1 Bft) S-SW 198 0 min 0,000 mm 0,0 UV-I 0 W/m 12,3 C 13,2 C 6,4 km/h (2 Bft) 100,00 %
02.06.2016 22:39 13,2 C 93 % 1009,4 hPa 0,0 l/m 3,2 km/h (1 Bft) S-SW 198 0 min 0,000 mm 0,0 UV-I 0 W/m 12,1 C 13,2 C 4,8 km/h (1 Bft) 100,00 %
02.06.2016 22:40 13,2 C 93 % 1009,4 hPa 0,0 l/m 2,3 km/h (1 Bft) S-SW 198 0 min 0,000 mm 0,0 UV-I 0 W/m 12,1 C 13,2 C 3,2 km/h (1 Bft) 100,00 %
02.06.2016 22:41 13,2 C 93 % 1009,4 hPa 0,0 l/m 1,9 km/h (1 Bft) S-SW 198 0 min 0,000 mm 0,0 UV-I 0 W/m 12,1 C 13,2 C 3,2 km/h (1 Bft) 100,00 %
02.06.2016 22:42 13,2 C 93 % 1009,3 hPa 0,0 l/m 3,8 km/h (1 Bft) S-SW 198 0 min 0,000 mm 0,0 UV-I 0 W/m 12,1 C 13,2 C 4,8 km/h (1 Bft) 100,00 %
02.06.2016 22:43 13,2 C 93 % 1009,3 hPa 0,0 l/m 4,0 km/h (1 Bft) S 178 0 min 0,000 mm 0,0 UV-I 0 W/m 12,1 C 13,2 C 4,8 km/h (1 Bft) 100,00 %
02.06.2016 22:45 13,2 C 93 % 1009,3 hPa 0,0 l/m 4,8 km/h (1 Bft) S-SW 192 0 min 0,000 mm 0,0 UV-I 0 W/m 12,1 C 13,2 C 6,4 km/h (2 Bft) 100,00 %
02.06.2016 22:46 13,3 C 93 % 1009,4 hPa 0,0 l/m 4,4 km/h (1 Bft) S 191 0 min 0,000 mm 0,0 UV-I 0 W/m 12,2 C 13,3 C 4,8 km/h (1 Bft) 100,00 %
02.06.2016 22:47 13,3 C 93 % 1009,3 hPa 0,0 l/m 4,3 km/h (1 Bft) S 189 0 min 0,000 mm 0,0 UV-I 0 W/m 12,2 C 13,3 C 6,4 km/h (2 Bft) 100,00 %
02.06.2016 22:48 13,3 C 93 % 1009,3 hPa 0,0 l/m 5,2 km/h (1 Bft) S 189 0 min 0,000 mm 0,0 UV-I 0 W/m 12,2 C 13,3 C 6,4 km/h (2 Bft) 100,00 %
02.06.2016 22:49 13,3 C 93 % 1009,3 hPa 0,0 l/m 4,4 km/h (1 Bft) S 178 0 min 0,000 mm 0,0 UV-I 0 W/m 12,2 C 13,3 C 6,4 km/h (2 Bft) 100,00 %
02.06.2016 22:50 13,3 C 93 % 1009,3 hPa 0,0 l/m 3,9 km/h (1 Bft) S 178 0 min 0,000 mm 0,0 UV-I 0 W/m 12,2 C 13,3 C 4,8 km/h (1 Bft) 100,00 %
02.06.2016 22:51 13,2 C 93 % 1009,3 hPa 0,0 l/m 3,8 km/h (1 Bft) S 177 0 min 0,000 mm 0,0 UV-I 0 W/m 12,1 C 13,2 C 4,8 km/h (1 Bft) 100,00 %
02.06.2016 22:52 13,2 C 93 % 1009,3 hPa 0,0 l/m 4,0 km/h (1 Bft) S 177 0 min 0,000 mm 0,0 UV-I 0 W/m 12,1 C 13,2 C 4,8 km/h (1 Bft) 95,83 %
02.06.2016 22:53 13,2 C 93 % 1009,3 hPa 0,0 l/m 2,7 km/h (1 Bft) S 177 0 min 0,000 mm 0,0 UV-I 0 W/m 12,1 C 13,2 C 4,8 km/h (1 Bft) 100,00 %
02.06.2016 22:54 13,3 C 93 % 1009,3 hPa 0,0 l/m 3,3 km/h (1 Bft) S 177 0 min 0,000 mm 0,0 UV-I 0 W/m 12,2 C 13,3 C 4,8 km/h (1 Bft) 100,00 %
02.06.2016 22:55 13,3 C 93 % 1009,3 hPa 0,0 l/m 3,0 km/h (1 Bft) S 177 0 min 0,000 mm 0,0 UV-I 0 W/m 12,2 C 13,3 C 4,8 km/h (1 Bft) 95,65 %
02.06.2016 22:56 13,3 C 93 % 1009,4 hPa 0,0 l/m 2,7 km/h (1 Bft) S 177 0 min 0,000 mm 0,0 UV-I 0 W/m 12,2 C 13,3 C 4,8 km/h (1 Bft) 100,00 %
02.06.2016 22:57 13,3 C 93 % 1009,3 hPa 0,0 l/m 2,3 km/h (1 Bft) S 177 0 min 0,000 mm 0,0 UV-I 0 W/m 12,2 C 13,3 C 3,2 km/h (1 Bft) 95,65 %
02.06.2016 22:58 13,3 C 93 % 1009,4 hPa 0,0 l/m 3,6 km/h (1 Bft) S 177 0 min 0,000 mm 0,0 UV-I 0 W/m 12,2 C 13,3 C 4,8 km/h (1 Bft) 100,00 %
02.06.2016 22:59 13,3 C 93 % 1009,4 hPa 0,0 l/m 3,4 km/h (1 Bft) S 184 0 min 0,000 mm 0,0 UV-I 0 W/m 12,2 C 13,3 C 4,8 km/h (1 Bft) 100,00 %
02.06.2016 23:00 13,2 C 93 % 1009,4 hPa 0,0 l/m 2,3 km/h (1 Bft) S 184 0 min 0,000 mm 0,0 UV-I 0 W/m 12,1 C 13,2 C 3,2 km/h (1 Bft) 100,00 %
02.06.2016 23:01 13,2 C 93 % 1009,4 hPa 0,0 l/m 2,4 km/h (1 Bft) S 184 0 min 0,000 mm 0,0 UV-I 0 W/m 12,1 C 13,2 C 3,2 km/h (1 Bft) 100,00 %
02.06.2016 23:02 13,2 C 93 % 1009,4 hPa 0,0 l/m 3,2 km/h (1 Bft) S 184 0 min 0,000 mm 0,0 UV-I 0 W/m 12,1 C 13,2 C 4,8 km/h (1 Bft) 100,00 %
02.06.2016 23:03 13,2 C 93 % 1009,4 hPa 0,0 l/m 2,9 km/h (1 Bft) S 184 0 min 0,000 mm 0,0 UV-I 0 W/m 12,1 C 13,2 C 3,2 km/h (1 Bft) 100,00 %
02.06.2016 23:04 13,1 C 93 % 1009,4 hPa 0,0 l/m 3,8 km/h (1 Bft) S 184 0 min 0,000 mm 0,0 UV-I 0 W/m 12,0 C 13,1 C 4,8 km/h (1 Bft) 100,00 %
02.06.2016 23:05 13,1 C 93 % 1009,4 hPa 0,0 l/m 3,8 km/h (1 Bft) S 184 0 min 0,000 mm 0,0 UV-I 0 W/m 12,0 C 13,1 C 4,8 km/h (1 Bft) 100,00 %
02.06.2016 23:06 13,0 C 94 % 1009,4 hPa 0,0 l/m 3,0 km/h (1 Bft) S 184 0 min 0,000 mm 0,0 UV-I 0 W/m 12,1 C 13,0 C 4,8 km/h (1 Bft) 100,00 %
02.06.2016 23:07 12,9 C 94 % 1009,4 hPa 0,0 l/m 2,2 km/h (1 Bft) S 184 0 min 0,000 mm 0,0 UV-I 0 W/m 12,0 C 12,9 C 3,2 km/h (1 Bft) 100,00 %
02.06.2016 23:08 12,9 C 94 % 1009,3 hPa 0,0 l/m 3,4 km/h (1 Bft) S 184 0 min 0,000 mm 0,0 UV-I 0 W/m 12,0 C 12,9 C 4,8 km/h (1 Bft) 100,00 %
02.06.2016 23:09 12,9 C 94 % 1009,4 hPa 0,0 l/m 3,5 km/h (1 Bft) S 184 0 min 0,000 mm 0,0 UV-I 0 W/m 12,0 C 12,9 C 4,8 km/h (1 Bft) 100,00 %
02.06.2016 23:10 12,9 C 94 % 1009,3 hPa 0,0 l/m 2,9 km/h (1 Bft) S 184 0 min 0,000 mm 0,0 UV-I 0 W/m 12,0 C 12,9 C 3,2 km/h (1 Bft) 100,00 %
02.06.2016 23:11 12,9 C 94 % 1009,3 hPa 0,0 l/m 2,3 km/h (1 Bft) S 184 0 min 0,000 mm 0,0 UV-I 0 W/m 12,0 C 12,9 C 3,2 km/h (1 Bft) 95,65 %
02.06.2016 23:12 12,9 C 94 % 1009,3 hPa 0,0 l/m 3,2 km/h (1 Bft) S 184 0 min 0,000 mm 0,0 UV-I 0 W/m 12,0 C 12,9 C 3,2 km/h (1 Bft) 100,00 %
02.06.2016 23:13 12,9 C 94 % 1009,3 hPa 0,0 l/m 2,7 km/h (1 Bft) S 184 0 min 0,000 mm 0,0 UV-I 0 W/m 12,0 C 12,9 C 3,2 km/h (1 Bft) 100,00 %
02.06.2016 23:14 12,9 C 94 % 1009,3 hPa 0,0 l/m 2,5 km/h (1 Bft) S 184 0 min 0,000 mm 0,0 UV-I 0 W/m 12,0 C 12,9 C 3,2 km/h (1 Bft) 100,00 %
02.06.2016 23:15 12,8 C 94 % 1009,3 hPa 0,0 l/m 2,6 km/h (1 Bft) S 184 0 min 0,000 mm 0,0 UV-I 0 W/m 11,9 C 12,8 C 4,8 km/h (1 Bft) 100,00 %
02.06.2016 23:16 12,8 C 94 % 1009,4 hPa 0,0 l/m 2,5 km/h (1 Bft) S 184 0 min 0,000 mm 0,0 UV-I 0 W/m 11,9 C 12,8 C 3,2 km/h (1 Bft) 100,00 %
02.06.2016 23:17 12,8 C 94 % 1009,4 hPa 0,0 l/m 1,3 km/h (1 Bft) S 184 0 min 0,000 mm 0,0 UV-I 0 W/m 11,9 C 12,8 C 3,2 km/h (1 Bft) 95,83 %
02.06.2016 23:18 12,9 C 94 % 1009,4 hPa 0,0 l/m 0,7 km/h (0 Bft) S 184 0 min 0,000 mm 0,0 UV-I 0 W/m 12,0 C 12,9 C 1,6 km/h (1 Bft) 100,00 %
02.06.2016 23:19 12,9 C 94 % 1009,5 hPa 0,0 l/m 0,9 km/h (0 Bft) S 184 0 min 0,000 mm 0,0 UV-I 0 W/m 12,0 C 12,9 C 1,6 km/h (1 Bft) 100,00 %
02.06.2016 23:20 12,9 C 94 % 1009,4 hPa 0,0 l/m 2,5 km/h (1 Bft) S 184 0 min 0,000 mm 0,0 UV-I 0 W/m 12,0 C 12,9 C 3,2 km/h (1 Bft) 100,00 %
02.06.2016 23:21 12,9 C 94 % 1009,5 hPa 0,0 l/m 3,0 km/h (1 Bft) S 184 0 min 0,000 mm 0,0 UV-I 0 W/m 12,0 C 12,9 C 4,8 km/h (1 Bft) 100,00 %
02.06.2016 23:22 13,0 C 94 % 1009,5 hPa 0,0 l/m 4,0 km/h (1 Bft) S-SW 192 0 min 0,000 mm 0,0 UV-I 0 W/m 12,1 C 13,0 C 4,8 km/h (1 Bft) 100,00 %
02.06.2016 23:23 13,0 C 94 % 1009,5 hPa 0,0 l/m 3,8 km/h (1 Bft) S-SW 202 0 min 0,000 mm 0,0 UV-I 0 W/m 12,1 C 13,0 C 4,8 km/h (1 Bft) 100,00 %
02.06.2016 23:24 13,0 C 94 % 1009,5 hPa 0,0 l/m 4,5 km/h (1 Bft) S-SW 202 0 min 0,000 mm 0,0 UV-I 0 W/m 12,1 C 13,0 C 6,4 km/h (2 Bft) 100,00 %
02.06.2016 23:25 12,9 C 94 % 1009,5 hPa 0,0 l/m 3,6 km/h (1 Bft) S-SW 202 0 min 0,000 mm 0,0 UV-I 0 W/m 12,0 C 12,9 C 4,8 km/h (1 Bft) 100,00 %
02.06.2016 23:26 13,0 C 94 % 1009,5 hPa 0,0 l/m 3,4 km/h (1 Bft) S-SW 200 0 min 0,000 mm 0,0 UV-I 0 W/m 12,1 C 13,0 C 4,8 km/h (1 Bft) 100,00 %
02.06.2016 23:27 12,9 C 94 % 1009,5 hPa 0,0 l/m 3,9 km/h (1 Bft) S-SW 200 0 min 0,000 mm 0,0 UV-I 0 W/m 12,0 C 12,9 C 6,4 km/h (2 Bft) 100,00 %
02.06.2016 23:28 12,9 C 94 % 1009,5 hPa 0,0 l/m 2,3 km/h (1 Bft) S-SW 200 0 min 0,000 mm 0,0 UV-I 0 W/m 12,0 C 12,9 C 3,2 km/h (1 Bft) 100,00 %
02.06.2016 23:29 13,0 C 94 % 1009,5 hPa 0,0 l/m 3,5 km/h (1 Bft) S-SW 200 0 min 0,000 mm 0,0 UV-I 0 W/m 12,1 C 13,0 C 4,8 km/h (1 Bft) 100,00 %
02.06.2016 23:30 12,9 C 94 % 1009,4 hPa 0,0 l/m 3,0 km/h (1 Bft) S-SW 200 0 min 0,000 mm 0,0 UV-I 0 W/m 12,0 C 12,9 C 3,2 km/h (1 Bft) 100,00 %
02.06.2016 23:31 12,9 C 94 % 1009,5 hPa 0,0 l/m 2,7 km/h (1 Bft) S-SW 200 0 min 0,000 mm 0,0 UV-I 0 W/m 12,0 C 12,9 C 3,2 km/h (1 Bft) 100,00 %
02.06.2016 23:32 12,9 C 93 % 1009,5 hPa 0,0 l/m 3,8 km/h (1 Bft) S-SW 202 0 min 0,000 mm 0,0 UV-I 0 W/m 11,8 C 12,9 C 4,8 km/h (1 Bft) 100,00 %
02.06.2016 23:33 12,9 C 93 % 1009,5 hPa 0,0 l/m 3,4 km/h (1 Bft) S-SW 202 0 min 0,000 mm 0,0 UV-I 0 W/m 11,8 C 12,9 C 4,8 km/h (1 Bft) 95,83 %
02.06.2016 23:34 12,8 C 93 % 1009,5 hPa 0,0 l/m 3,6 km/h (1 Bft) S-SW 202 0 min 0,000 mm 0,0 UV-I 0 W/m 11,7 C 12,8 C 4,8 km/h (1 Bft) 100,00 %
02.06.2016 23:35 12,8 C 94 % 1009,5 hPa 0,0 l/m 3,4 km/h (1 Bft) S-SW 202 0 min 0,000 mm 0,0 UV-I 0 W/m 11,9 C 12,8 C 4,8 km/h (1 Bft) 100,00 %
02.06.2016 23:36 12,8 C 94 % 1009,5 hPa 0,0 l/m 3,4 km/h (1 Bft) S-SW 202 0 min 0,000 mm 0,0 UV-I 0 W/m 11,9 C 12,8 C 4,8 km/h (1 Bft) 100,00 %
02.06.2016 23:37 12,8 C 94 % 1009,5 hPa 0,0 l/m 2,7 km/h (1 Bft) S-SW 202 0 min 0,000 mm 0,0 UV-I 0 W/m 11,9 C 12,8 C 3,2 km/h (1 Bft) 100,00 %
02.06.2016 23:38 12,8 C 94 % 1009,5 hPa 0,0 l/m 3,3 km/h (1 Bft) S-SW 202 0 min 0,000 mm 0,0 UV-I 0 W/m 11,9 C 12,8 C 4,8 km/h (1 Bft) 100,00 %
02.06.2016 23:39 12,8 C 94 % 1009,5 hPa 0,0 l/m 3,7 km/h (1 Bft) S-SW 202 0 min 0,000 mm 0,0 UV-I 0 W/m 11,9 C 12,8 C 4,8 km/h (1 Bft) 95,65 %
02.06.2016 23:40 12,8 C 94 % 1009,5 hPa 0,0 l/m 3,8 km/h (1 Bft) S-SW 201 0 min 0,000 mm 0,0 UV-I 0 W/m 11,9 C 12,8 C 6,4 km/h (2 Bft) 100,00 %
02.06.2016 23:41 12,8 C 94 % 1009,6 hPa 0,0 l/m 4,3 km/h (1 Bft) S-SW 198 0 min 0,000 mm 0,0 UV-I 0 W/m 11,9 C 12,8 C 4,8 km/h (1 Bft) 95,65 %
02.06.2016 23:42 12,8 C 94 % 1009,6 hPa 0,0 l/m 4,1 km/h (1 Bft) S-SW 198 0 min 0,000 mm 0,0 UV-I 0 W/m 11,9 C 12,8 C 6,4 km/h (2 Bft) 100,00 %
02.06.2016 23:43 12,8 C 94 % 1009,6 hPa 0,0 l/m 4,4 km/h (1 Bft) S-SW 198 0 min 0,000 mm 0,0 UV-I 0 W/m 11,9 C 12,8 C 4,8 km/h (1 Bft) 95,65 %
02.06.2016 23:44 12,8 C 94 % 1009,6 hPa 0,0 l/m 4,2 km/h (1 Bft) S 179 0 min 0,000 mm 0,0 UV-I 0 W/m 11,9 C 12,8 C 8,0 km/h (2 Bft) 100,00 %
02.06.2016 23:45 12,8 C 95 % 1009,6 hPa 0,0 l/m 4,4 km/h (1 Bft) S 180 0 min 0,000 mm 0,0 UV-I 0 W/m 12,0 C 12,8 C 6,4 km/h (2 Bft) 95,65 %
02.06.2016 23:46 12,8 C 95 % 1009,6 hPa 0,0 l/m 4,3 km/h (1 Bft) S-SW 193 0 min 0,000 mm 0,0 UV-I 0 W/m 12,0 C 12,8 C 6,4 km/h (2 Bft) 100,00 %
02.06.2016 23:47 12,8 C 95 % 1009,6 hPa 0,0 l/m 3,8 km/h (1 Bft) S 190 0 min 0,000 mm 0,0 UV-I 0 W/m 12,0 C 12,8 C 4,8 km/h (1 Bft) 100,00 %
02.06.2016 23:48 12,8 C 95 % 1009,6 hPa 0,0 l/m 3,5 km/h (1 Bft) S 190 0 min 0,000 mm 0,0 UV-I 0 W/m 12,0 C 12,8 C 4,8 km/h (1 Bft) 100,00 %
02.06.2016 23:49 12,8 C 95 % 1009,7 hPa 0,0 l/m 4,8 km/h (1 Bft) S-SW 194 0 min 0,000 mm 0,0 UV-I 0 W/m 12,0 C 12,8 C 6,4 km/h (2 Bft) 100,00 %
02.06.2016 23:50 12,8 C 95 % 1009,6 hPa 0,0 l/m 5,0 km/h (1 Bft) S-SW 204 0 min 0,000 mm 0,0 UV-I 0 W/m 12,0 C 12,8 C 8,0 km/h (2 Bft) 100,00 %
02.06.2016 23:51 12,8 C 95 % 1009,6 hPa 0,0 l/m 6,1 km/h (2 Bft) S 184 0 min 0,000 mm 0,0 UV-I 0 W/m 12,0 C 12,8 C 8,0 km/h (2 Bft) 100,00 %
02.06.2016 23:52 12,9 C 95 % 1009,6 hPa 0,0 l/m 5,2 km/h (1 Bft) S-SW 212 0 min 0,000 mm 0,0 UV-I 0 W/m 12,1 C 12,9 C 6,4 km/h (2 Bft) 100,00 %
02.06.2016 23:53 12,8 C 95 % 1009,6 hPa 0,0 l/m 5,4 km/h (1 Bft) S-SW 194 0 min 0,000 mm 0,0 UV-I 0 W/m 12,0 C 12,8 C 6,4 km/h (2 Bft) 91,67 %
02.06.2016 23:54 12,8 C 95 % 1009,6 hPa 0,0 l/m 5,3 km/h (1 Bft) S-SW 199 0 min 0,000 mm 0,0 UV-I 0 W/m 12,0 C 12,8 C 6,4 km/h (2 Bft) 95,65 %
02.06.2016 23:55 12,8 C 95 % 1009,6 hPa 0,0 l/m 4,5 km/h (1 Bft) S-SW 199 0 min 0,000 mm 0,0 UV-I 0 W/m 12,0 C 12,8 C 6,4 km/h (2 Bft) 96,30 %
02.06.2016 23:56 12,9 C 95 % 1009,6 hPa 0,0 l/m 3,8 km/h (1 Bft) S-SW 203 0 min 0,000 mm 0,0 UV-I 0 W/m 12,1 C 12,9 C 6,4 km/h (2 Bft) 95,65 %
02.06.2016 23:57 12,9 C 95 % 1009,6 hPa 0,0 l/m 5,6 km/h (1 Bft) S-SW 211 0 min 0,000 mm 0,0 UV-I 0 W/m 12,1 C 12,9 C 8,0 km/h (2 Bft) 100,00 %
02.06.2016 23:58 12,9 C 95 % 1009,6 hPa 0,0 l/m 6,0 km/h (2 Bft) S-SW 195 0 min 0,000 mm 0,0 UV-I 0 W/m 12,1 C 12,9 C 8,0 km/h (2 Bft) 95,65 %
02.06.2016 23:59 12,9 C 95 % 1009,6 hPa 0,0 l/m 6,2 km/h (2 Bft) S-SW 202 0 min 0,000 mm 0,0 UV-I 0 W/m 12,1 C 12,9 C 8,0 km/h (2 Bft) 95,83 %
_ Min-Zeit 23:14 16:52 17:50 - 21:20 - - - - - - 23:34 09:29 04:38 00:45
Minimum _ 12,8 C 66 % 1008,4 hPa - 0,0 km/h (0 Bft) - - - - - - 11,7 C 9,7 C 1,6 km/h (1 Bft) 86,96 %
_ Max-Zeit 16:50 10:36 00:01 04:07 13:43 - - 12:13 16:00 14:05 14:05 15:09 16:50 13:09 00:00
Maximum _ 19,6 C 97 % 1011,0 hPa 0,4 l/m 17,4 km/h
W (3 Bft)
- - 1 min 0,432 mm 5,6 UV-I 876 W/m 15,2 C 19,6 C 24,1 km/h
W-SW (4 Bft)
100,00 %
Durchschnitt _ 14,8 C 90 % 1009,6 hPa #13,2 l/m 5,5 km/h (1 Bft) SW - #5:01 h #2,489 mm 2,9 UV-I 278 W/m 13,0 C 14,4 C 8,3 km/h (2 Bft) 98,44 %